[[{"header":{"parameterUnit":"m.s-1","parameterCategory":1,"la1":30.6,"la2":29.2853,"lo1":-89.7004,"lo2":-87.6739,"dy":0.0162,"dx":0.0183,"nx":112,"ny":82,"refTime":"2023-08-19T06:00:00:Z","depth":0,"parameterNumber":2,"parameterNumberName":"U-component_of_WINDS"},"data":[0.0,0.0,0.0,0.0,0.0,0.0,0.0,0.0,0.0,0.0,0.0,0.0,0.0,0.0,0.0,0.0,0.0,0.0,0.0,0.0,0.0,0.0,0.0,0.0,0.0,0.0,0.0,0.0,0.0,0.0,0.0,0.0,0.0,0.0,0.0,0.0,0.0,0.0,0.0,0.0,0.0,0.0,0.0,0.0,0.0,0.0,0.0,0.0,0.0,0.0,0.0,0.0,0.0,0.0,0.0,0.0,0.0,0.0,0.0,0.0,0.0,0.0,0.0,0.0,0.0,0.0,0.0,0.0,0.0,0.0,0.0,0.0,0.0,0.0,0.0,0.0,0.0,0.0,0.0,0.0,0.0,0.0,0.0,0.0,0.0,0.0,0.0,0.0,0.0,0.0,-3.6005,-3.6003,-3.5996,-3.5992,-3.5992,-3.5992,-3.597,-3.5891,0.0,0.0,0.0,0.0,0.0,0.0,0.0,0.0,0.0,0.0,0.0,0.0,0.0,0.0,0.0,0.0,0.0,0.0,0.0,0.0,0.0,0.0,0.0,0.0,0.0,0.0,0.0,0.0,0.0,0.0,0.0,0.0,0.0,0.0,0.0,0.0,0.0,0.0,0.0,0.0,0.0,0.0,0.0,0.0,0.0,0.0,0.0,0.0,0.0,0.0,0.0,0.0,0.0,0.0,0.0,0.0,0.0,0.0,0.0,0.0,0.0,0.0,0.0,0.0,0.0,0.0,0.0,0.0,0.0,0.0,0.0,0.0,0.0,0.0,0.0,0.0,0.0,0.0,0.0,0.0,0.0,0.0,0.0,0.0,0.0,0.0,0.0,0.0,0.0,0.0,0.0,0.0,0.0,0.0,0.0,0.0,0.0,0.0,0.0,0.0,0.0,0.0,0.0,0.0,-3.6007,-3.5996,-3.5994,-3.5992,-3.5992,-3.5992,-3.5954,-3.5825,0.0,0.0,0.0,0.0,0.0,0.0,0.0,0.0,0.0,0.0,0.0,0.0,0.0,0.0,0.0,0.0,0.0,0.0,0.0,0.0,0.0,0.0,0.0,0.0,0.0,0.0,0.0,0.0,0.0,0.0,0.0,0.0,0.0,0.0,0.0,0.0,0.0,0.0,0.0,0.0,0.0,0.0,0.0,0.0,0.0,0.0,0.0,0.0,0.0,0.0,0.0,0.0,0.0,0.0,0.0,0.0,0.0,0.0,0.0,0.0,0.0,0.0,0.0,0.0,0.0,0.0,0.0,0.0,0.0,0.0,0.0,0.0,0.0,0.0,0.0,0.0,0.0,0.0,0.0,0.0,0.0,0.0,0.0,0.0,0.0,0.0,0.0,0.0,0.0,0.0,0.0,0.0,0.0,0.0,0.0,0.0,0.0,0.0,0.0,0.0,0.0,0.0,0.0,-3.7414,-3.741,-3.74,-3.6989,-3.6696,-3.6696,-3.6265,-3.5935,-3.5816,-3.5891,0.0,0.0,0.0,0.0,0.0,0.0,0.0,0.0,0.0,0.0,0.0,0.0,0.0,0.0,0.0,0.0,0.0,0.0,0.0,0.0,0.0,0.0,0.0,0.0,0.0,0.0,0.0,0.0,0.0,0.0,0.0,0.0,0.0,0.0,0.0,0.0,0.0,0.0,0.0,0.0,0.0,0.0,0.0,0.0,0.0,0.0,0.0,0.0,0.0,0.0,0.0,0.0,0.0,0.0,0.0,0.0,0.0,0.0,0.0,0.0,0.0,0.0,0.0,0.0,0.0,0.0,0.0,0.0,0.0,0.0,0.0,0.0,0.0,0.0,0.0,0.0,0.0,0.0,0.0,0.0,0.0,0.0,0.0,0.0,0.0,0.0,0.0,0.0,0.0,0.0,0.0,0.0,0.0,0.0,0.0,0.0,0.0,0.0,0.0,0.0,0.0,0.0,-3.86,-3.8596,-3.8593,-3.8006,-3.7614,-3.7614,-3.6813,-3.6248,-3.6111,-3.5955,0.0,0.0,0.0,0.0,0.0,0.0,0.0,0.0,0.0,0.0,0.0,0.0,0.0,0.0,0.0,0.0,0.0,0.0,0.0,0.0,0.0,0.0,0.0,0.0,0.0,0.0,0.0,0.0,0.0,0.0,0.0,0.0,0.0,0.0,0.0,0.0,0.0,0.0,0.0,0.0,0.0,0.0,0.0,0.0,0.0,0.0,0.0,0.0,0.0,0.0,0.0,0.0,0.0,0.0,0.0,0.0,0.0,0.0,0.0,0.0,0.0,0.0,0.0,0.0,0.0,0.0,0.0,0.0,0.0,0.0,0.0,0.0,0.0,0.0,0.0,0.0,0.0,0.0,0.0,0.0,0.0,0.0,0.0,0.0,0.0,0.0,0.0,0.0,0.0,0.0,0.0,0.0,0.0,0.0,0.0,0.0,0.0,0.0,0.0,0.0,0.0,0.0,-3.8599,-3.8593,-3.8591,-3.8552,-3.8513,-3.8513,-3.7711,-3.7146,-3.7014,-3.6243,0.0,0.0,0.0,0.0,0.0,0.0,0.0,0.0,0.0,0.0,0.0,0.0,0.0,0.0,0.0,0.0,0.0,0.0,0.0,0.0,0.0,0.0,0.0,0.0,0.0,0.0,0.0,0.0,0.0,0.0,0.0,0.0,0.0,0.0,0.0,0.0,0.0,0.0,0.0,0.0,0.0,0.0,0.0,0.0,0.0,0.0,0.0,0.0,0.0,0.0,0.0,0.0,0.0,0.0,0.0,0.0,0.0,0.0,0.0,0.0,0.0,0.0,0.0,0.0,0.0,0.0,0.0,0.0,0.0,0.0,0.0,0.0,0.0,0.0,0.0,0.0,0.0,0.0,0.0,0.0,0.0,0.0,0.0,0.0,0.0,0.0,0.0,0.0,0.0,0.0,0.0,0.0,0.0,0.0,0.0,0.0,0.0,0.0,0.0,0.0,0.0,0.0,-4.0164,-4.0157,-4.0153,-3.9665,-3.9351,-3.9351,-3.8591,-3.7846,-3.7195,0.0,0.0,0.0,0.0,0.0,0.0,0.0,0.0,0.0,0.0,0.0,0.0,0.0,0.0,0.0,0.0,0.0,0.0,0.0,0.0,0.0,0.0,0.0,0.0,0.0,0.0,0.0,0.0,0.0,0.0,0.0,0.0,0.0,0.0,0.0,0.0,0.0,0.0,0.0,0.0,0.0,0.0,0.0,0.0,0.0,0.0,0.0,0.0,0.0,0.0,0.0,0.0,0.0,0.0,0.0,0.0,0.0,0.0,0.0,0.0,0.0,0.0,0.0,0.0,0.0,0.0,0.0,0.0,0.0,0.0,0.0,0.0,0.0,0.0,0.0,0.0,0.0,0.0,0.0,0.0,0.0,0.0,0.0,0.0,0.0,0.0,0.0,0.0,0.0,0.0,0.0,0.0,0.0,0.0,0.0,0.0,0.0,0.0,0.0,0.0,0.0,0.0,-4.1011,-4.1101,-4.1094,-4.1109,-4.0561,-4.021,-4.021,-3.9468,-3.8703,-3.8063,0.0,0.0,0.0,0.0,0.0,0.0,0.0,0.0,0.0,0.0,0.0,0.0,0.0,0.0,0.0,0.0,0.0,0.0,0.0,0.0,0.0,0.0,0.0,0.0,0.0,0.0,0.0,0.0,0.0,0.0,0.0,0.0,0.0,0.0,0.0,0.0,0.0,0.0,0.0,0.0,0.0,0.0,0.0,0.0,0.0,0.0,0.0,0.0,0.0,0.0,0.0,0.0,0.0,0.0,0.0,0.0,0.0,0.0,0.0,0.0,0.0,0.0,0.0,0.0,0.0,0.0,0.0,0.0,0.0,0.0,0.0,0.0,0.0,0.0,0.0,0.0,0.0,0.0,0.0,0.0,0.0,0.0,0.0,0.0,0.0,0.0,0.0,0.0,0.0,0.0,0.0,0.0,0.0,0.0,0.0,0.0,0.0,0.0,0.0,0.0,0.0,0.0,-4.1107,-4.1098,-4.1109,-4.1109,-4.1109,-4.1109,-4.1109,-4.0309,-3.9816,0.0,0.0,0.0,0.0,0.0,0.0,0.0,0.0,0.0,0.0,0.0,0.0,0.0,0.0,0.0,0.0,0.0,0.0,0.0,0.0,0.0,0.0,0.0,0.0,0.0,0.0,0.0,0.0,0.0,0.0,0.0,0.0,0.0,0.0,0.0,0.0,0.0,0.0,0.0,0.0,0.0,0.0,0.0,0.0,0.0,0.0,0.0,0.0,0.0,0.0,0.0,0.0,0.0,0.0,0.0,0.0,0.0,0.0,0.0,0.0,0.0,0.0,0.0,0.0,0.0,0.0,0.0,0.0,0.0,0.0,0.0,0.0,0.0,0.0,0.0,0.0,0.0,0.0,0.0,0.0,0.0,0.0,0.0,0.0,0.0,0.0,0.0,0.0,0.0,0.0,0.0,0.0,0.0,0.0,0.0,0.0,0.0,0.0,0.0,0.0,0.0,0.0,0.0,-4.1089,-4.1098,-4.1095,-4.1106,-4.1108,-4.1108,-4.1108,-4.0859,-4.0449,-3.9839,0.0,0.0,0.0,0.0,0.0,0.0,0.0,0.0,0.0,0.0,0.0,0.0,0.0,0.0,0.0,0.0,0.0,0.0,0.0,0.0,0.0,0.0,0.0,0.0,0.0,0.0,0.0,0.0,0.0,0.0,0.0,0.0,0.0,0.0,0.0,0.0,0.0,0.0,0.0,0.0,0.0,0.0,0.0,0.0,0.0,0.0,0.0,0.0,0.0,0.0,0.0,0.0,0.0,0.0,0.0,0.0,0.0,0.0,0.0,0.0,0.0,0.0,0.0,0.0,0.0,0.0,0.0,0.0,0.0,0.0,0.0,0.0,0.0,0.0,0.0,0.0,0.0,0.0,0.0,0.0,0.0,0.0,0.0,0.0,0.0,0.0,0.0,0.0,0.0,0.0,0.0,0.0,0.0,0.0,0.0,0.0,0.0,0.0,0.0,0.0,0.0,0.0,-4.1054,-4.1089,-4.1104,-4.1091,-4.1093,-4.1094,-4.1094,-4.1091,-4.0872,-4.0343,0.0,0.0,0.0,0.0,0.0,0.0,0.0,0.0,0.0,0.0,0.0,0.0,0.0,0.0,0.0,0.0,0.0,0.0,0.0,0.0,0.0,0.0,0.0,0.0,0.0,0.0,0.0,0.0,0.0,0.0,0.0,0.0,0.0,0.0,0.0,0.0,0.0,0.0,0.0,0.0,0.0,0.0,0.0,0.0,0.0,0.0,0.0,0.0,0.0,0.0,0.0,0.0,0.0,0.0,0.0,0.0,0.0,0.0,0.0,0.0,0.0,0.0,0.0,0.0,0.0,0.0,0.0,0.0,0.0,0.0,0.0,0.0,0.0,0.0,0.0,0.0,0.0,0.0,0.0,0.0,0.0,0.0,0.0,0.0,0.0,0.0,0.0,0.0,0.0,0.0,0.0,0.0,0.0,0.0,0.0,0.0,0.0,0.0,0.0,0.0,0.0,0.0,-4.101,-4.1054,-4.1093,-4.1093,-4.1092,-4.1105,-4.1105,-4.1104,-4.1101,-4.1095,0.0,0.0,0.0,0.0,0.0,0.0,0.0,0.0,0.0,0.0,0.0,0.0,0.0,0.0,0.0,0.0,0.0,0.0,0.0,0.0,0.0,0.0,0.0,0.0,0.0,0.0,0.0,0.0,0.0,0.0,0.0,0.0,0.0,0.0,0.0,0.0,0.0,0.0,0.0,0.0,0.0,0.0,0.0,0.0,0.0,0.0,0.0,0.0,0.0,0.0,0.0,0.0,0.0,0.0,0.0,0.0,0.0,0.0,0.0,0.0,-3.6276,-3.5697,0.0,0.0,0.0,0.0,0.0,0.0,0.0,0.0,0.0,0.0,0.0,0.0,0.0,0.0,0.0,0.0,0.0,0.0,0.0,0.0,0.0,0.0,0.0,0.0,0.0,0.0,0.0,0.0,0.0,0.0,0.0,0.0,0.0,0.0,0.0,0.0,0.0,0.0,0.0,0.0,-4.1007,-4.1063,-4.1108,-4.1094,-4.1106,-4.1103,-4.1103,-4.1098,-4.1083,-4.1015,-4.0828,0.0,0.0,0.0,0.0,0.0,0.0,0.0,0.0,0.0,0.0,0.0,0.0,0.0,0.0,0.0,0.0,0.0,0.0,0.0,0.0,0.0,0.0,0.0,0.0,0.0,0.0,0.0,0.0,0.0,0.0,0.0,0.0,0.0,0.0,0.0,0.0,0.0,0.0,0.0,0.0,0.0,0.0,0.0,0.0,0.0,0.0,0.0,0.0,0.0,0.0,0.0,0.0,0.0,0.0,0.0,0.0,0.0,0.0,0.0,-3.7424,-3.6992,0.0,0.0,0.0,0.0,0.0,0.0,0.0,0.0,0.0,0.0,0.0,0.0,0.0,0.0,0.0,0.0,0.0,0.0,0.0,0.0,0.0,0.0,0.0,0.0,0.0,0.0,0.0,0.0,0.0,0.0,0.0,0.0,0.0,0.0,0.0,0.0,0.0,0.0,0.0,0.0,-4.0964,-4.1037,-4.109,-4.1095,-4.1098,-4.1106,-4.1106,-4.1103,-4.1094,-4.1045,-4.1022,0.0,0.0,0.0,0.0,0.0,0.0,0.0,0.0,0.0,0.0,0.0,0.0,0.0,0.0,0.0,0.0,0.0,0.0,0.0,0.0,0.0,0.0,0.0,0.0,0.0,0.0,0.0,0.0,0.0,0.0,0.0,0.0,0.0,0.0,0.0,0.0,0.0,0.0,0.0,0.0,0.0,0.0,0.0,0.0,0.0,0.0,0.0,0.0,0.0,0.0,0.0,0.0,0.0,-3.8785,-3.8863,-3.8863,-3.8863,-3.8866,-3.8862,-3.8879,-3.8696,-3.84,-3.8339,0.0,0.0,0.0,0.0,0.0,0.0,0.0,0.0,0.0,0.0,0.0,0.0,0.0,0.0,0.0,0.0,0.0,0.0,0.0,0.0,0.0,0.0,-4.0101,-4.0777,-4.0981,-4.0843,-4.0168,0.0,0.0,0.0,0.0,0.0,0.0,0.0,0.0,0.0,0.0,0.0,-4.0912,-4.1017,-4.1105,-4.1105,-4.1092,-4.1107,-4.1081,-4.1081,-4.1078,-4.1071,-4.1003,-4.098,0.0,0.0,0.0,0.0,0.0,0.0,0.0,0.0,0.0,0.0,0.0,0.0,0.0,0.0,0.0,0.0,0.0,0.0,0.0,0.0,0.0,0.0,0.0,0.0,0.0,0.0,0.0,0.0,0.0,0.0,0.0,0.0,-3.4933,-3.5133,0.0,0.0,0.0,0.0,0.0,0.0,0.0,0.0,0.0,0.0,0.0,0.0,0.0,-3.8387,-3.8395,-3.9151,-3.9536,-3.9536,-4.0344,-4.0747,-4.0747,-4.0747,-4.0734,-4.074,-4.0731,0.0,-3.8391,-3.8385,0.0,0.0,0.0,0.0,0.0,0.0,0.0,0.0,0.0,0.0,0.0,0.0,0.0,0.0,0.0,0.0,0.0,0.0,0.0,0.0,0.0,0.0,-4.0946,-4.1059,-4.1082,-4.1067,-4.0951,-4.0961,-4.0986,-4.0987,-4.099,-4.0961,0.0,0.0,0.0,0.0,0.0,0.0,-4.0976,-4.1055,-4.11,-4.11,-4.1094,-4.1078,-4.1027,-4.1003,-4.0988,-4.093,-4.0921,-4.0898,-4.0833,-4.0717,0.0,0.0,0.0,0.0,0.0,0.0,0.0,0.0,0.0,0.0,0.0,0.0,0.0,0.0,0.0,0.0,0.0,0.0,0.0,0.0,0.0,0.0,0.0,0.0,0.0,0.0,0.0,0.0,0.0,-3.4794,-3.4975,-3.5247,-3.5794,-3.6124,0.0,0.0,0.0,0.0,0.0,0.0,0.0,0.0,0.0,-3.9682,-3.9728,-3.9777,-3.9805,-4.0177,-4.038,-4.038,-4.0785,-4.0988,-4.0988,-4.0988,-4.0988,-4.0988,-4.0988,-4.0544,-3.9809,-3.9816,-3.9748,-3.9652,0.0,0.0,0.0,0.0,-3.952,-3.9566,-3.9599,-3.9868,-4.0182,-4.019,0.0,0.0,0.0,0.0,0.0,0.0,0.0,-4.0762,-4.082,-4.0887,-4.0936,-4.0986,-4.1015,-4.1031,-4.0992,-4.1016,-4.1052,-4.1006,-4.0971,-4.0917,-4.0854,-4.0845,0.0,0.0,0.0,-4.0943,-4.0939,-4.0996,-4.103,-4.0988,-4.0988,-4.098,-4.0939,-4.0939,-4.093,-4.0907,-4.0907,-4.0898,-4.0854,-4.0823,-4.0621,0.0,0.0,0.0,0.0,0.0,0.0,0.0,0.0,0.0,0.0,0.0,0.0,0.0,0.0,0.0,0.0,0.0,0.0,0.0,0.0,0.0,0.0,0.0,0.0,0.0,0.0,0.0,0.0,-3.5154,-3.5393,-3.5898,-3.6619,-3.7017,0.0,0.0,0.0,0.0,0.0,0.0,-3.9728,-3.9766,-4.008,-4.0787,-4.0823,-4.0849,-4.0907,-4.0907,-4.0907,-4.0907,-4.0907,-4.0907,-4.0907,-4.0907,-4.0907,-4.0907,-4.0907,-4.0878,-4.0888,-4.0883,-4.0863,-4.0806,-4.0745,-4.0681,-4.0621,-4.0621,-4.0661,-4.0707,-4.0784,-4.0806,-4.0804,-4.0804,-4.0781,-4.0764,-4.0713,0.0,0.0,0.0,0.0,-4.0739,-4.0794,-4.081,-4.0833,-4.0893,-4.0933,-4.0967,-4.0906,-4.0952,-4.1015,-4.0981,-4.0954,-4.089,-4.0814,-4.0844,0.0,-4.0812,-4.0878,-4.0935,-4.0893,-4.0939,-4.0967,-4.0912,-4.0907,-4.0883,-4.0888,-4.0869,-4.0864,-4.0868,-4.0868,-4.0868,-4.0868,-4.0826,-4.0804,-4.0804,0.0,0.0,0.0,0.0,0.0,0.0,0.0,0.0,0.0,0.0,0.0,0.0,0.0,0.0,0.0,0.0,0.0,0.0,0.0,0.0,0.0,0.0,0.0,0.0,0.0,0.0,0.0,0.0,0.0,-3.7395,-3.7691,0.0,0.0,0.0,0.0,-3.9335,-4.0172,-4.0674,-4.0732,-4.0734,-4.0743,-4.0807,-4.0859,-4.0903,-4.0907,-4.0907,-4.0907,-4.0907,-4.0907,-4.0907,-4.0907,-4.0907,-4.0907,-4.0907,-4.0907,-4.0859,-4.0818,-4.0869,-4.0859,-4.0801,-4.0806,-4.0752,-4.0694,-4.0694,-4.0694,-4.0707,-4.0784,-4.0797,-4.0803,-4.0803,-4.0752,-4.07,-4.07,-4.0654,0.0,0.0,-4.0745,-4.08,-4.0796,-4.0849,-4.0907,-4.0907,-4.0893,-4.0897,-4.0907,-4.0854,-4.0839,-4.0888,-4.0952,-4.0948,-4.0828,0.0,-4.0793,-4.0807,-4.0812,-4.0833,-4.0883,-4.0907,-4.0893,-4.0907,-4.0907,-4.0869,-4.0818,-4.0812,-4.0809,-4.0809,-4.0803,-4.0803,-4.0803,-4.0803,-4.0803,-4.0803,-4.0764,0.0,0.0,0.0,0.0,0.0,0.0,0.0,0.0,0.0,0.0,0.0,0.0,0.0,0.0,0.0,0.0,0.0,0.0,0.0,0.0,0.0,0.0,0.0,0.0,0.0,0.0,0.0,0.0,-3.7442,-3.8193,0.0,-3.8513,-3.9453,-4.0082,-4.0104,-4.0533,-4.0797,-4.0797,-4.0796,-4.0808,-4.0808,-4.0812,-4.1075,-4.1592,-4.1612,-4.1883,-4.2445,-4.2445,-4.2445,-4.2445,-4.2445,-4.2445,-4.2445,-4.2445,-4.2433,-4.2414,-4.2433,-4.1794,-4.0808,-4.0796,-4.0797,-4.0752,-4.0752,-4.1081,-4.1545,-4.1564,-4.1932,-4.2415,-4.2415,-4.2389,-4.2376,-4.2376,-4.2369,-4.2343,-4.2369,-4.2396,-4.2415,-4.2408,-4.2427,-4.2445,-4.2445,-4.2474,-4.251,-4.2451,-4.2485,-4.2527,-4.2457,-4.1585,-4.0854,-4.0818,-4.1299,-4.1698,-4.1646,-4.2153,-4.2537,-4.2502,-4.2516,-4.2485,-4.2445,-4.2445,-4.22,-4.1621,-4.1563,-4.1357,-4.0835,-4.0797,-4.0797,-4.0797,-4.0797,-4.0797,-4.0797,-4.0794,-4.0639,0.0,0.0,0.0,0.0,0.0,0.0,0.0,0.0,0.0,0.0,0.0,0.0,0.0,0.0,0.0,0.0,0.0,0.0,0.0,0.0,0.0,0.0,0.0,0.0,0.0,0.0,-3.8023,-3.8278,-3.9061,-3.9546,-3.9444,-4.015,-4.0607,-4.0607,-4.0713,-4.0797,-4.0797,-4.1067,-4.1203,-4.1203,-4.1487,-4.1893,-4.2434,-4.2434,-4.2725,-4.3305,-4.3305,-4.3305,-4.3305,-4.3305,-4.3305,-4.3305,-4.3305,-4.3305,-4.3305,-4.3305,-4.2647,-4.1641,-4.1641,-4.1641,-4.1641,-4.1641,-4.197,-4.2434,-4.2434,-4.2821,-4.3305,-4.3305,-4.3305,-4.3305,-4.3305,-4.3305,-4.3305,-4.3305,-4.3305,-4.3305,-4.3305,-4.3305,-4.3305,-4.3305,-4.3337,-4.3356,-4.3311,-4.3369,-4.3399,-4.3318,-4.2427,-4.1673,-4.1651,-4.2164,-4.2563,-4.2503,-4.303,-4.343,-4.3369,-4.3369,-4.335,-4.3305,-4.3305,-4.3073,-4.2492,-4.2421,-4.2054,-4.1255,-4.121,-4.1068,-4.0816,-4.0784,-4.0778,-4.0778,-4.0776,-4.0788,-4.0797,0.0,0.0,0.0,0.0,0.0,0.0,0.0,0.0,0.0,0.0,0.0,0.0,0.0,0.0,0.0,0.0,0.0,0.0,0.0,0.0,0.0,0.0,0.0,-3.8641,-3.866,-3.9078,-3.9986,-4.0317,-4.0469,-4.0496,-4.0661,-4.0784,-4.0829,-4.0829,-4.0848,-4.0874,-4.1622,-4.2048,-4.2048,-4.286,-4.3305,-4.3343,-4.3343,-4.3343,-4.3382,-4.3382,-4.3382,-4.3382,-4.3382,-4.3382,-4.3382,-4.3382,-4.3382,-4.3382,-4.3382,-4.3382,-4.3363,-4.3324,-4.3305,-4.3305,-4.3305,-4.3324,-4.3343,-4.3363,-4.3382,-4.3382,-4.3382,-4.3382,-4.3382,-4.3382,-4.3382,-4.3382,-4.3382,-4.3382,-4.3382,-4.3382,-4.3382,-4.3382,-4.3382,-4.3382,-4.3382,-4.3382,-4.3382,-4.3382,-4.3382,-4.3427,-4.3433,-4.3311,-4.3324,-4.3343,-4.3343,-4.3363,0.0,-4.3382,-4.3382,-4.3382,-4.3382,-4.3382,-4.3363,-4.3343,-4.329,-4.2897,-4.2086,-4.2015,-4.1641,-4.0868,-4.0759,-4.07,-4.07,-4.07,-4.0739,-4.0797,0.0,0.0,0.0,0.0,0.0,0.0,0.0,0.0,0.0,0.0,0.0,0.0,0.0,0.0,0.0,0.0,0.0,0.0,0.0,0.0,0.0,0.0,-3.9611,-3.9403,-3.9496,-3.9678,-3.9908,-4.001,-4.0101,-4.0194,-4.0258,-4.0639,-4.1453,-4.1526,-4.1851,-4.2563,-4.2821,-4.2937,-4.2937,-4.3189,-4.3595,-4.4246,-4.4246,-4.4543,-4.5104,-4.5104,-4.5104,-4.5104,-4.5104,-4.5104,-4.5104,-4.5104,-4.5104,-4.5104,-4.5104,-4.5104,-4.4987,-4.3769,-4.3305,-4.3305,-4.3305,-4.3711,-4.433,-4.491,-4.5104,-4.5104,-4.5104,-4.5104,-4.5104,-4.5104,-4.5104,-4.5104,-4.5104,-4.5104,-4.5104,-4.5104,-4.5104,-4.5104,-4.5104,-4.5104,-4.5104,-4.5104,-4.5104,-4.5104,-4.5104,-4.5124,-4.4756,-4.3518,-4.3827,-4.4246,-4.4246,-4.4736,-4.5104,-4.5104,-4.5104,-4.5104,-4.5104,-4.5104,-4.4871,-4.4291,-4.4239,-4.3852,-4.2995,-4.2344,-4.1899,-4.168,-4.1094,-4.0778,-4.0778,-4.0778,-4.0784,0.0,0.0,0.0,0.0,0.0,0.0,0.0,0.0,0.0,0.0,0.0,0.0,0.0,0.0,0.0,0.0,0.0,0.0,0.0,0.0,0.0,0.0,-3.9693,-3.9906,-4.0284,-4.0094,-3.9922,-3.9977,-4.0311,-4.0592,-4.0731,-4.1111,-4.1639,-4.2287,-4.2406,-4.2676,-4.3259,-4.3653,-4.3846,-4.3846,-4.4175,-4.4581,-4.5104,-4.5104,-4.5336,-4.5807,-4.5807,-4.5807,-4.5807,-4.5807,-4.58,-4.5805,-4.58,-4.5786,-4.5757,-4.5793,-4.5793,-4.5708,0.0,0.0,0.0,0.0,-4.4678,-4.5181,-4.5631,-4.5798,-4.5798,-4.5798,-4.5798,-4.5805,-4.58,-4.5807,-4.5807,-4.5807,-4.5807,-4.5807,-4.5807,-4.5807,-4.5807,-4.5807,-4.5807,-4.5807,-4.5807,-4.5807,-4.5807,-4.5807,-4.5807,0.0,-4.4523,-4.4775,-4.5104,-4.5104,-4.549,-4.5807,-4.5807,-4.5807,-4.5807,-4.5807,-4.5807,-4.5613,-4.5142,-4.5109,0.0,0.0,0.0,-4.2737,-4.2021,-4.1197,0.0,0.0,0.0,-4.0778,-4.0797,-4.0797,0.0,0.0,-4.0111,-3.966,0.0,0.0,0.0,0.0,0.0,0.0,0.0,0.0,0.0,0.0,0.0,0.0,0.0,0.0,0.0,0.0,-4.0099,-4.0449,-4.1226,-4.0677,-4.022,-4.0356,-4.1043,-4.157,-4.1676,-4.2501,-4.3077,-4.319,-4.33,-4.3424,-4.3535,-4.4283,0.0,0.0,0.0,-4.5807,-4.5807,-4.5807,-4.58,-4.58,-4.58,-4.58,-4.5793,-4.5793,-4.5798,-4.5807,-4.5805,-4.5764,-4.5723,-4.5778,-4.5805,-4.5795,-4.5805,-4.58,-4.5807,-4.58,-4.58,-4.5793,-4.5803,0.0,0.0,-4.5795,-4.5795,-4.5803,-4.5793,-4.5807,-4.5807,-4.5807,-4.5807,-4.5807,-4.5807,-4.5807,-4.5807,-4.5807,-4.5807,-4.5807,-4.5807,-4.5807,-4.5807,-4.5807,-4.5807,-4.5807,-4.5807,-4.5807,-4.5807,-4.5807,-4.5807,-4.5807,-4.5807,-4.5807,-4.5807,-4.5807,-4.5807,0.0,-4.5807,-4.5791,-4.5493,-4.4787,-4.4585,-4.3752,-4.2072,-4.1267,-4.0803,-4.0707,-4.0707,-4.0739,-4.0797,-4.0797,-4.0797,-4.0797,-4.0867,-4.0471,0.0,0.0,0.0,0.0,0.0,0.0,0.0,0.0,0.0,0.0,0.0,0.0,0.0,0.0,0.0,-4.1618,-4.1839,-4.1984,-4.2136,-4.2022,-4.1931,-4.1954,-4.2098,-4.2223,-4.2237,-4.2422,-4.287,-4.3673,-4.377,-4.4135,-4.4947,-4.5252,-4.5406,-4.5406,-4.566,-4.5807,-4.5807,-4.5807,-4.5812,-4.5795,-4.5795,0.0,-4.5712,-4.5712,-4.5746,-4.5807,-4.5795,-4.5791,-4.5786,-4.58,-4.58,-4.5793,-4.581,-4.5798,-4.58,-4.5791,-4.5795,-4.5803,-4.5805,-4.5791,-4.5795,-4.5805,-4.5793,-4.5793,-4.58,-4.5807,0.0,-4.5807,-4.5807,-4.5807,-4.5807,-4.5807,-4.5807,-4.5807,-4.5807,-4.5807,-4.5807,-4.5807,-4.5807,-4.5807,-4.5807,-4.5807,-4.5807,-4.5807,-4.5807,-4.5807,-4.5807,-4.5807,-4.5807,-4.5807,-4.5807,-4.5807,-4.5807,-4.5807,-4.5807,-4.58,-4.5742,-4.5568,-4.4942,-4.3794,-4.2073,-4.1841,-4.1442,-4.0784,-4.0784,-4.079,-4.0797,-4.0797,-4.0797,-4.0797,-4.0802,-4.0736,0.0,0.0,0.0,0.0,0.0,0.0,0.0,0.0,0.0,0.0,0.0,-4.08,0.0,0.0,-4.1657,-4.2121,-4.227,-4.2415,-4.275,-4.2794,-4.2693,-4.2427,-4.2791,-4.3021,-4.2961,-4.3464,-4.3943,-4.4288,-4.4473,-4.473,-4.5125,-4.5207,-4.5246,-4.5246,-4.5304,-4.5341,-4.5341,-4.5341,-4.5351,-4.5342,-4.5342,-4.5399,-4.5509,-4.5352,-4.5472,-4.5731,-4.5629,-4.5613,-4.5629,-4.5588,-4.5661,-4.5793,-4.5735,-4.5739,-4.58,-4.5805,-4.5798,-4.5798,-4.5798,-4.5803,-4.5788,-4.581,-4.5798,-4.5798,-4.58,-4.5807,-4.5807,-4.5807,-4.5807,-4.5807,-4.5807,-4.5807,-4.5807,-4.5807,-4.5807,-4.5807,-4.5807,-4.5807,-4.5807,-4.5807,-4.5807,-4.5807,-4.5807,-4.5807,-4.5807,-4.5807,-4.5807,-4.5807,-4.5807,-4.5807,-4.5807,-4.5807,-4.5807,-4.5807,-4.5807,-4.5807,-4.5807,-4.5807,-4.5045,-4.4207,-4.3343,-4.2454,-4.1816,-4.1409,-4.1009,-4.0797,-4.0797,-4.0797,-4.0797,-4.0797,-4.0797,-4.0797,0.0,0.0,0.0,0.0,0.0,0.0,0.0,0.0,-4.1824,-4.1927,-4.1919,-4.1983,-4.2335,-4.2302,-4.232,-4.2598,-4.2649,-4.2836,-4.3383,-4.3463,-4.3299,-4.2855,-4.3427,-4.3806,-4.3711,-4.4516,-4.4948,-4.4688,-4.4903,-4.4988,-4.4827,-4.4851,-4.4855,-4.4855,-4.489,-4.4901,-4.4901,-4.4901,-4.4901,-4.4909,-4.4931,-4.5061,-4.5236,-4.5061,-4.5216,-4.5616,-4.5454,-4.5428,-4.5457,-4.5362,-4.5473,-4.5708,-4.5601,-4.5635,-4.5723,-4.5778,-4.5793,-4.5778,-4.5803,-4.5788,-4.5781,-4.5795,-4.5795,-4.5803,-4.5793,-4.5807,-4.5807,-4.5807,-4.5807,-4.5807,-4.5807,-4.5807,-4.58,-4.5778,-4.5752,-4.5745,-4.5723,-4.5715,-4.5715,-4.5715,-4.5715,-4.5715,-4.5715,-4.5715,-4.573,-4.58,-4.5807,-4.5807,-4.5807,-4.5807,-4.5807,-4.5807,-4.5807,-4.5807,-4.5807,-4.5807,-4.5807,-4.5807,-4.5181,-4.4755,-4.4613,-4.3247,-4.2357,-4.2009,-4.1351,-4.0971,-4.0797,-4.0797,-4.0797,-4.0797,-4.0797,-4.0797,-3.896,-3.9003,-3.9505,-4.1191,-4.1158,-4.1004,0.0,0.0,-4.2153,-4.2153,-4.2159,-4.236,-4.2978,-4.3082,-4.3313,-4.4115,-4.4247,-4.4271,-4.4346,-4.435,-4.4327,-4.4261,-4.4349,-4.4392,-4.4397,-4.4495,-4.4565,-4.4524,-4.4565,-4.4578,-4.4546,-4.4662,-4.4726,-4.4726,-4.4839,-4.4901,-4.4901,-4.4901,-4.4897,-4.4908,-4.5011,-4.5055,-4.5052,-4.5186,-4.53,-4.5352,-4.5381,-4.5391,-4.541,-4.5381,-4.54,-4.5438,-4.5429,-4.5438,-4.5465,-4.5708,-4.5754,-4.5731,-4.5778,-4.5757,-4.5723,-4.5778,-4.58,-4.58,-4.5807,-4.5807,-4.5807,-4.5807,-4.5807,-4.5807,-4.5807,-4.5807,-4.5778,-4.5653,-4.5621,-4.5588,-4.5465,-4.5438,-4.5438,-4.5438,-4.5438,-4.5438,-4.5438,-4.5438,-4.5528,-4.5752,-4.5807,-4.5807,-4.5807,-4.5807,-4.5807,-4.5807,-4.5807,-4.5807,-4.5807,-4.5807,-4.5807,-4.5807,-4.5729,-4.5355,-4.4632,-4.44,-4.3576,-4.2028,-4.1912,-4.1506,-4.0797,-4.0797,-4.0797,-4.0797,-4.0797,-4.0797,-3.9914,-4.0373,0.0,0.0,-4.204,-4.2205,-4.2645,-4.3101,-4.345,-4.3517,-4.3477,-4.3535,-4.3881,-4.3901,-4.3957,0.0,-4.4387,-4.4325,-4.4237,-4.4203,-4.4203,-4.4203,-4.4203,-4.4248,-4.4373,-4.4458,-4.4411,-4.4218,-4.431,-4.4325,-4.4222,-4.4254,-4.4294,-4.4294,-4.4341,-4.4378,-4.4378,-4.4378,-4.4425,-4.4549,-4.4602,-4.4675,-4.4782,-4.472,-4.4808,-4.4962,-4.5063,-4.518,-4.5282,-4.5068,-4.503,-4.5101,-4.5022,-4.5044,-4.5133,-4.5371,-4.5419,-4.5409,-4.5436,-4.5454,-4.5481,-4.5554,-4.5552,-4.5524,-4.5571,-4.5435,-4.5294,-4.5408,-4.5361,-4.5276,-4.5276,-4.5276,-4.5266,-4.5217,-4.5177,-4.5176,-4.5114,-4.5112,-4.5112,-4.5112,-4.5112,-4.5112,-4.5112,-4.5112,-4.5145,-4.5256,-4.5505,-4.5685,-4.5685,-4.5745,-4.5807,-4.5807,-4.5807,-4.5807,-4.5807,-4.5807,-4.5807,-4.5807,-4.5807,-4.5652,-4.5316,-4.4852,-4.4265,-4.3537,-4.2512,-4.1835,-4.1506,-4.1029,-4.0797,-4.0797,-4.0797,-4.0797,-4.1015,0.0,0.0,-4.2481,-4.2847,-4.3128,-4.3367,-4.3909,-4.4373,-4.443,-4.4373,-4.4314,-4.4354,-4.4281,-4.4226,-4.4226,-4.4226,-4.4162,-4.402,-4.4005,-4.4005,-4.4005,-4.4005,-4.4051,-4.4192,-4.431,-4.4248,-4.402,-4.4147,-4.4162,-4.4005,-4.4005,-4.4005,-4.4005,-4.4005,-4.4005,-4.4005,-4.4005,-4.4067,-4.4226,-4.427,-4.4364,-4.4503,-4.4393,-4.4463,-4.4649,-4.4752,-4.4875,-4.4981,-4.4739,-4.4707,-4.4775,-4.4682,-4.4701,-4.4799,-4.4915,-4.5019,-4.5118,-4.5129,-4.5163,-4.5195,-4.5254,-4.5235,-4.5197,-4.5254,-4.5082,-4.4924,-4.5069,-4.5017,-4.4901,-4.4901,-4.4901,-4.489,-4.4862,-4.4851,-4.4827,-4.4799,-4.4787,-4.4787,-4.4787,-4.4787,-4.4787,-4.4787,-4.4787,-4.4787,-4.4787,-4.5123,-4.5381,-4.5399,-4.5558,-4.5665,-4.5665,-4.573,-4.5771,-4.5771,-4.5771,-4.5778,-4.5805,-4.5812,-4.5793,-4.5807,-4.5239,-4.4833,-4.4594,-4.3363,-4.2473,-4.2009,-4.1409,-4.1029,-4.0797,-4.0797,-4.0797,-4.2224,0.0,-4.2193,-4.3814,-4.3709,-4.3412,-4.4257,-4.4482,-4.4458,-4.4329,-4.43,-4.4237,-4.4051,-4.402,-4.4005,-4.4005,-4.4005,-4.4005,-4.4005,-4.4005,-4.4005,-4.4005,-4.4005,-4.4005,0.0,-4.402,-4.402,-4.4005,-4.4005,-4.4005,-4.4005,-4.4005,-4.4005,-4.4005,-4.4005,-4.4005,-4.4005,-4.4005,-4.4005,-4.402,-4.4226,-4.43,-4.4314,-4.4444,-4.4501,-4.4515,-4.4515,-4.4528,-4.451,-4.4515,-4.4515,-4.451,-4.4515,-4.4515,-4.4496,-4.4368,-4.4576,-4.4908,-4.4909,-4.4916,-4.4919,-4.492,-4.4912,-4.4912,-4.4912,-4.4912,-4.4901,-4.4912,-4.4912,-4.4901,-4.4901,-4.4901,-4.4874,-4.4751,-4.4701,-4.4669,-4.4532,-4.451,-4.451,-4.451,-4.451,-4.451,-4.451,-4.451,-4.451,-4.451,-4.4623,-4.4769,-4.4901,-4.5147,-4.5323,-4.5323,-4.5552,-4.5708,-4.5708,-4.5708,-4.5723,-4.5807,-4.5807,-4.5803,-4.5807,-4.5787,-4.5394,-4.4613,-4.4555,-4.3692,-4.2009,-4.197,-4.1564,-4.0797,-4.0797,-4.0797,-4.272,0.0,-4.3424,-4.414,-4.4013,-4.3819,-4.4099,-4.4158,-4.4158,-4.4097,-4.4097,-4.4067,-4.402,-4.4005,-4.4005,-4.4005,-4.4005,-4.4005,-4.4005,-4.4005,-4.4005,-4.4005,-4.4005,0.0,0.0,0.0,0.0,-4.4005,-4.4005,-4.4005,-4.4005,-4.4005,-4.4005,-4.4005,-4.4005,-4.4005,-4.4005,-4.4005,-4.4067,-4.4192,-4.427,-4.43,-4.43,-4.4222,-4.4252,-4.4373,-4.4373,-4.4373,-4.4373,-4.4373,-4.4281,-4.4158,-4.4158,-4.4158,-4.4158,-4.4113,-4.4185,-4.4322,-4.4462,-4.4525,-4.4572,-4.4623,-4.4599,-4.458,-4.4617,-4.4484,-4.4327,-4.4457,-4.4402,-4.4313,-4.4313,-4.4313,-4.4285,-4.425,-4.4254,-4.4225,-4.4188,-4.4158,-4.4158,-4.4158,-4.4158,-4.4158,-4.4158,-4.4158,-4.4158,-4.4158,-4.4476,-4.4745,-4.4878,-4.4979,-4.5023,-4.5023,-4.5116,-4.5236,-4.5417,-4.5426,-4.5526,-4.5715,-4.5723,-4.5731,-4.5727,-4.5727,-4.5518,-4.5066,-4.4673,-4.411,-4.3396,-4.2983,-4.2369,-4.1603,-4.1603,-4.1313,-4.3208,-4.3658,-4.4036,-4.4162,-4.4101,-4.4005,-4.4005,-4.4005,-4.4005,-4.4005,-4.4005,-4.3989,-4.3958,-4.3989,-4.3989,-4.3958,-4.3989,-4.4005,-4.4005,-4.4005,-4.4005,-4.4005,-4.4005,-4.4005,0.0,0.0,0.0,-4.4005,-4.4005,-4.4005,-4.4005,-4.4005,-4.4005,-4.4005,-4.4005,-4.4005,-4.4005,-4.4005,-4.4067,-4.4192,-4.4192,-4.4192,-4.4192,-4.4051,-4.4067,-4.4192,-4.4192,-4.4192,-4.4192,-4.4192,-4.4131,-4.4005,-4.4005,-4.4005,-4.4005,-4.4005,-4.4005,-4.402,-4.4147,-4.4214,-4.4265,-4.4306,-4.4288,-4.4265,-4.4306,-4.4173,-4.402,-4.4162,-4.4097,-4.4005,-4.4005,-4.4005,-4.4005,-4.4005,-4.4005,-4.4005,-4.4005,-4.4005,-4.4005,-4.4005,-4.4005,-4.4005,-4.4005,-4.4005,-4.4005,-4.4005,-4.425,-4.4479,-4.4568,-4.4669,-4.4731,-4.4731,-4.4804,-4.492,-4.5123,-4.5114,-4.5206,-4.5399,-4.5491,-4.5554,-4.5552,-4.5657,-4.556,-4.5314,-4.5013,-4.4606,-4.4104,-4.3782,-4.3217,-4.2414,-4.2105,-4.1699,-4.3709,-4.3942,-4.4005,-4.4005,-4.4005,-4.4005,-4.4005,-4.4005,-4.4005,-4.4005,-4.4005,-4.3974,0.0,0.0,-4.3974,-4.3913,-4.3961,-4.4005,-4.4005,-4.4005,-4.4005,0.0,0.0,0.0,0.0,0.0,0.0,-4.4005,0.0,-4.4005,-4.4005,-4.4005,-4.4005,-4.4005,-4.4005,-4.4005,-4.4005,-4.4005,-4.4005,-4.4005,-4.4005,-4.4005,-4.4005,-4.4005,-4.4005,-4.4005,-4.4005,-4.4005,-4.4005,-4.4005,-4.4005,-4.4005,-4.4005,-4.4005,-4.4005,-4.4005,-4.4005,-4.4005,-4.4005,-4.4005,-4.4005,-4.4005,-4.4005,-4.4005,-4.4005,-4.4005,-4.4005,-4.4005,-4.4005,-4.4005,-4.4005,-4.4005,-4.4005,-4.4005,-4.4005,-4.4005,-4.4005,-4.4005,-4.4005,-4.4005,-4.4005,-4.4005,-4.4005,-4.4005,-4.4005,-4.4005,-4.4005,-4.4005,-4.4005,-4.4221,-4.4388,-4.4388,-4.4599,-4.4763,-4.4776,-4.4776,-4.48,-4.4884,-4.5129,-4.5274,-4.5295,-4.5526,-4.5535,-4.5304,-4.5543,-4.5178,-4.4164,-4.4369,-4.4045,-4.3242,-4.2413,-4.2008,-4.3902,-4.3989,-4.4005,-4.4005,-4.4005,-4.4005,-4.4005,-4.4005,-4.4005,-4.4005,-4.3958,-4.3913,0.0,0.0,0.0,-4.3897,-4.3961,0.0,-4.4005,-4.4005,0.0,-4.4005,0.0,-4.4005,-4.4005,-4.4005,0.0,0.0,-4.4005,-4.4005,-4.4005,-4.4005,-4.4005,-4.4005,-4.4005,-4.4005,-4.4005,-4.4005,-4.4005,-4.4005,-4.4005,-4.4005,-4.4005,-4.4005,-4.4005,-4.4005,-4.4005,-4.4005,-4.4005,-4.4005,-4.4005,-4.4005,-4.4005,-4.4005,-4.4005,-4.4005,-4.4005,-4.4005,-4.4005,-4.4005,-4.4005,-4.4005,-4.4005,-4.4005,-4.4005,-4.4005,-4.4005,-4.4005,-4.4005,-4.4005,-4.4005,-4.4005,-4.4005,-4.4005,-4.4005,-4.4005,-4.4005,-4.4005,-4.4005,-4.4005,-4.4005,-4.4005,-4.4005,-4.4005,-4.4005,-4.4005,-4.4005,-4.4005,-4.4005,-4.4064,-4.4091,-4.4091,-4.4166,-4.4294,-4.4479,-4.4493,-4.4599,-4.48,-4.4884,-4.503,-4.5213,-4.5099,-4.5088,-4.5223,-4.5284,-4.5227,-4.4997,-4.5259,-4.4935,-4.4091,-4.3879,-4.3435,-4.3989,-4.4005,-4.4005,-4.4005,-4.4005,-4.4005,-4.4005,-4.3974,-4.3961,-4.3961,-4.3897,0.0,-4.3783,-4.3832,0.0,0.0,0.0,0.0,-4.4005,-4.4005,-4.4005,0.0,-4.4005,0.0,-4.4005,-4.4005,-4.4005,0.0,-4.4005,-4.4005,-4.4005,-4.4005,-4.4005,-4.4005,-4.4005,-4.4005,-4.4005,-4.4005,-4.4005,-4.4005,-4.4005,-4.4005,-4.4005,-4.4005,-4.4005,-4.4005,-4.4005,-4.4005,-4.4005,-4.4005,-4.4005,-4.4005,-4.4005,-4.4005,-4.4005,-4.4005,-4.4005,-4.4005,-4.4005,-4.4005,-4.4005,-4.4005,-4.4005,-4.4005,-4.4005,-4.4005,-4.4005,-4.4005,-4.4005,-4.4005,-4.4005,-4.4005,-4.4005,-4.4005,-4.4005,-4.4005,-4.4005,-4.4005,-4.4005,-4.4005,-4.4005,-4.4005,-4.4005,-4.4005,-4.4005,-4.4005,-4.4005,-4.4005,-4.4005,-4.4005,-4.4005,-4.4005,-4.4005,-4.4064,-4.4206,-4.4221,-4.4294,-4.4443,-4.4559,-4.4688,-4.4849,-4.4812,-4.4812,-4.4849,-4.4954,-4.4996,-4.4908,-4.5283,-4.516,-4.4576,-4.4423,-4.4053,-4.4005,-4.4005,-4.4005,-4.4005,-4.4005,-4.4005,-4.3989,-4.3945,-4.3915,-4.3899,0.0,-4.3736,-4.3615,-4.3751,-4.3851,-4.3804,0.0,-4.3989,-4.4005,-4.4005,-4.4005,-4.4005,-4.4005,-4.4005,-4.4005,-4.4005,-4.4005,-4.4005,-4.4005,-4.4005,-4.4005,-4.4005,-4.4005,-4.4005,-4.4005,-4.4005,-4.4005,-4.4005,-4.4005,-4.4005,-4.4005,-4.4005,-4.4005,-4.4005,-4.4005,-4.4005,-4.4005,-4.4005,-4.4005,-4.4005,-4.4005,-4.4005,-4.4005,-4.4005,-4.4005,-4.4005,-4.4005,-4.4005,-4.4005,-4.4005,-4.4005,-4.4005,-4.4005,-4.4005,-4.4005,-4.4005,-4.4005,-4.4005,-4.4005,-4.4005,-4.4005,-4.4005,-4.4005,-4.4005,-4.4005,-4.4005,-4.4005,-4.4005,-4.4005,-4.4005,-4.4005,-4.4005,-4.4005,-4.4005,-4.4005,-4.4005,-4.4005,-4.4005,-4.4005,-4.4005,-4.4005,-4.4005,-4.4005,-4.4005,-4.4005,-4.4005,-4.4005,-4.4005,-4.4221,-4.4374,-4.4402,-4.4585,-4.4612,-4.4452,-4.465,-4.465,-4.4452,-4.4919,-4.503,-4.4781,-4.4498,-4.4241,-4.4005,-4.4005,-4.4005,-4.4005,-4.4005,-4.3989,-4.3929,-4.3897,0.0,0.0,-4.3736,-4.3634,-4.3599,-4.3632,-4.3684,-4.3788,0.0,0.0,0.0,0.0,-4.4005,0.0,0.0,0.0,0.0,-4.4005,0.0,0.0,-4.4005,-4.4005,-4.4005,-4.4005,-4.4005,-4.4005,-4.4005,-4.4005,-4.4005,-4.4005,-4.4005,-4.4005,-4.4005,-4.4005,-4.4005,-4.4005,-4.4005,-4.4005,-4.4005,-4.4005,-4.4005,-4.4005,-4.4005,-4.4005,-4.4005,-4.4005,-4.4005,-4.4005,-4.4005,-4.4005,-4.4005,-4.4005,-4.4005,-4.4005,-4.4005,-4.4005,-4.4005,-4.4005,-4.4005,-4.4005,-4.4005,-4.4005,-4.4005,-4.4005,-4.4005,-4.4005,-4.4005,-4.4005,-4.4005,-4.4005,-4.4005,-4.4005,-4.4005,-4.4005,-4.4005,-4.4005,-4.4005,-4.4005,-4.4005,-4.4005,-4.4005,-4.4005,-4.4005,-4.4005,-4.4005,-4.4005,-4.4005,-4.4005,-4.4005,-4.4005,-4.4033,-4.4181,-4.4402,-4.4236,-4.4336,-4.4714,-4.4559,-4.4559,-4.4726,-4.4812,-4.4856,-4.48,-4.4732,-4.4687,-4.4005,-4.4005,-4.4005,-4.4005,-4.4005,-4.3974,-4.3913,0.0,0.0,0.0,-4.3617,-4.3566,-4.3566,0.0,0.0,0.0,0.0,0.0,0.0,0.0,0.0,0.0,0.0,0.0,0.0,-4.4005,-4.4005,-4.4005,-4.4005,-4.4005,-4.4005,-4.4005,-4.4005,-4.4005,-4.4005,-4.4005,-4.4005,-4.4005,-4.4005,-4.4005,-4.4005,-4.4005,-4.4005,-4.4005,-4.4005,-4.4005,-4.4005,-4.4005,-4.4005,-4.4005,-4.4005,-4.4005,-4.4005,-4.4005,-4.4005,-4.4005,-4.4005,-4.4005,-4.4005,-4.4005,-4.4005,-4.4005,-4.4005,-4.4005,-4.4005,-4.4005,-4.4005,-4.4005,-4.4005,-4.4005,-4.4005,-4.4005,-4.4005,-4.4005,-4.4005,-4.4005,-4.4005,-4.4005,-4.3989,-4.3942,-4.3961,-4.3961,-4.3961,-4.3913,-4.3897,-4.3945,-4.3913,-4.3899,-4.3899,-4.3899,-4.3929,-4.3989,-4.4005,-4.4005,-4.4005,-4.4005,-4.4005,-4.4005,-4.4005,-4.4064,-4.4196,-4.4064,-4.4121,-4.4374,-4.4265,-4.425,-4.4374,-4.4519,-4.4506,-4.4388,-4.4663,-4.4726,-4.3949,-4.3989,-4.3974,-4.3974,-4.3974,-4.3942,-4.3865,-4.3783,0.0,0.0,-4.3549,-4.3515,-4.3515,0.0,-4.3582,0.0,-4.3734,0.0,0.0,0.0,0.0,0.0,0.0,0.0,0.0,-4.3989,0.0,-4.4005,-4.4005,-4.4005,-4.4005,-4.4005,-4.4005,-4.4005,-4.4005,-4.4005,-4.4005,-4.4005,-4.4005,-4.4005,-4.4005,-4.4005,-4.4005,-4.4005,-4.4005,-4.4005,-4.4005,-4.4005,-4.4005,-4.4005,-4.4005,-4.4005,-4.4005,-4.4005,-4.4005,-4.4005,-4.4005,-4.4005,-4.4005,-4.4005,-4.4005,-4.4005,-4.4005,-4.4005,-4.4005,-4.4005,-4.4005,-4.4005,-4.4005,-4.4005,-4.4005,-4.4005,-4.4005,-4.3974,-4.3958,-4.3961,-4.3961,-4.3961,-4.3945,-4.3899,-4.3883,-4.3883,-4.3883,-4.3818,-4.382,-4.3867,-4.3818,-4.3804,-4.3804,-4.3804,-4.3835,-4.3945,-4.3961,-4.3958,-4.3974,-4.3974,-4.3989,-4.4005,-4.4005,-4.4005,-4.4005,-4.4005,-4.4005,-4.4005,-4.4005,-4.4005,-4.4005,-4.4206,-4.4206,-4.402,-4.443,-4.4525,-4.3785,-4.3961,-4.3913,-4.3913,-4.3913,-4.3865,-4.3666,0.0,0.0,-4.3513,-4.3496,-4.3515,-4.3515,-4.3515,-4.3513,-4.3582,0.0,-4.3682,0.0,0.0,0.0,0.0,0.0,0.0,0.0,-4.3926,-4.3945,-4.4005,-4.4005,-4.4005,-4.4005,-4.4005,-4.4005,-4.4005,-4.4005,-4.4005,-4.4005,-4.4005,-4.4005,-4.4005,-4.4005,-4.4005,-4.4005,-4.4005,-4.4005,-4.4005,-4.4005,-4.4005,-4.4005,-4.4005,-4.4005,-4.4005,-4.4005,-4.4005,-4.4005,-4.4005,-4.4005,-4.4005,-4.4005,-4.4005,-4.4005,-4.4005,-4.4005,-4.4005,-4.4005,-4.4005,-4.4005,-4.4005,-4.4005,-4.4005,-4.4005,-4.4005,-4.3989,-4.3929,-4.3867,-4.382,-4.382,-4.382,-4.382,-4.3804,-4.3804,-4.3804,-4.3804,-4.3804,-4.3804,-4.3804,-4.3804,-4.3804,-4.3804,-4.3804,-4.3804,-4.382,-4.382,-4.3835,-4.3897,-4.3913,-4.3945,-4.4005,-4.4005,-4.4005,-4.4005,-4.4005,-4.4005,-4.4005,-4.4005,-4.4005,-4.4005,-4.4017,-4.4017,-4.4005,-4.4048,-4.4064,-4.3791,-4.3867,-4.3835,-4.3835,-4.3835,-4.3802,-4.3651,0.0,-4.3582,-4.3496,-4.3515,-4.3515,-4.3515,-4.3515,-4.3515,-4.3549,0.0,0.0,0.0,0.0,0.0,0.0,0.0,0.0,0.0,0.0,-4.3867,-4.3945,-4.3945,-4.3961,-4.4005,-4.4005,-4.4005,-4.4005,-4.4005,-4.4005,-4.4005,-4.4005,-4.4005,-4.4005,-4.4005,-4.4005,-4.4005,-4.4005,-4.4005,-4.4005,-4.4005,-4.4005,-4.4005,-4.4005,-4.4005,-4.4005,-4.4005,-4.4005,-4.3989,-4.3812,-4.386,-4.3989,-4.3812,-4.3763,-4.3728,-4.3575,-4.3404,-4.3371,-4.3841,-4.4005,-4.4005,-4.4005,-4.3958,-4.3945,-4.3945,-4.3913,-4.3883,-4.3853,-4.382,-4.3804,-4.3804,-4.3804,-4.3788,-4.3703,-4.3667,-4.3667,-4.3667,-4.3652,-4.3617,-4.3667,-4.3652,-4.3617,-4.3617,-4.3617,-4.3617,-4.3617,-4.3738,-4.3804,-4.3853,-4.3835,-4.3851,-4.3883,-4.3883,-4.3915,-4.3945,-4.3897,-4.3913,-4.4005,-4.3958,-4.3958,-4.4005,-4.4005,-4.4005,-4.4005,-4.4005,-4.4005,-4.3658,-4.3771,-4.3736,-4.3736,-4.3736,-4.3719,0.0,0.0,-4.3548,-4.3515,-4.3515,-4.3515,-4.3515,-4.3515,-4.3515,-4.3515,0.0,-4.3565,-4.3599,0.0,0.0,0.0,0.0,-4.382,0.0,-4.3837,-4.3802,-4.3816,-4.3851,-4.3899,-4.3945,-4.3945,-4.3958,-4.4005,-4.4005,-4.4005,-4.4005,-4.4005,-4.4005,-4.4005,-4.4005,-4.4005,-4.4005,-4.4005,-4.3958,-4.3876,-4.3876,-4.3828,-4.3747,-4.3679,-4.3644,-4.3644,-4.3575,-4.3559,-4.3525,-4.3336,-4.3388,-4.3525,-4.3336,-4.3266,-4.3248,-4.3051,-4.2867,-4.281,-4.337,-4.3644,-4.371,-4.3575,-4.3526,-4.3494,-4.3494,-4.3529,-4.3513,-4.3391,-4.3444,-4.3497,-4.3375,-4.3321,-4.3303,-4.3214,-4.3303,-4.3391,-4.3391,-4.3444,-4.3532,-4.3565,-4.3513,-4.3515,-4.3515,-4.3515,-4.3515,-4.3515,-4.3635,-4.3719,-4.3736,-4.3736,-4.3753,-4.3788,-4.3804,-4.382,-4.3867,-4.3837,-4.3835,-4.3945,-4.3881,-4.3881,-4.3945,-4.3945,-4.3945,-4.3945,-4.3945,-4.3942,-4.3328,-4.3684,-4.3599,-4.3599,-4.3599,-4.3582,0.0,-4.3515,-4.3515,-4.3515,-4.3515,-4.3515,-4.3515,-4.3515,-4.3515,-4.3515,-4.3515,0.0,-4.3582,0.0,0.0,0.0,0.0,-4.3804,-4.3804,-4.3804,-4.3754,-4.3599,-4.3719,-4.3804,-4.3804,-4.3804,-4.3867,-4.4005,-4.4005,-4.4005,-4.4005,-4.4005,-4.4005,-4.4005,-4.4005,-4.4005,-4.4005,-4.4005,-4.386,-4.3595,-4.3595,-4.3461,-4.3178,-4.2922,-4.281,-4.2792,-4.2581,-4.2523,-4.2523,-4.2503,-4.2503,-4.2523,-4.2503,-4.2503,-4.2503,-4.2503,-4.2503,-4.2503,-4.2503,-4.2792,-4.3032,-4.2639,-4.2523,-4.2503,-4.2503,-4.2753,-4.2903,-4.2426,-4.2617,-4.2769,-4.2318,-4.2218,-4.2218,-4.2198,-4.2595,-4.2901,-4.2901,-4.325,-4.3515,-4.3515,-4.3515,-4.3515,-4.3515,-4.3515,-4.3515,-4.3515,-4.3515,-4.3513,-4.3599,-4.3599,-4.3667,-4.3788,-4.3804,-4.3804,-4.3804,-4.3804,-4.3804,-4.3804,-4.3804,-4.3804,-4.3804,-4.3804,-4.3804,-4.3804,-4.3804,-4.3853,-4.3272,-4.3566,-4.3513,-4.3513,-4.3513,-4.3532,-4.3496,-4.3515,-4.3515,-4.3515,-4.3515,-4.3515,-4.3515,-4.3515,-4.3515,-4.3515,-4.3515,0.0,0.0,0.0,0.0,0.0,-4.3667,-4.3651,0.0,0.0,-4.36,-4.3599,-4.3651,-4.3684,-4.3788,-4.3804,-4.382,-4.3867,-4.3867,-4.3867,-4.3867,-4.3867,-4.3867,-4.3867,-4.3867,-4.3716,-4.3387,-4.3387,-4.3195,-4.2847,-4.2847,-4.2791,-4.2714,-4.2638,-4.2581,-4.2581,-4.2523,-4.2503,-4.2464,-4.2223,-4.2304,-4.2464,-4.2241,-4.216,-4.2139,-4.1994,-4.1799,-4.1583,-4.1445,-4.1997,-4.264,-4.2426,-4.2366,-4.2364,-4.2302,-4.2362,-4.242,-4.2262,-4.232,-4.2378,-4.2218,-4.2198,-4.2198,-4.2198,-4.2318,-4.2418,-4.2418,-4.2537,-4.2598,-4.2598,-4.2598,-4.2598,-4.2598,-4.2883,-4.3105,-4.3105,-4.3339,-4.3515,-4.3513,-4.3513,-4.3549,-4.3583,-4.3583,-4.3617,-4.3667,-4.3617,-4.3669,-4.3788,-4.3719,-4.3719,-4.3804,-4.3804,-4.3804,-4.3804,-4.3804,-4.382,0.0,-4.3105,-4.305,-4.3214,-4.3268,0.0,0.0,-4.3515,-4.3515,-4.3515,-4.3515,-4.3515,-4.3515,-4.3515,-4.3515,-4.3515,-4.3515,-4.3515,0.0,0.0,0.0,-4.3548,0.0,0.0,0.0,-4.3515,-4.3444,-4.3339,-4.3339,-4.3303,-4.3196,-4.3214,-4.3214,-4.3214,-4.3426,-4.3548,-4.3548,-4.3391,-4.3303,-4.3303,-4.3303,-4.316,-4.2885,-4.2885,-4.2678,-4.2304,-4.2304,-4.2262,0.0,-4.2056,-4.1997,-4.1997,-4.1931,-4.1888,-4.1867,-4.1648,-4.1713,-4.1867,-4.1648,-4.1561,-4.1556,-4.144,-4.1255,-4.1065,-4.0942,-4.1373,-4.1909,-4.1976,-4.1892,-4.176,-4.1731,-4.1821,-4.1885,-4.1753,-4.1839,-4.1885,-4.1753,-4.1709,-4.1709,-4.1709,-4.1821,-4.1927,-4.1927,-4.2074,-4.2198,-4.2198,-4.2198,-4.2198,-4.2198,-4.2458,-4.2634,-4.2634,-4.2864,-4.3014,-4.3014,-4.3303,-4.3515,-4.3515,-4.3515,-4.3513,-4.3548,-4.3513,-4.3566,-4.3686,-4.36,-4.36,-4.3686,-4.3686,-4.3686,-4.3686,-4.3719,-4.3719,0.0,-4.2344,0.0,0.0,0.0,0.0,-4.3357,-4.3444,0.0,-4.3497,-4.3497,-4.3497,-4.3479,-4.3497,-4.3497,-4.3497,-4.3497,-4.3515,0.0,-4.3515,0.0,0.0,-4.3463,0.0,-4.341,-4.341,-4.325,-4.2882,-4.2844,-4.2653,-4.2218,-4.2198,-4.2198,-4.2198,-4.2716,-4.3014,-4.3032,-4.2678,-4.2464,-4.2464,-4.2464,-4.2464,-4.2424,-4.2424,-4.2244,-4.1927,-4.1927,-4.1792,-4.1538,-4.1277,-4.1186,-4.1163,-4.0965,-4.0912,-4.0912,-4.0912,-4.0912,-4.0912,-4.0912,-4.0912,-4.0912,-4.0912,-4.0912,-4.0912,-4.0912,-4.0912,-4.0989,-4.1356,-4.1186,-4.0912,-4.0912,-4.1186,-4.1356,-4.0989,-4.1186,-4.1356,-4.0989,-4.0912,-4.0912,-4.0912,-4.1209,-4.1468,-4.1468,-4.1821,-4.2113,-4.2113,-4.2113,-4.2113,-4.2113,-4.2136,-4.2136,-4.2136,-4.2177,-4.2198,-4.2198,-4.2958,-4.3444,-4.341,-4.3427,-4.3463,-4.3463,-4.3463,-4.3463,-4.3463,-4.3463,-4.3462,-4.3515,-4.3462,-4.3462,-4.3515,-4.3496,-4.3531,-4.0176,0.0,-4.2098,-4.23,-4.2358,-4.2458,0.0,-4.2976,-4.3123,-4.3376,0.0,-4.348,-4.3429,-4.3481,-4.348,-4.3429,-4.3463,-4.3515,-4.3515,0.0,0.0,-4.3087,-4.3032,-4.2902,-4.2539,-4.25,-4.2478,-4.2378,-4.2358,-4.2318,-4.2216,-4.2198,-4.2198,-4.2198,-4.1994,-4.2038,-4.2402,-4.232,-4.2279,-4.2279,-4.2279,-4.2077,-4.1739,-4.1739,-4.1516,-4.1163,-4.1163,-4.1111,-4.1059,-4.0989,-4.0965,-4.0965,-4.0935,-4.0912,-4.0912,-4.0912,-4.0912,-4.0912,-4.0912,-4.0912,-4.0912,-4.0912,-4.0912,-4.0912,-4.0912,-4.0912,-4.0918,-4.1018,-4.0965,-4.0912,-4.0912,-4.0965,-4.1035,-4.0918,-4.0965,-4.1035,-4.0918,-4.0912,-4.0912,-4.0912,-4.0989,-4.1041,-4.1041,-4.1117,-4.1226,-4.1226,-4.1226,-4.1226,-4.1226,-4.1468,-4.167,-4.167,-4.199,-4.2198,-4.2198,-4.2731,-4.2883,-4.2537,-4.2845,-4.3032,-4.3032,-4.3032,-4.3032,-4.3032,-4.3032,-4.3178,-4.3515,-4.3178,-4.3214,-4.3479,-4.2846,-4.2732,-3.9105,-4.0304,-4.137,-4.1635,-4.1696,-4.1867,-4.248,0.0,0.0,0.0,0.0,-4.3375,-4.3394,-4.3429,-4.3464,-4.3446,-4.348,0.0,0.0,0.0,-4.3069,-4.2634,-4.2595,-4.2478,0.0,-4.2198,-4.2115,-4.1906,-4.1885,-4.1799,-4.16,-4.16,-4.16,-4.16,-4.1351,-4.1423,-4.1864,-4.1687,-4.16,-4.16,-4.16,-4.1485,-4.1214,-4.1214,-4.1111,-4.0912,-4.0912,-4.0912,-4.0912,-4.0912,-4.0912,-4.0912,-4.0912,-4.0912,-4.0912,-4.0912,-4.0912,-4.0912,-4.0912,-4.0912,-4.0912,-4.0912,-4.0912,-4.0912,-4.0912,-4.0912,-4.0912,-4.0912,-4.0912,-4.0912,-4.0912,-4.0912,-4.0912,-4.0912,-4.0912,-4.0912,-4.0912,-4.0912,-4.0912,-4.0912,-4.0912,-4.0912,-4.0912,-4.0912,-4.0912,-4.0912,-4.0912,-4.0912,-4.0912,-4.1088,-4.1214,-4.1214,-4.1463,-4.16,-4.16,-4.2008,-4.2239,-4.2198,-4.2438,-4.2595,-4.2595,-4.2595,-4.2595,-4.2595,-4.2595,-4.2692,-4.2902,-4.2674,-4.2807,-4.3214,-4.2518,-4.2557,-3.8447,-3.9565,-4.0628,-4.0932,-4.1001,-4.1236,-4.2083,0.0,0.0,0.0,0.0,0.0,0.0,-4.3394,0.0,0.0,0.0,0.0,-4.2975,-4.2901,-4.2692,-4.2157,-4.2095,0.0,-4.2008,-4.199,-4.1839,-4.1445,-4.1401,-4.126,-4.0935,-4.0912,-4.0912,-4.0912,-4.0912,-4.1065,-4.1401,-4.1065,-4.0912,-4.0912,-4.0912,-4.0912,-4.0912,-4.0912,-4.0912,-4.0912,-4.0912,-4.0912,-4.0912,-4.0912,-4.0912,-4.0912,-4.0912,-4.0912,-4.0912,-4.0912,-4.0912,-4.0912,-4.0912,-4.0912,-4.0912,-4.0912,-4.0888,-4.0864,-4.0864,-4.0864,-4.084,-4.084,-4.0847,-4.0847,-4.0847,-4.0847,-4.0864,-4.0864,-4.0888,-4.0912,-4.0912,-4.0912,-4.0912,-4.0912,-4.0912,-4.0912,-4.0912,-4.0912,-4.0912,-4.0912,-4.0912,-4.0912,-4.0912,-4.0912,-4.0912,-4.0912,-4.0912,-4.0912,-4.0912,-4.1192,-4.1578,-4.1966,-4.2053,-4.2095,-4.2095,-4.2095,-4.2115,-4.2198,-4.2136,-4.2136,-4.2198,-4.2136,-4.232,-4.2787,-4.2257,-4.244,-3.8007,-3.9408,-4.0797,-4.0628,-4.0573,-4.07,-4.1134,0.0,0.0,0.0,0.0,0.0,0.0,-4.3323,-4.3412,0.0,0.0,-4.3357,0.0,0.0,-4.2595,-4.1713,0.0,-4.1468,-4.1134,-4.1111,-4.1065,-4.1012,-4.0989,-4.0965,-4.0894,-4.0912,-4.0912,-4.0912,-4.0912,-4.0918,-4.0989,-4.0918,-4.0912,-4.0912,-4.0912,-4.0912,-4.0912,-4.0912,-4.0912,-4.0912,-4.0912,-4.0912,-4.0912,-4.0912,-4.0912,-4.0912,-4.0912,-4.0912,-4.0912,-4.0912,-4.0912,-4.0912,-4.0912,-4.0912,-4.0912,-4.0912,-4.0817,-4.0721,-4.0721,-4.0631,-4.0558,-4.0558,-4.0631,-4.0697,-4.0583,-4.0648,-4.0721,-4.0721,-4.0817,-4.0912,-4.0912,-4.0912,-4.0912,-4.0912,-4.0912,-4.0912,-4.0912,-4.0912,-4.0912,-4.0912,-4.0912,-4.0912,-4.0912,-4.0912,-4.0912,-4.0912,-4.0912,-4.0912,-4.0912,-4.0965,-4.0971,-4.0924,-4.1356,-4.1604,-4.1604,-4.1604,-4.1799,-4.2177,-4.1799,-4.1799,-4.2198,-4.1799,-4.1842,-4.2297,-4.1485,-4.1351,-3.7905,-3.9156,-4.0497,-4.0628,-4.0926,-4.1303,-4.1721,-4.2035,0.0,0.0,0.0,0.0,0.0,0.0,-4.2994,-4.3123,0.0,-4.3268,-4.2616,-4.2518,-4.2195,0.0,0.0,-4.1094,-4.0935,-4.0912,-4.0912,-4.0912,-4.0912,-4.0912,-4.0912,-4.0912,-4.0912,-4.0912,-4.0912,-4.0912,-4.0912,-4.0912,-4.0912,-4.0912,-4.0912,-4.0912,-4.0912,-4.0912,-4.0912,-4.0912,-4.0912,-4.0912,-4.0912,-4.0912,-4.0912,-4.0912,-4.0912,-4.0912,-4.0912,-4.0912,-4.0847,-4.0793,-4.0793,-4.0728,-4.068,-4.068,-4.0631,-4.0583,-4.0583,-4.0558,-4.0468,-4.0412,-4.0485,-4.0583,-4.051,-4.0558,-4.0583,-4.0583,-4.0631,-4.068,-4.068,-4.068,-4.068,-4.068,-4.068,-4.068,-4.068,-4.068,-4.068,-4.068,-4.068,-4.068,-4.068,-4.068,-4.068,-4.068,-4.068,-4.068,-4.068,-4.068,-4.0728,-4.0817,-4.0907,-4.0984,-4.1071,-4.0984,-4.1059,-4.1288,-4.1059,-4.11,-4.1396,-4.11,-4.1265,-4.1799,-4.1047,-4.11,-3.7905,-3.9076,-4.0385,-4.0737,0.0,-4.1573,-4.2183,-4.2304,0.0,0.0,0.0,0.0,0.0,-4.267,0.0,-4.2975,-4.3124,-4.2958,-4.23,-4.2095,-4.1753,-4.0989,-4.0912,-4.0912,-4.0912,-4.0912,-4.0912,-4.0912,-4.0912,-4.0912,-4.0912,-4.0912,-4.0912,-4.0912,-4.0912,-4.0912,-4.0912,-4.0912,-4.0912,-4.0912,-4.0912,-4.0912,-4.0912,-4.0912,-4.0912,-4.0912,-4.0912,-4.0912,-4.0912,-4.0912,-4.0912,-4.0912,-4.0864,-4.0823,-4.0799,-4.0799,-4.0728,-4.0648,-4.0648,-4.0583,-4.051,-4.051,-4.0485,-4.0461,-4.0461,-4.0436,-4.037,-4.0288,-4.0337,-4.0412,-4.0412,-4.0436,-4.0461,-4.0461,-4.0485,-4.051,-4.051,-4.051,-4.051,-4.051,-4.051,-4.051,-4.051,-4.051,-4.051,-4.051,-4.051,-4.051,-4.051,-4.051,-4.051,-4.051,-4.051,-4.051,-4.051,-4.0485,-4.0558,-4.0776,-4.0607,-4.0558,-4.0648,-4.0558,-4.051,-4.051,-4.051,-4.0558,-4.0648,-4.0558,-4.0765,-4.1243,-4.0741,-4.0984,-3.7905,-3.9337,-4.0833,-4.088,-4.0552,-4.0483,-4.1516,-4.1756,0.0,-4.2424,0.0,0.0,0.0,-4.2901,-4.2844,-4.3287,-4.275,-4.2259,-4.2198,0.0,-4.1378,-4.0942,-4.0912,-4.0912,-4.0912,-4.0912,-4.0912,-4.0912,-4.0912,-4.0912,-4.0912,-4.0912,-4.0912,-4.0912,-4.0912,-4.0912,-4.0912,-4.0912,-4.0912,-4.0912,-4.0912,-4.0912,-4.0912,-4.0912,-4.0912,-4.0912,-4.0912,-4.0912,-4.0912,-4.0912,-4.0912,-4.0888,-4.0769,-4.0648,-4.0534,-4.0534,-4.0534,-4.051,-4.051,-4.051,-4.051,-4.051,-4.0412,-4.0313,-4.0313,-4.0238,-4.0121,-4.0138,-4.0121,-4.0121,-4.0121,-4.0213,-4.0313,-4.0313,-4.0412,-4.051,-4.051,-4.051,-4.051,-4.051,-4.051,-4.051,-4.051,-4.051,-4.051,-4.051,-4.051,-4.051,-4.051,-4.051,-4.051,-4.051,-4.051,-4.051,-4.051,-4.0387,-4.0362,-4.0534,-4.051,-4.0493,-4.051,-4.051,-4.051,-4.051,-4.051,-4.0493,-4.051,-4.0493,-4.0517,-4.0566,-4.0517,-4.0541,-3.7905,-3.933,-4.0838,-4.0838,-4.0707,0.0,0.0,-4.232,-4.2438,-4.2846,-4.3069,0.0,0.0,0.0,-4.2418,-4.2518,-4.234,-4.2095,-4.1799,-4.1604,-4.1333,-4.0942,-4.0912,-4.0912,-4.0912,-4.0817,-4.0769,-4.0769,-4.0769,-4.0769,-4.0769,-4.0847,-4.0912,-4.0912,-4.0912,-4.0912,-4.0912,-4.0912,-4.0912,-4.0912,-4.0912,-4.0912,-4.0912,-4.0912,-4.0912,-4.0912,-4.0912,-4.0847,-4.0769,-4.0769,-4.0745,-4.0655,-4.0583,-4.0534,-4.051,-4.051,-4.0436,-4.0362,-4.0362,-4.0313,-4.0246,-4.0246,-4.0238,-4.0188,-4.0188,-4.0138,-4.0096,-4.0096,-4.0096,-4.0096,-4.0096,-4.0138,-4.0188,-4.0188,-4.0196,-4.0246,-4.0246,-4.0246,-4.0246,-4.0246,-4.0246,-4.0246,-4.0246,-4.0246,-4.0246,-4.0246,-4.0246,-4.0246,-4.0246,-4.0246,-4.0246,-4.0246,-4.0246,-4.0246,-4.0246,-4.0213,-4.0213,-4.0246,-4.0246,-4.0288,-4.0362,-4.0313,-4.0246,-4.0246,-4.0246,-4.0271,-4.0362,-4.0271,-4.0337,-4.051,-4.0337,-4.032,-3.8152,-3.9391,-4.0611,-4.0754,0.0,0.0,-4.2136,-4.238,-4.2498,-4.2902,-4.2976,-4.2788,-4.2318,0.0,0.0,0.0,-4.1885,-4.1692,-4.1472,-4.1333,-4.114,-4.0871,-4.084,-4.084,-4.084,-4.0745,-4.0673,-4.0648,-4.0648,-4.0648,-4.0697,-4.0745,-4.0776,-4.084,-4.0817,-4.0776,-4.0776,-4.0776,-4.0776,-4.0776,-4.0776,-4.0823,-4.0912,-4.0864,-4.084,-4.084,-4.0776,-4.0704,-4.0648,-4.0648,-4.0576,-4.0436,-4.0436,-4.0412,-4.037,-4.037,-4.0313,-4.0213,-4.002,-3.9893,-3.9825,-3.9825,-3.9696,-3.9575,-3.9747,-3.9679,-3.9532,-3.9532,-3.9532,-3.9532,-3.9532,-3.9825,-4.0096,-4.0096,-4.0096,-4.0096,-4.0096,-4.0096,-4.0096,-4.0096,-4.0096,-4.0096,-4.0096,-4.0096,-4.0096,-4.0096,-4.0096,-4.0096,-4.0096,-4.0096,-4.0096,-4.0096,-4.0096,-4.0096,-4.0096,-4.0096,-4.0096,-4.0096,-4.0096,-4.0138,-4.0238,-4.0163,-4.0096,-4.0096,-4.0096,-4.0163,-4.0255,-4.0121,-4.0196,-4.0387,-4.0188,-4.0213,-3.8761,-3.9554,-4.0221,0.0,0.0,0.0,-4.1556,-4.1709,-4.1864,-4.2384,-4.244,-4.2297,-4.1966,-4.1903,0.0,-4.199,-4.1373,-4.0995,-4.1253,-4.0937,-4.0697,-4.0697,-4.0697,-4.0697,-4.0697,-4.0697,-4.0648,-4.051,-4.051,-4.0558,-4.0697,-4.0558,-4.0558,-4.0697,-4.0558,-4.051,-4.051,-4.051,-4.051,-4.051,-4.051,-4.0631,-4.0888,-4.0769,-4.0697,-4.0697,-4.0558,-4.051,-4.0485,-4.0468,-4.0412,-4.028,-4.028,-4.0188,-4.007,-4.007,-4.007,-3.9995,-3.9391,-3.9206,-3.9206,-3.9206,-3.881,-3.839,-3.9001,-3.8767,-3.8306,-3.8306,-3.8306,-3.8306,-3.8306,-3.9189,-4.007,-4.007,-4.007,-4.0096,-4.0096,-4.0113,-4.0096,-4.0096,-4.0096,-4.0096,-4.0096,-4.0096,-4.0096,-4.0096,-4.0096,-4.0096,-4.0096,-4.0096,-4.0096,-4.0096,-4.0096,-4.0096,-4.0096,-4.0096,-4.0096,-4.0096,-4.0096,-4.0096,-4.0096,-4.0096,-4.0096,-4.0096,-4.0096,-4.0096,-4.0096,-4.0096,-4.0096,-4.0096,-4.0096,-4.0096,-3.863,-3.9644,0.0,-4.0328,0.0,0.0,0.0,-4.1401,0.0,0.0,-4.2008,-4.1987,-4.1796,-4.1687,0.0,-4.1578,-4.1134,-4.0776,-4.0877,-4.0776,-4.0673,-4.0558,-4.0648,-4.0673,-4.0558,-4.0461,-4.0404,-4.0362,-4.0362,-4.0379,-4.0429,-4.0461,-4.0534,-4.0558,-4.0534,-4.051,-4.051,-4.051,-4.051,-4.051,-4.051,-4.0534,-4.0607,-4.0583,-4.0558,-4.0558,-4.0534,-4.0204,-3.9688,-3.9156,-3.8914,-3.8903,-3.8903,-3.8876,-3.8849,-3.8849,-3.8849,-3.8821,-3.8629,-3.8574,-3.8574,-3.8574,-3.8463,-3.8334,-3.8518,-3.8446,-3.8306,-3.8306,-3.8306,-3.8306,-3.8306,-3.8574,-3.8849,-3.8849,-3.9162,-3.947,-3.947,-3.9799,-4.0096,-4.0096,-4.0096,-4.0096,-4.0096,-4.0096,-4.0096,-4.0096,-4.0096,-4.0096,-4.0096,-4.0096,-4.0096,-4.0096,-4.0096,-4.0096,-4.0096,-4.0096,-4.0096,-4.0096,-4.0096,-4.0096,-4.0096,-4.0096,-4.0096,-4.0096,-4.0096,-4.0096,-4.0096,-4.0096,-4.0096,-4.0096,-4.0096,-4.0096,-3.8983,-3.984,0.0,-4.036,-4.0604,-4.0802,-4.0802,0.0,0.0,0.0,-4.1423,-4.1401,-4.1174,-4.1243,0.0,-4.1071,-4.0806,-4.06,-4.0551,-4.0551,-4.0527,-4.0436,-4.0485,-4.0502,-4.0436,-4.0355,-4.028,-4.0213,-4.0213,-4.0238,-4.0305,-4.0337,-4.0362,-4.0412,-4.0362,-4.032,-4.032,-4.032,-4.0221,-3.9961,-3.9961,-3.9859,-3.9645,-4.0179,-4.0296,-4.0037,-3.9765,-3.9368,-3.8941,-3.8474,-3.8306,-3.8306,-3.8306,-3.8306,-3.8306,-3.8306,-3.8306,-3.8266,-3.801,-3.7924,-3.7924,-3.7924,-3.778,-3.765,-3.7867,-3.7796,-3.7576,-3.7576,-3.7576,-3.7576,-3.7576,-3.7576,-3.7693,-3.821,-3.8574,-3.8821,-3.8821,-3.9339,-3.967,-3.9428,-3.9756,-4.002,-3.9773,-3.9944,-4.002,-3.9773,-3.9747,-3.9825,-4.007,-4.0096,-4.0096,-4.0096,-4.0096,-4.0096,-4.0096,-4.0096,-4.0096,-4.0096,-4.0096,-4.0096,-4.0096,-4.0096,-4.0096,-4.0096,-4.0096,-4.0096,-4.0096,-4.0096,-4.0096,-4.0096,-4.0096,-4.0096,-3.9606,-4.007,0.0,-4.0628,-4.0731,0.0,-4.0731,-4.0731,-4.0731,-4.0731,0.0,-4.0652,-4.0362,-4.0669,-4.0849,-4.0541,-4.0485,-4.0436,-4.033,-4.0305,-4.0305,-4.028,-4.0288,-4.0305,-4.028,-4.028,-4.0238,-4.0113,-4.0096,-4.0163,-4.028,-4.0163,-4.0163,-4.028,-4.0163,-4.0096,-4.0096,-4.0045,-3.9747,-3.9206,-3.9135,-3.8821,-3.8334,-3.9575,-3.9825,-3.9279,-3.853,-3.8238,-3.8193,-3.8165,-3.8153,-3.8153,-3.8153,-3.8153,-3.8153,-3.8153,-3.8153,-3.8067,-3.7519,-3.7328,-3.7328,-3.7328,-3.6952,-3.66,-3.7148,-3.6922,-3.6492,-3.6492,-3.6492,-3.6492,-3.6492,-3.6492,-3.6739,-3.7867,-3.8165,-3.8238,-3.8238,-3.8684,-3.8974,-3.8407,-3.9189,-3.9773,-3.9216,-3.9575,-3.9747,-3.9206,-3.9125,-3.9312,-3.9867,-3.9944,-3.9969,-4.002,-4.002,-4.0045,-4.0113,-4.0045,-4.002,-4.002,-3.9969,-3.9944,-3.9944,-4.0045,-4.0096,-4.0096,-4.0045,-4.0062,-4.0096,-4.0045,-4.0045,-4.0096,-4.0096,-4.0096,-3.9353,-3.9858,0.0,0.0,-4.0254,-4.0254,-4.0254,-4.0254,-4.0254,-4.0254,-4.0345,-4.0387,-4.0313,-4.0485,-4.059,-4.0493,-4.0412,-4.0337,-4.0288,-4.0305,-4.0263,-4.0163,-4.0255,-4.0263,-4.0163,-4.0138,-4.0121,-4.0096,-4.0096,-4.0096,-4.0138,-4.0113,-4.0096,-4.0138,-4.0113,-4.0096,-4.0096,-3.9644,-3.9339,-3.9206,-3.8712,-3.8435,-3.8322,-3.8585,-3.864,-3.8502,-3.7883,-3.7608,-3.7549,-3.7088,-3.6892,-3.6892,-3.6892,-3.6892,-3.6892,-3.6892,-3.6892,-3.6861,-3.6754,-3.6693,-3.6693,-3.6693,-3.6616,-3.6523,-3.6662,-3.66,-3.6492,-3.6492,-3.6492,-3.6492,-3.6492,-3.6383,-3.6336,-3.6585,-3.7117,-3.7608,-3.7608,-3.8067,-3.8463,-3.8351,-3.8518,-3.8657,-3.8518,-3.8585,-3.864,-3.8518,-3.849,-3.8546,-3.8684,-3.8684,-3.8876,-3.9339,-3.9391,-3.9592,-4.0045,-3.967,-3.9391,-3.9391,-3.8957,-3.8684,-3.8684,-3.9601,-4.0096,-4.0096,-3.9627,-3.9644,-4.0096,-3.9601,-3.9644,-4.0096,-4.0096,-4.0096,-3.9327,0.0,0.0,-4.0062,0.0,-4.0096,-4.0096,-4.0096,-4.0096,-4.0096,-4.0163,-4.0213,-4.0213,-4.0263,-4.0313,-4.0313,-4.0263,-4.0213,-4.0213,-4.0213,-4.0188,-4.0113,-4.0163,-4.0188,-4.0113,-4.0096,-4.0096,-4.0096,-4.0096,-4.0096,-4.0096,-4.0096,-4.0096,-4.0096,-3.9825,-3.967,-3.967,-3.9082,-3.8629,-3.8339,-3.8026,-3.7709,-3.7445,-3.7738,-3.7883,-3.7854,-3.7238,-3.6983,-3.6952,-3.6631,-3.6492,-3.6492,-3.6492,-3.6492,-3.6492,-3.6492,-3.6492,-3.6492,-3.6492,-3.6492,-3.6492,-3.6492,-3.6492,-3.6492,-3.6492,-3.6492,-3.6492,-3.6383,-3.6352,-3.6352,-3.6289,-3.6195,-3.6116,-3.6116,-3.6414,-3.6723,-3.6723,-3.7207,-3.7531,-3.7251,-3.7677,-3.7966,-3.7677,-3.7618,-3.7764,-3.8121,-3.7863,-3.7735,-3.8023,-3.8051,-3.8193,-3.8518,-3.8546,-3.864,-3.8968,-3.8695,-3.8546,-3.8546,-3.8222,-3.8051,-3.8051,-3.8668,-3.9076,-3.9242,-3.893,-3.893,-3.9242,-3.893,-3.893,-3.9242,-3.9242,-3.9242,-3.9403,0.0,-3.9926,-4.0062,-4.0096,0.0,-4.0096,-4.0096,-4.0096,-4.0096,-4.0096,-4.0096,-4.0096,-4.0096,-4.0096,-4.0096,-4.0096,-4.0096,-4.0096,-4.0096,-4.0096,-4.0096,-4.0096,-4.0096,-4.0096,-4.0096,-4.0096,-4.0096,-4.0096,-4.0096,-4.0096,-4.0096,-4.0045,-3.9944,-3.9444,-3.9152,-3.9055,-3.8463,-3.7895,-3.7417,-3.7298,-3.6983,-3.6523,-3.7013,-3.7238,-3.7208,-3.6723,-3.6492,-3.6492,-3.6492,-3.6492,-3.6492,-3.6492,-3.6492,-3.6492,-3.6492,-3.6492,-3.6492,-3.6492,-3.6492,-3.646,-3.646,-3.6429,-3.6429,-3.6429,-3.6429,-3.6398,-3.6211,-3.6179,-3.6148,-3.6037,-3.5973,-3.5941,-3.5941,-3.5941,-3.5925,-3.5973,-3.6383,-3.6616,-3.61,-3.6814,-3.7324,-3.6845,-3.6753,-3.6935,-3.7571,-3.7145,-3.692,-3.7413,-3.7501,-3.7531,-3.7648,-3.7632,-3.7706,-3.7777,-3.7706,-3.7632,-3.7632,-3.756,-3.7501,-3.7501,-3.7501,-3.7618,-3.7908,-3.7994,-3.8108,-3.8222,-3.8108,-3.8108,-3.8222,-3.8222,-3.8222,0.0,0.0,-3.9926,0.0,-4.0096,-4.0096,0.0,0.0,-4.0096,0.0,-4.0096,-4.0096,-4.0096,-4.0096,-4.0096,-4.0096,-4.0096,-4.0096,-4.0096,-4.0096,-4.0096,-4.0096,-4.0096,-4.0096,-4.0096,-4.0096,-4.0096,-4.0096,-4.0096,-4.0096,-4.0096,-4.0096,-3.985,-3.9339,-3.9259,-3.8947,-3.8435,-3.7825,-3.746,-3.7387,-3.6861,-3.6585,-3.6492,-3.6569,-3.6616,-3.6616,-3.6523,-3.6492,-3.6492,-3.6492,-3.6492,-3.6492,-3.6492,-3.6492,-3.6492,-3.6492,-3.6492,-3.6492,-3.6492,-3.6383,-3.6242,-3.6242,-3.6148,-3.6068,-3.6068,-3.6068,-3.6068,-3.6037,-3.6037,-3.6037,-3.6005,-3.5863,-3.5752,-3.5752,-3.5653,-3.5651,-3.5957,-3.6068,-3.61,-3.6005,-3.6116,-3.6211,-3.6116,-3.6116,-3.6148,-3.6258,-3.6179,-3.6148,-3.6242,-3.6227,-3.643,-3.6951,-3.7011,-3.7235,-3.7764,-3.7324,-3.7011,-3.7011,-3.6523,-3.6227,-3.6227,-3.6227,-3.6258,-3.629,-3.6814,-3.7354,-3.7879,-3.7354,-3.7354,-3.7879,-3.7879,-3.7879,-3.9363,-3.9746,-3.9926,0.0,-4.0096,-4.0096,-4.0096,0.0,-4.0096,-4.0096,-4.0096,-4.0096,-4.0096,-4.0096,-4.0096,-4.0096,-4.0096,-4.0096,-4.0096,-4.0096,-4.0096,-4.0096,-4.0096,-4.0096,-4.0096,-4.0096,-4.0096,-4.0096,-3.9773,-3.9618,-3.9618,-3.9269,-3.8957,-3.8712,-3.8367,-3.8055,-3.7796,-3.7208,-3.6892,-3.6892,-3.6647,-3.6492,-3.6492,-3.6492,-3.6492,-3.6492,-3.6492,-3.6492,-3.6492,-3.6492,-3.6492,-3.6492,-3.6492,-3.6414,-3.6352,-3.6352,-3.6289,-3.6241,-3.6241,-3.6163,-3.6085,-3.6085,-3.6068,-3.6005,-3.6005,-3.6005,-3.5973,-3.5863,-3.5831,-3.5799,-3.5733,-3.5636,-3.5604,-3.5604,-3.5554,-3.5537,-3.5683,-3.5716,-3.5716,-3.5716,-3.5716,-3.5733,-3.5831,-3.575,-3.5733,-3.5831,-3.5765,-3.5716,-3.5716,-3.5716,-3.5829,-3.6085,-3.6116,-3.6227,-3.6492,-3.6258,-3.6116,-3.6116,-3.5861,-3.5716,-3.5716,-3.5716,-3.5716,-3.5716,-3.6148,-3.6523,-3.6784,-3.6523,-3.6523,-3.6784,-3.6784,-3.6784,0.0,0.0,-3.9849,-4.0011,-4.0062,-4.0062,0.0,0.0,-4.0096,0.0,-4.0096,-4.0096,-4.0096,-4.0096,-4.0096,-4.0096,-4.0096,-4.0096,-4.0096,-4.0096,-4.0096,-4.0096,-3.9969,-3.9867,-3.9867,-3.9747,-3.9627,-3.9627,-3.9216,-3.8974,-3.8974,-3.8546,-3.8238,-3.8067,-3.7621,-3.7328,-3.7178,-3.6723,-3.646,-3.6414,-3.6492,-3.646,-3.6414,-3.6492,-3.6492,-3.6492,-3.6492,-3.6492,-3.6492,-3.6492,-3.646,-3.6414,-3.6414,-3.632,-3.6148,-3.6148,-3.6085,-3.6005,-3.6005,-3.5973,-3.5926,-3.5926,-3.591,-3.5861,-3.5861,-3.5861,-3.5861,-3.5671,-3.5638,-3.5621,-3.5537,-3.5504,-3.5504,-3.5504,-3.5504,-3.5504,-3.5504,-3.5504,-3.5504,-3.5504,-3.5504,-3.5522,-3.5621,-3.5587,-3.5522,-3.5638,-3.5572,-3.5504,-3.5504,-3.5504,-3.5504,-3.5504,-3.5504,-3.5504,-3.5504,-3.5504,-3.5504,-3.5504,-3.5504,-3.5504,-3.5504,-3.5504,-3.5504,-3.5504,-3.5748,-3.5861,-3.5861,-3.5861,-3.5861,-3.5861,-3.5861,-3.5861,0.0,-3.9528,0.0,-3.9849,-3.9901,0.0,0.0,0.0,-4.0096,-4.0096,-4.0096,-4.0096,-4.0096,-4.0096,-4.0096,-4.0096,-4.0096,-4.0096,-4.0096,-4.0096,-4.0096,-4.0096,-3.9592,-3.9259,-3.9259,-3.8739,-3.839,-3.839,-3.8362,-3.8351,-3.8351,-3.8322,-3.8039,-3.746,-3.7417,-3.7134,-3.6554,-3.6523,-3.6383,-3.6211,-3.6414,-3.6383,-3.6211,-3.6414,-3.6492,-3.6492,-3.6492,-3.6492,-3.6492,-3.6492,-3.6383,-3.6211,-3.6211,-3.6116,-3.6005,-3.6005,-3.6005,-3.6005,-3.6005,-3.5863,-3.572,-3.572,-3.5621,-3.5537,-3.5537,-3.5537,-3.5537,-3.5504,-3.5504,-3.5504,-3.5504,-3.5504,-3.5504,-3.5504,-3.5504,-3.5504,-3.5504,-3.5504,-3.5504,-3.5504,-3.5504,-3.5504,-3.5504,-3.5504,-3.5504,-3.5504,-3.5504,-3.5504,-3.5504,-3.5504,-3.5504,-3.5504,-3.5504,-3.5504,-3.5504,-3.5504,-3.5504,-3.5504,-3.5504,-3.5504,-3.5504,-3.5504,-3.5504,-3.5504,-3.5504,-3.5537,-3.5537,-3.5537,-3.5537,-3.5537,-3.5537,-3.5537,0.0,0.0,0.0,-3.9746,-3.9849,-3.9926,-3.9961,-4.0037,-4.0096,-4.0096,-4.0096,-4.0096,-4.0096,-4.0096,-4.0096,-4.0096,-4.0096,-4.0096,-4.0096,-4.0096,-4.0096,-4.0096,-3.9566,-3.9206,-3.9206,-3.8657,-3.8306,-3.8306,-3.7924,-3.7709,-3.7709,-3.7371,-3.7058,-3.6831,-3.6831,-3.6723,-3.6492,-3.6383,-3.6274,-3.6196,-3.6195,-3.6132,-3.6053,-3.6132,-3.6178,-3.6178,-3.6178,-3.6226,-3.6305,-3.6226,-3.6132,-3.6053,-3.6053,-3.5958,-3.5831,-3.5831,-3.575,-3.5683,-3.5683,-3.5651,-3.5572,-3.5572,-3.5554,-3.5504,-3.5504,-3.5504,-3.5504,-3.5504,-3.5504,-3.5504,-3.5504,-3.5504,-3.5504,-3.5504,-3.5504,-3.5504,-3.5504,-3.5504,-3.5504,-3.5504,-3.5504,-3.5504,-3.5504,-3.5504,-3.5504,-3.5504,-3.5504,-3.5504,-3.5504,-3.5504,-3.5504,-3.5504,-3.5504,-3.5504,-3.5504,-3.5504,-3.5504,-3.5504,-3.5504,-3.5504,-3.5504,-3.5504,-3.5504,-3.5504,-3.5504,-3.5504,-3.5504,-3.5504,-3.5504,-3.5504,-3.5504,-3.5504,-3.8689,0.0,0.0,0.0,0.0,-3.9798,-3.9875,0.0,-4.0062,-4.007,-4.0096,-4.0096,-4.0096,-4.0096,-4.0096,-4.0096,-4.0096,-4.0096,-4.0096,-4.0096,-4.0096,-4.0096,-3.9391,-3.8892,-3.8892,-3.8181,-3.7709,-3.7709,-3.7312,-3.7104,-3.7104,-3.6723,-3.646,-3.6383,-3.6383,-3.6383,-3.632,-3.6179,-3.6116,-3.6038,-3.6005,-3.5973,-3.5894,-3.5973,-3.6005,-3.6005,-3.5941,-3.599,-3.6116,-3.6037,-3.5973,-3.5894,-3.5894,-3.5767,-3.5638,-3.5638,-3.5572,-3.5504,-3.5504,-3.5504,-3.5504,-3.5504,-3.5504,-3.5504,-3.5504,-3.5504,-3.5504,-3.5504,-3.5504,-3.5504,-3.5504,-3.5504,-3.5504,-3.5504,-3.5504,-3.5504,-3.5504,-3.5504,-3.5504,-3.5504,-3.5504,-3.5504,-3.5504,-3.5504,-3.5504,-3.5504,-3.5504,-3.5504,-3.5504,-3.5504,-3.5504,-3.5504,-3.5504,-3.5504,-3.5504,-3.5504,-3.5504,-3.5504,-3.5504,-3.5504,-3.5504,-3.5504,-3.5504,-3.5504,-3.5504,-3.5504,-3.5504,-3.5504,-3.5504,-3.5504,-3.5504,-3.5504,0.0,0.0,0.0,0.0,0.0,0.0,-3.9798,0.0,-3.9884,-4.0037,-4.0045,-4.0045,-4.0045,-4.0045,-4.0045,-4.0045,-4.0045,-4.007,-4.007,-4.0045,-4.0045,-4.0045,-3.8984,-3.8278,-3.8278,-3.7193,-3.6492,-3.6492,-3.6492,-3.6492,-3.6492,-3.6492,-3.6383,-3.6211,-3.6211,-3.6148,-3.6005,-3.6005,-3.5894,-3.5688,-3.5894,-3.5863,-3.5688,-3.591,-3.5973,-3.5973,-3.5799,-3.5799,-3.5973,-3.5973,-3.5863,-3.5688,-3.5688,-3.5621,-3.5504,-3.5504,-3.5504,-3.5504,-3.5504,-3.5504,-3.5504,-3.5504,-3.5504,-3.5504,-3.5504,-3.5504,-3.5504,-3.5504,-3.5504,-3.5504,-3.5504,-3.5504,-3.5504,-3.5504,-3.5504,-3.5504,-3.5504,-3.5504,-3.5504,-3.5504,-3.5504,-3.5504,-3.5504,-3.5504,-3.5504,-3.5504,-3.5504,-3.5504,-3.5504,-3.5504,-3.5504,-3.5504,-3.5504,-3.5504,-3.5504,-3.5504,-3.5504,-3.5504,-3.5504,-3.5504,-3.5504,-3.5504,-3.5504,-3.5504,-3.5504,-3.5504,-3.5504,-3.5504,-3.5504,-3.5504,-3.5504,-3.5504,-3.7851,0.0,0.0,0.0,0.0,0.0,0.0,0.0,-3.8574,-3.9189,-3.8914,-3.8564,-3.8564,-3.8968,-3.9109,-3.853,-3.887,-3.9236,-3.9236,-3.8854,-3.8564,-3.8564,-3.8023,-3.765,-3.765,-3.6952,-3.6445,-3.6274,-3.6414,-3.6445,-3.6274,-3.6274,-3.6274,-3.6196,-3.6116,-3.6037,-3.6005,-3.5863,-3.5752,-3.5688,-3.5668,-3.5619,-3.5554,-3.5619,-3.5619,-3.5619,-3.5587,-3.5587,-3.5619,-3.5619,-3.5619,-3.5554,-3.5554,-3.5522,-3.5504,-3.5504,-3.5504,-3.5504,-3.5504,-3.5504,-3.5504,-3.5504,-3.5504,-3.5504,-3.5504,-3.5504,-3.5504,-3.5504,-3.5504,-3.5504,-3.5504,-3.5504,-3.5504,-3.5504,-3.5504,-3.5504,-3.5504,-3.5504,-3.5504,-3.5504,-3.5504,-3.5504,-3.5504,-3.5504,-3.5504,-3.5504,-3.5504,-3.5504,-3.5504,-3.5504,-3.5504,-3.5504,-3.5504,-3.5504,-3.5504,-3.5504,-3.5504,-3.5504,-3.5504,-3.5504,-3.5504,-3.5504,-3.5504,-3.5504,-3.5504,-3.5504,-3.5504,-3.5504,-3.5504,-3.5504,-3.5504,-3.5504,0.0,0.0,0.0,0.0,0.0,0.0,-3.8023,-3.7908,-3.7879,-3.839,-3.8206,-3.7933,-3.7933,-3.8234,-3.8351,-3.7879,-3.7876,-3.806,-3.8386,-3.8133,-3.7933,-3.7933,-3.7488,-3.7193,-3.7193,-3.6646,-3.6226,-3.6116,-3.6226,-3.6226,-3.6116,-3.6116,-3.6085,-3.5975,-3.5926,-3.5846,-3.5797,-3.5701,-3.5621,-3.5621,-3.5522,-3.5504,-3.5504,-3.5504,-3.5504,-3.5504,-3.5504,-3.5504,-3.5504,-3.5504,-3.5504,-3.5504,-3.5504,-3.5504,-3.5504,-3.5504,-3.5504,-3.5504,-3.5504,-3.5504,-3.5504,-3.5504,-3.5504,-3.5504,-3.5504,-3.5504,-3.5504,-3.5504,-3.5504,-3.5504,-3.5504,-3.5504,-3.5504,-3.5504,-3.5504,-3.5504,-3.5504,-3.5504,-3.5504,-3.5504,-3.5504,-3.5504,-3.5504,-3.5504,-3.5504,-3.5504,-3.5504,-3.5504,-3.5504,-3.5504,-3.5504,-3.5504,-3.5504,-3.5504,-3.5504,-3.5504,-3.5504,-3.5504,-3.5504,-3.5504,-3.5504,-3.5504,-3.5504,-3.5504,-3.5504,-3.5504,-3.5504,-3.5504,-3.5504,-3.5504,-3.5504,-3.5504,0.0,0.0,0.0,0.0,-3.6753,0.0,-3.7413,-3.7413,-3.7413,-3.7648,-3.7602,-3.7573,-3.7573,-3.7648,-3.7648,-3.756,-3.701,-3.6828,-3.7573,-3.7602,-3.7573,-3.7573,-3.7131,-3.6814,-3.6814,-3.6321,-3.6005,-3.5973,-3.5973,-3.5973,-3.6005,-3.5973,-3.5863,-3.572,-3.5688,-3.5621,-3.5504,-3.5504,-3.5504,-3.5504,-3.5504,-3.5504,-3.5504,-3.5504,-3.5504,-3.5504,-3.5504,-3.5504,-3.5504,-3.5504,-3.5504,-3.5504,-3.5504,-3.5504,-3.5504,-3.5504,-3.5504,-3.5504,-3.5504,-3.5504,-3.5504,-3.5504,-3.5504,-3.5504,-3.5504,-3.5504,-3.5504,-3.5504,-3.5504,-3.5504,-3.5504,-3.5504,-3.5504,-3.5504,-3.5504,-3.5504,-3.5504,-3.5504,-3.5504,-3.5504,-3.5504,-3.5504,-3.5504,-3.5504,-3.5504,-3.5504,-3.5504,-3.5504,-3.5504,-3.5504,-3.5504,-3.5504,-3.5504,-3.5504,-3.5504,-3.5504,-3.5504,-3.5504,-3.5504,-3.5504,-3.5504,-3.5504,-3.5504,-3.5504,-3.5392,-3.5359,-3.5359,-3.5472,-3.5504,-3.5504,-3.5392,-3.5392,0.0,0.0,0.0,0.0,-3.5765,0.0,-3.6523,-3.6258,-3.6116,-3.6784,-3.6477,-3.6102,-3.6102,-3.6554,-3.6692,-3.6053,-3.6212,-3.6523,-3.6798,-3.6415,-3.6102,-3.6102,-3.6164,-3.6179,-3.6179,-3.6068,-3.5941,-3.5752,-3.5752,-3.5831,-3.6005,-3.5863,-3.5752,-3.5688,-3.5604,-3.5537,-3.5504,-3.5504,-3.5504,-3.5504,-3.5504,-3.5504,-3.5504,-3.5504,-3.5504,-3.5504,-3.5504,-3.5504,-3.5504,-3.5504,-3.5504,-3.5504,-3.5504,-3.5504,-3.5504,-3.5504,-3.5504,-3.5504,-3.5504,-3.5504,-3.5504,-3.5504,-3.5504,-3.5504,-3.5504,-3.5504,-3.5504,-3.5504,-3.5504,-3.5504,-3.5504,-3.5504,-3.5504,-3.5504,-3.5504,-3.5504,-3.5504,-3.5504,-3.5504,-3.5504,-3.5504,-3.5504,-3.5504,-3.5504,-3.5504,-3.5504,-3.5504,-3.5504,-3.5504,-3.5504,-3.5504,-3.5504,-3.5504,-3.5504,-3.5504,-3.5504,-3.5504,-3.5504,-3.5504,-3.5504,-3.5504,-3.5504,-3.5504,-3.5504,-3.4872,-3.4528,-3.4528,-3.5166,-3.5504,-3.5472,-3.4839,-3.4872,0.0,0.0,0.0,-3.5504,-3.5504,0.0,0.0,-3.5716,-3.5619,-3.6037,-3.5846,-3.5589,-3.5589,-3.5863,-3.5973,-3.5569,-3.5765,-3.5958,-3.6023,-3.5799,-3.5589,-3.5589,-3.5701,-3.5733,-3.5733,-3.5733,-3.5701,-3.5604,-3.5589,-3.5636,-3.5733,-3.5668,-3.5589,-3.5589,-3.5522,-3.5504,-3.5504,-3.5504,-3.5504,-3.5504,-3.5504,-3.5504,-3.5504,-3.5085,-3.5133,-3.5472,-3.4687,-3.4558,-3.4872,-3.4491,-3.4356,-3.4438,-3.518,-3.5504,-3.5504,-3.5504,-3.5504,-3.5504,-3.5504,-3.5246,-3.4905,-3.4905,-3.4673,-3.4356,-3.4356,-3.4606,-3.4905,-3.4905,-3.5198,-3.5392,-3.5019,-3.4905,-3.4806,-3.4423,-3.4356,-3.4356,-3.4356,-3.4356,-3.4356,-3.4356,-3.4673,-3.5019,-3.5424,-3.5504,-3.5504,-3.5504,-3.5504,-3.5359,-3.4938,-3.4905,-3.4773,-3.439,-3.4356,-3.4356,-3.4356,-3.4274,-3.424,-3.4356,-3.4158,-3.4124,-3.4356,-3.4274,-3.424,-3.4356,-3.3871,-3.3636,-3.3768,-3.4056,-3.424,-3.4322,-3.3953,-3.3953,0.0,0.0,0.0,0.0,0.0,-3.5439,0.0,0.0,0.0,-3.5504,-3.5504,-3.5504,0.0,0.0,0.0,-3.5325,0.0,0.0,0.0,-3.5429,0.0,-3.5504,-3.5504,-3.5504,-3.5504,-3.5504,-3.5504,-3.5504,-3.5504,-3.5504,-3.5504,-3.5504,-3.5504,-3.5504,-3.5504,-3.5504,-3.5504,-3.5504,-3.5504,-3.5504,-3.5504,-3.5504,-3.5472,-3.4677,-3.4643,-3.518,-3.3782,-3.3526,-3.4027,-3.3457,-3.3178,-3.3332,-3.4572,-3.5082,-3.5082,-3.5082,-3.5082,-3.5082,-3.5082,-3.4624,-3.4109,-3.4109,-3.3699,-3.3178,-3.3178,-3.363,-3.4109,-3.4109,-3.4558,-3.492,-3.4259,-3.4109,-3.3939,-3.3353,-3.3178,-3.3178,-3.3178,-3.3178,-3.3178,-3.3143,-3.3616,-3.4279,-3.5133,-3.5279,-3.5246,-3.5213,-3.51,-3.4739,-3.4061,-3.3993,-3.3754,-3.3143,-3.3073,-3.3073,-3.3073,-3.2939,-3.289,-3.3059,-3.2798,-3.2763,-3.3073,-3.2939,-3.2939,-3.3073,-3.2798,-3.2692,-3.2861,-3.255,-3.2692,-3.3178,-3.3038,-3.3038,0.0,0.0,0.0,0.0,-3.5115,-3.5213,-3.5213,0.0,-3.5294,-3.5472,0.0,-3.5504,-3.5504,0.0,0.0,0.0,-3.51,-3.5295,-3.4713,-3.5115,-3.5504,-3.5504,-3.5504,-3.5504,-3.5504,-3.5504,-3.5504,-3.5504,-3.5504,-3.5504,-3.5504,-3.5504,-3.5504,-3.5504,-3.5504,-3.5504,-3.5504,-3.5504,-3.5504,-3.5504,-3.5504,-3.5504,-3.5472,-3.4677,-3.4346,-3.438,-3.3561,-3.3262,-3.3318,-3.3213,-3.3178,-3.3213,-3.3402,-3.3471,-3.3471,-3.3471,-3.3471,-3.3471,-3.3471,-3.3388,-3.3318,-3.3318,-3.3262,-3.3178,-3.3178,-3.3262,-3.3318,-3.3318,-3.3388,-3.3437,-3.3353,-3.3318,-3.3283,-3.3213,-3.3178,-3.3178,-3.3178,-3.3178,-3.3143,-3.2961,-3.2996,-3.3345,-3.4279,-3.4428,-3.4394,-3.4211,-3.3602,-3.3101,-3.282,-3.2784,-3.2749,-3.2678,-3.2678,-3.2678,-3.2678,-3.2642,-3.2629,-3.2678,-3.2642,-3.2629,-3.2678,-3.2642,-3.2629,-3.2678,-3.1988,-3.1686,-3.1686,-3.1009,-3.1539,-3.3178,-3.2541,-3.2492,0.0,0.0,0.0,0.0,-3.5213,-3.5326,-3.5213,-3.518,-3.5213,-3.5326,0.0,0.0,0.0,0.0,0.0,0.0,-3.531,-3.54,0.0,0.0,-3.5504,-3.5504,-3.5504,-3.5504,-3.5504,-3.5504,-3.5504,-3.5504,-3.5504,-3.5504,-3.5504,-3.5504,-3.5504,-3.5504,-3.5504,-3.5504,-3.5504,-3.5052,-3.4791,-3.4791,-3.439,-3.4187,-3.4153,-3.3388,-3.3269,-3.3596,-3.2412,-3.2173,-3.2541,-3.2101,-3.1932,-3.1932,-3.1932,-3.2461,-3.3178,-3.3178,-3.3178,-3.3178,-3.3178,-3.2932,-3.247,-3.1932,-3.175,-3.1713,-3.1626,-3.1869,-3.2218,-3.2218,-3.2528,-3.2763,-3.2326,-3.2218,-3.211,-3.1686,-3.1576,-3.1576,-3.1576,-3.1576,-3.1539,-3.1466,-3.1806,-3.2205,-3.2599,-3.3045,-3.3276,-3.3206,-3.2925,-3.2536,-3.2024,-3.1951,-3.1806,-3.1378,-3.1304,-3.1304,-3.1304,-3.1206,-3.1206,-3.1318,-3.1304,-3.1281,-3.1169,-3.1281,-3.1304,-3.1304,-3.0897,-3.0759,-3.0872,-3.0444,-3.0684,-3.1576,-3.1257,-3.122,-3.5474,-3.5359,-3.5341,-3.5049,-3.5129,-3.5228,-3.5096,-3.5049,-3.5082,-3.5115,-3.5115,0.0,0.0,0.0,0.0,0.0,0.0,-3.5365,0.0,-3.5385,0.0,-3.5504,-3.5504,-3.5504,-3.5504,-3.5504,-3.5504,-3.5504,-3.5504,-3.5504,-3.5504,-3.5504,-3.5392,-3.518,-3.5392,-3.5294,-3.4868,-3.4495,-3.4211,-3.4007,-3.3457,-3.3178,-3.3178,-3.2434,-3.2398,-3.284,-3.1542,-3.1296,-3.1773,-3.1222,-3.0986,-3.0986,-3.0986,-3.1653,-3.2591,-3.2591,-3.2591,-3.2591,-3.2591,-3.2232,-3.1676,-3.0936,-3.0698,-3.066,-3.0444,-3.0759,-3.1182,-3.1182,-3.1599,-3.1865,-3.1331,-3.1182,-3.1046,-3.0545,-3.0406,-3.0406,-3.0406,-3.0406,-3.0368,-3.033,-3.0759,-3.1121,-3.1046,-3.1746,-3.2285,-3.2213,-3.2033,-3.1696,-3.1108,-3.1046,-3.0835,-3.0292,-3.0228,-3.0228,-3.0228,-3.0113,-3.0075,-3.0228,-3.0228,-3.019,-3.0011,-3.0152,-3.0228,-3.0228,-3.0075,-3.0075,-3.0228,-3.0075,-3.0075,-3.0228,-3.0368,-3.0368,-3.5034,-3.5082,-3.5082,-3.4549,-3.4597,-3.4731,-3.4731,-3.4731,-3.4765,-3.4868,-3.4902,-3.4902,0.0,0.0,0.0,0.0,0.0,0.0,0.0,0.0,-3.5504,-3.5504,-3.5504,-3.5504,-3.5504,-3.5504,-3.5504,-3.5504,-3.5504,-3.5504,-3.5504,-3.5504,-3.5133,-3.4346,-3.5085,-3.4787,-3.3297,-3.3973,-3.3939,-3.3213,-3.3213,-3.3178,-3.3178,-3.2434,-3.211,-3.2074,-3.1334,-3.1024,-3.1011,-3.1024,-3.0986,-3.0986,-3.0986,-3.1024,-3.1061,-3.1061,-3.1061,-3.1061,-3.1061,-3.1061,-3.0986,-3.0773,-3.0698,-3.066,-3.0444,-3.0406,-3.0444,-3.0444,-3.0432,-3.047,-3.0444,-3.0444,-3.0444,-3.0406,-3.0406,-3.0406,-3.0406,-3.0406,-3.033,-3.0152,-3.0113,-3.0075,-2.9908,-3.0797,-3.1466,-3.1254,-3.0633,-3.0113,-2.9869,-2.9869,-2.9869,-2.983,-2.983,-2.983,-2.983,-2.9792,-2.9792,-2.983,-2.983,-2.983,-2.9792,-2.983,-2.983,-2.983,-2.9792,-2.9792,-2.983,-2.9792,-2.9792,-2.983,-3.0228,-3.0292,-3.5326,-3.5359,-3.5294,-3.4835,-3.4883,-3.4949,-3.4765,-3.4698,-3.4698,-3.475,-3.475,-3.475,0.0,0.0,0.0,0.0,0.0,0.0,0.0,0.0,-3.4172,-3.365,-3.4706,-3.5279,-3.4758,-3.4725,-3.4725,-3.4725,-3.424,-3.4206,-3.4691,-3.424,-3.3851,-3.3596,-3.3851,-3.3713,-3.3213,-3.2953,-3.2706,-3.247,-3.1992,-3.175,-3.1763,-3.1468,-3.1296,-3.1147,-3.0911,-3.0811,-3.0811,-3.0811,-3.0874,-3.0986,-3.0849,-3.0811,-3.0811,-3.0811,-3.0811,-3.0761,-3.0634,-3.0596,-3.0558,-3.0381,-3.0305,-3.0279,-3.0049,-3.0011,-3.0011,-3.0011,-3.0011,-3.0011,-3.0011,-3.0011,-3.0011,-3.0011,-3.0011,-3.0011,-3.0011,-3.0011,-2.9972,-2.9895,-2.9895,-2.9869,-2.9792,-3.0113,-3.0368,-3.0279,-3.0075,-2.9869,-2.9792,-2.9792,-2.9792,-2.9792,-2.9792,-2.9792,-2.9792,-2.9792,-2.9792,-2.9792,-2.9792,-2.9792,-2.9792,-2.9792,-2.9792,-2.9792,-2.9792,-2.9792,-2.9792,-2.9792,-2.9792,-2.9792,-2.9934,-2.9972,-3.5326,-3.5261,-3.5129,-3.4802,-3.4817,-3.485,-3.4631,-3.4597,-3.4597,-3.4597,-3.4597,-3.4597,-3.4597,0.0,0.0,0.0,0.0,0.0,0.0,-3.3665,-3.3199,-3.2664,-3.3719,0.0,-3.3856,-3.3739,-3.3739,-3.3905,-3.3408,-3.3339,-3.3871,-3.3457,-3.3073,-3.2826,-3.3073,-3.2946,-3.2412,-3.2196,-3.1978,-3.17,-3.1222,-3.0949,-3.0911,-3.0986,-3.0874,-3.0698,-3.0773,-3.0773,-3.0698,-3.0698,-3.0723,-3.0748,-3.0647,-3.0571,-3.0571,-3.0571,-3.0571,-3.0571,-3.0444,-3.0406,-3.0368,-3.019,-3.0113,-3.0049,-2.9869,-2.9792,-2.9754,-2.9541,-2.9628,-2.9741,-2.9541,-2.9641,-2.9792,-2.9792,-2.9792,-2.9792,-2.9792,-2.9792,-2.9792,-2.9792,-2.9792,-2.9792,-2.9792,-2.9792,-2.9792,-2.9792,-2.9792,-2.9792,-2.9792,-2.9792,-2.9792,-2.9792,-2.9792,-2.9792,-2.9792,-2.9792,-2.9792,-2.9792,-2.9792,-2.9792,-2.9792,-2.9792,-2.988,-3.008,-2.9892,-2.9892,-3.008,-2.9892,-2.9792,-2.9792,-2.9792,-2.9792]},{"header":{"parameterUnit":"m.s-1","parameterCategory":1,"la1":30.6,"la2":29.2853,"lo1":-89.7004,"lo2":-87.6739,"dy":0.0162,"dx":0.0183,"nx":112,"ny":82,"refTime":"2023-08-19T06:00:00:Z","depth":0,"parameterNumber":3,"parameterNumberName":"V-component_of_WINDS"},"data":[0.0,0.0,0.0,0.0,0.0,0.0,0.0,0.0,0.0,0.0,0.0,0.0,0.0,0.0,0.0,0.0,0.0,0.0,0.0,0.0,0.0,0.0,0.0,0.0,0.0,0.0,0.0,0.0,0.0,0.0,0.0,0.0,0.0,0.0,0.0,0.0,0.0,0.0,0.0,0.0,0.0,0.0,0.0,0.0,0.0,0.0,0.0,0.0,0.0,0.0,0.0,0.0,0.0,0.0,0.0,0.0,0.0,0.0,0.0,0.0,0.0,0.0,0.0,0.0,0.0,0.0,0.0,0.0,0.0,0.0,0.0,0.0,0.0,0.0,0.0,0.0,0.0,0.0,0.0,0.0,0.0,0.0,0.0,0.0,0.0,0.0,0.0,0.0,0.0,0.0,-0.0864,-0.0943,-0.1178,-0.1296,-0.1296,-0.1296,-0.0706,0.0705,0.0,0.0,0.0,0.0,0.0,0.0,0.0,0.0,0.0,0.0,0.0,0.0,0.0,0.0,0.0,0.0,0.0,0.0,0.0,0.0,0.0,0.0,0.0,0.0,0.0,0.0,0.0,0.0,0.0,0.0,0.0,0.0,0.0,0.0,0.0,0.0,0.0,0.0,0.0,0.0,0.0,0.0,0.0,0.0,0.0,0.0,0.0,0.0,0.0,0.0,0.0,0.0,0.0,0.0,0.0,0.0,0.0,0.0,0.0,0.0,0.0,0.0,0.0,0.0,0.0,0.0,0.0,0.0,0.0,0.0,0.0,0.0,0.0,0.0,0.0,0.0,0.0,0.0,0.0,0.0,0.0,0.0,0.0,0.0,0.0,0.0,0.0,0.0,0.0,0.0,0.0,0.0,0.0,0.0,0.0,0.0,0.0,0.0,0.0,0.0,0.0,0.0,0.0,0.0,-0.0786,-0.1178,-0.1257,-0.1296,-0.1296,-0.1296,-0.0431,0.1564,0.0,0.0,0.0,0.0,0.0,0.0,0.0,0.0,0.0,0.0,0.0,0.0,0.0,0.0,0.0,0.0,0.0,0.0,0.0,0.0,0.0,0.0,0.0,0.0,0.0,0.0,0.0,0.0,0.0,0.0,0.0,0.0,0.0,0.0,0.0,0.0,0.0,0.0,0.0,0.0,0.0,0.0,0.0,0.0,0.0,0.0,0.0,0.0,0.0,0.0,0.0,0.0,0.0,0.0,0.0,0.0,0.0,0.0,0.0,0.0,0.0,0.0,0.0,0.0,0.0,0.0,0.0,0.0,0.0,0.0,0.0,0.0,0.0,0.0,0.0,0.0,0.0,0.0,0.0,0.0,0.0,0.0,0.0,0.0,0.0,0.0,0.0,0.0,0.0,0.0,0.0,0.0,0.0,0.0,0.0,0.0,0.0,0.0,0.0,0.0,0.0,0.0,0.0,-0.0776,-0.0939,-0.1265,-0.1292,-0.1281,-0.1281,-0.1306,-0.0392,0.176,0.0744,0.0,0.0,0.0,0.0,0.0,0.0,0.0,0.0,0.0,0.0,0.0,0.0,0.0,0.0,0.0,0.0,0.0,0.0,0.0,0.0,0.0,0.0,0.0,0.0,0.0,0.0,0.0,0.0,0.0,0.0,0.0,0.0,0.0,0.0,0.0,0.0,0.0,0.0,0.0,0.0,0.0,0.0,0.0,0.0,0.0,0.0,0.0,0.0,0.0,0.0,0.0,0.0,0.0,0.0,0.0,0.0,0.0,0.0,0.0,0.0,0.0,0.0,0.0,0.0,0.0,0.0,0.0,0.0,0.0,0.0,0.0,0.0,0.0,0.0,0.0,0.0,0.0,0.0,0.0,0.0,0.0,0.0,0.0,0.0,0.0,0.0,0.0,0.0,0.0,0.0,0.0,0.0,0.0,0.0,0.0,0.0,0.0,0.0,0.0,0.0,0.0,0.0,-0.1011,-0.1137,-0.1263,-0.1286,-0.1313,-0.1313,-0.1286,-0.0395,0.1735,0.1256,0.0,0.0,0.0,0.0,0.0,0.0,0.0,0.0,0.0,0.0,0.0,0.0,0.0,0.0,0.0,0.0,0.0,0.0,0.0,0.0,0.0,0.0,0.0,0.0,0.0,0.0,0.0,0.0,0.0,0.0,0.0,0.0,0.0,0.0,0.0,0.0,0.0,0.0,0.0,0.0,0.0,0.0,0.0,0.0,0.0,0.0,0.0,0.0,0.0,0.0,0.0,0.0,0.0,0.0,0.0,0.0,0.0,0.0,0.0,0.0,0.0,0.0,0.0,0.0,0.0,0.0,0.0,0.0,0.0,0.0,0.0,0.0,0.0,0.0,0.0,0.0,0.0,0.0,0.0,0.0,0.0,0.0,0.0,0.0,0.0,0.0,0.0,0.0,0.0,0.0,0.0,0.0,0.0,0.0,0.0,0.0,0.0,0.0,0.0,0.0,0.0,0.0,-0.1053,-0.1263,-0.1305,-0.1304,-0.1303,-0.1303,-0.1317,-0.0405,0.1657,0.182,0.0,0.0,0.0,0.0,0.0,0.0,0.0,0.0,0.0,0.0,0.0,0.0,0.0,0.0,0.0,0.0,0.0,0.0,0.0,0.0,0.0,0.0,0.0,0.0,0.0,0.0,0.0,0.0,0.0,0.0,0.0,0.0,0.0,0.0,0.0,0.0,0.0,0.0,0.0,0.0,0.0,0.0,0.0,0.0,0.0,0.0,0.0,0.0,0.0,0.0,0.0,0.0,0.0,0.0,0.0,0.0,0.0,0.0,0.0,0.0,0.0,0.0,0.0,0.0,0.0,0.0,0.0,0.0,0.0,0.0,0.0,0.0,0.0,0.0,0.0,0.0,0.0,0.0,0.0,0.0,0.0,0.0,0.0,0.0,0.0,0.0,0.0,0.0,0.0,0.0,0.0,0.0,0.0,0.0,0.0,0.0,0.0,0.0,0.0,0.0,0.0,0.0,-0.0964,-0.1227,-0.1358,-0.1342,-0.1374,-0.1374,-0.1305,-0.0619,0.0933,0.0,0.0,0.0,0.0,0.0,0.0,0.0,0.0,0.0,0.0,0.0,0.0,0.0,0.0,0.0,0.0,0.0,0.0,0.0,0.0,0.0,0.0,0.0,0.0,0.0,0.0,0.0,0.0,0.0,0.0,0.0,0.0,0.0,0.0,0.0,0.0,0.0,0.0,0.0,0.0,0.0,0.0,0.0,0.0,0.0,0.0,0.0,0.0,0.0,0.0,0.0,0.0,0.0,0.0,0.0,0.0,0.0,0.0,0.0,0.0,0.0,0.0,0.0,0.0,0.0,0.0,0.0,0.0,0.0,0.0,0.0,0.0,0.0,0.0,0.0,0.0,0.0,0.0,0.0,0.0,0.0,0.0,0.0,0.0,0.0,0.0,0.0,0.0,0.0,0.0,0.0,0.0,0.0,0.0,0.0,0.0,0.0,0.0,0.0,0.0,0.0,0.0,-0.0582,-0.0987,-0.1256,-0.1391,-0.1416,-0.1404,-0.1404,-0.1378,-0.0802,0.0498,0.0,0.0,0.0,0.0,0.0,0.0,0.0,0.0,0.0,0.0,0.0,0.0,0.0,0.0,0.0,0.0,0.0,0.0,0.0,0.0,0.0,0.0,0.0,0.0,0.0,0.0,0.0,0.0,0.0,0.0,0.0,0.0,0.0,0.0,0.0,0.0,0.0,0.0,0.0,0.0,0.0,0.0,0.0,0.0,0.0,0.0,0.0,0.0,0.0,0.0,0.0,0.0,0.0,0.0,0.0,0.0,0.0,0.0,0.0,0.0,0.0,0.0,0.0,0.0,0.0,0.0,0.0,0.0,0.0,0.0,0.0,0.0,0.0,0.0,0.0,0.0,0.0,0.0,0.0,0.0,0.0,0.0,0.0,0.0,0.0,0.0,0.0,0.0,0.0,0.0,0.0,0.0,0.0,0.0,0.0,0.0,0.0,0.0,0.0,0.0,0.0,0.0,-0.0718,-0.1121,-0.1391,-0.1391,-0.1391,-0.1391,-0.1391,-0.1364,-0.0825,0.0,0.0,0.0,0.0,0.0,0.0,0.0,0.0,0.0,0.0,0.0,0.0,0.0,0.0,0.0,0.0,0.0,0.0,0.0,0.0,0.0,0.0,0.0,0.0,0.0,0.0,0.0,0.0,0.0,0.0,0.0,0.0,0.0,0.0,0.0,0.0,0.0,0.0,0.0,0.0,0.0,0.0,0.0,0.0,0.0,0.0,0.0,0.0,0.0,0.0,0.0,0.0,0.0,0.0,0.0,0.0,0.0,0.0,0.0,0.0,0.0,0.0,0.0,0.0,0.0,0.0,0.0,0.0,0.0,0.0,0.0,0.0,0.0,0.0,0.0,0.0,0.0,0.0,0.0,0.0,0.0,0.0,0.0,0.0,0.0,0.0,0.0,0.0,0.0,0.0,0.0,0.0,0.0,0.0,0.0,0.0,0.0,0.0,0.0,0.0,0.0,0.0,0.0,-0.0628,-0.1121,-0.1211,-0.0762,-0.0673,-0.0673,-0.0673,-0.0223,0.0221,0.0608,0.0,0.0,0.0,0.0,0.0,0.0,0.0,0.0,0.0,0.0,0.0,0.0,0.0,0.0,0.0,0.0,0.0,0.0,0.0,0.0,0.0,0.0,0.0,0.0,0.0,0.0,0.0,0.0,0.0,0.0,0.0,0.0,0.0,0.0,0.0,0.0,0.0,0.0,0.0,0.0,0.0,0.0,0.0,0.0,0.0,0.0,0.0,0.0,0.0,0.0,0.0,0.0,0.0,0.0,0.0,0.0,0.0,0.0,0.0,0.0,0.0,0.0,0.0,0.0,0.0,0.0,0.0,0.0,0.0,0.0,0.0,0.0,0.0,0.0,0.0,0.0,0.0,0.0,0.0,0.0,0.0,0.0,0.0,0.0,0.0,0.0,0.0,0.0,0.0,0.0,0.0,0.0,0.0,0.0,0.0,0.0,0.0,0.0,0.0,0.0,0.0,0.0,-0.0134,-0.0628,-0.0852,-0.0448,-0.0134,0.0045,0.0045,0.0448,0.0758,0.0836,0.0,0.0,0.0,0.0,0.0,0.0,0.0,0.0,0.0,0.0,0.0,0.0,0.0,0.0,0.0,0.0,0.0,0.0,0.0,0.0,0.0,0.0,0.0,0.0,0.0,0.0,0.0,0.0,0.0,0.0,0.0,0.0,0.0,0.0,0.0,0.0,0.0,0.0,0.0,0.0,0.0,0.0,0.0,0.0,0.0,0.0,0.0,0.0,0.0,0.0,0.0,0.0,0.0,0.0,0.0,0.0,0.0,0.0,0.0,0.0,0.0,0.0,0.0,0.0,0.0,0.0,0.0,0.0,0.0,0.0,0.0,0.0,0.0,0.0,0.0,0.0,0.0,0.0,0.0,0.0,0.0,0.0,0.0,0.0,0.0,0.0,0.0,0.0,0.0,0.0,0.0,0.0,0.0,0.0,0.0,0.0,0.0,0.0,0.0,0.0,0.0,0.0,0.0671,0.0179,-0.0269,-0.0224,0.0403,0.0807,0.0807,0.0852,0.0987,0.1211,0.0,0.0,0.0,0.0,0.0,0.0,0.0,0.0,0.0,0.0,0.0,0.0,0.0,0.0,0.0,0.0,0.0,0.0,0.0,0.0,0.0,0.0,0.0,0.0,0.0,0.0,0.0,0.0,0.0,0.0,0.0,0.0,0.0,0.0,0.0,0.0,0.0,0.0,0.0,0.0,0.0,0.0,0.0,0.0,0.0,0.0,0.0,0.0,0.0,0.0,0.0,0.0,0.0,0.0,0.0,0.0,0.0,0.0,0.0,0.0,0.3893,0.4146,0.0,0.0,0.0,0.0,0.0,0.0,0.0,0.0,0.0,0.0,0.0,0.0,0.0,0.0,0.0,0.0,0.0,0.0,0.0,0.0,0.0,0.0,0.0,0.0,0.0,0.0,0.0,0.0,0.0,0.0,0.0,0.0,0.0,0.0,0.0,0.0,0.0,0.0,0.0,0.0,0.1522,0.0941,0.0673,0.1256,0.148,0.157,0.157,0.2109,0.2378,0.2194,0.2989,0.0,0.0,0.0,0.0,0.0,0.0,0.0,0.0,0.0,0.0,0.0,0.0,0.0,0.0,0.0,0.0,0.0,0.0,0.0,0.0,0.0,0.0,0.0,0.0,0.0,0.0,0.0,0.0,0.0,0.0,0.0,0.0,0.0,0.0,0.0,0.0,0.0,0.0,0.0,0.0,0.0,0.0,0.0,0.0,0.0,0.0,0.0,0.0,0.0,0.0,0.0,0.0,0.0,0.0,0.0,0.0,0.0,0.0,0.0,0.3604,0.3806,0.0,0.0,0.0,0.0,0.0,0.0,0.0,0.0,0.0,0.0,0.0,0.0,0.0,0.0,0.0,0.0,0.0,0.0,0.0,0.0,0.0,0.0,0.0,0.0,0.0,0.0,0.0,0.0,0.0,0.0,0.0,0.0,0.0,0.0,0.0,0.0,0.0,0.0,0.0,0.0,0.2416,0.1747,0.139,0.1749,0.2109,0.2334,0.2334,0.2694,0.2829,0.269,0.3274,0.0,0.0,0.0,0.0,0.0,0.0,0.0,0.0,0.0,0.0,0.0,0.0,0.0,0.0,0.0,0.0,0.0,0.0,0.0,0.0,0.0,0.0,0.0,0.0,0.0,0.0,0.0,0.0,0.0,0.0,0.0,0.0,0.0,0.0,0.0,0.0,0.0,0.0,0.0,0.0,0.0,0.0,0.0,0.0,0.0,0.0,0.0,0.0,0.0,0.0,0.0,0.0,0.0,0.3735,0.3742,0.3742,0.3742,0.3272,0.2547,0.3359,0.3428,0.298,0.4072,0.0,0.0,0.0,0.0,0.0,0.0,0.0,0.0,0.0,0.0,0.0,0.0,0.0,0.0,0.0,0.0,0.0,0.0,0.0,0.0,0.0,0.0,0.2102,0.3388,0.2462,0.1159,0.0789,0.0,0.0,0.0,0.0,0.0,0.0,0.0,0.0,0.0,0.0,0.0,0.3175,0.2509,0.1974,0.1974,0.2558,0.292,0.3008,0.3008,0.3053,0.3142,0.3497,0.3765,0.0,0.0,0.0,0.0,0.0,0.0,0.0,0.0,0.0,0.0,0.0,0.0,0.0,0.0,0.0,0.0,0.0,0.0,0.0,0.0,0.0,0.0,0.0,0.0,0.0,0.0,0.0,0.0,0.0,0.0,0.0,0.0,0.7744,0.7468,0.0,0.0,0.0,0.0,0.0,0.0,0.0,0.0,0.0,0.0,0.0,0.0,0.0,0.3992,0.3909,0.3598,0.3459,0.3459,0.3175,0.3028,0.3028,0.3028,0.2938,0.2849,0.2982,0.0,0.2558,0.34,0.0,0.0,0.0,0.0,0.0,0.0,0.0,0.0,0.0,0.0,0.0,0.0,0.0,0.0,0.0,0.0,0.0,0.0,0.0,0.0,0.0,0.0,0.0938,0.112,0.0986,0.0762,0.0715,0.1699,0.2686,0.2956,0.2911,0.3044,0.0,0.0,0.0,0.0,0.0,0.0,0.3585,0.3096,0.2739,0.2739,0.2829,0.3053,0.3454,0.3497,0.3676,0.4076,0.4166,0.4389,0.4788,0.4774,0.0,0.0,0.0,0.0,0.0,0.0,0.0,0.0,0.0,0.0,0.0,0.0,0.0,0.0,0.0,0.0,0.0,0.0,0.0,0.0,0.0,0.0,0.0,0.0,0.0,0.0,0.0,0.0,0.0,0.8675,0.7914,0.7011,0.6432,0.6248,0.0,0.0,0.0,0.0,0.0,0.0,0.0,0.0,0.0,0.4872,0.4658,0.44,0.414,0.3957,0.3888,0.3888,0.3748,0.3676,0.3676,0.3676,0.3676,0.3676,0.3676,0.3592,0.3483,0.3834,0.4485,0.5264,0.0,0.0,0.0,0.0,0.6304,0.6134,0.5786,0.5559,0.5424,0.5514,0.0,0.0,0.0,0.0,0.0,0.0,0.0,0.505,0.4561,0.3487,0.2549,0.2686,0.2194,0.1881,0.2597,0.2823,0.2871,0.2688,0.291,0.3355,0.4249,0.4518,0.0,0.0,0.0,0.3942,0.3987,0.3587,0.3409,0.3676,0.3676,0.3765,0.3987,0.3987,0.4076,0.43,0.43,0.4389,0.461,0.4877,0.5078,0.0,0.0,0.0,0.0,0.0,0.0,0.0,0.0,0.0,0.0,0.0,0.0,0.0,0.0,0.0,0.0,0.0,0.0,0.0,0.0,0.0,0.0,0.0,0.0,0.0,0.0,0.0,0.0,0.8521,0.7927,0.6937,0.6251,0.6236,0.0,0.0,0.0,0.0,0.0,0.0,0.5849,0.5722,0.5455,0.5008,0.4877,0.4654,0.43,0.43,0.43,0.43,0.43,0.43,0.43,0.43,0.43,0.43,0.43,0.4387,0.4478,0.4342,0.4701,0.5327,0.5772,0.608,0.6343,0.6343,0.6213,0.6038,0.5641,0.5327,0.5191,0.5191,0.5369,0.5638,0.5994,0.0,0.0,0.0,0.0,0.5816,0.5416,0.465,0.4067,0.4253,0.3626,0.3224,0.4119,0.3853,0.3363,0.3045,0.3133,0.3667,0.4786,0.4699,0.0,0.4966,0.4387,0.4032,0.4253,0.3987,0.39,0.4255,0.43,0.4342,0.4478,0.4476,0.452,0.4656,0.4656,0.4656,0.4656,0.5013,0.5191,0.5191,0.0,0.0,0.0,0.0,0.0,0.0,0.0,0.0,0.0,0.0,0.0,0.0,0.0,0.0,0.0,0.0,0.0,0.0,0.0,0.0,0.0,0.0,0.0,0.0,0.0,0.0,0.0,0.0,0.0,0.8547,0.754,0.0,0.0,0.0,0.0,0.5966,0.578,0.5716,0.5725,0.5272,0.5048,0.501,0.4565,0.4344,0.43,0.43,0.43,0.43,0.43,0.43,0.43,0.43,0.43,0.43,0.43,0.4565,0.4921,0.4476,0.4565,0.5055,0.5327,0.5727,0.6127,0.6127,0.6127,0.6038,0.5777,0.5688,0.5644,0.5644,0.5863,0.6083,0.6083,0.6257,0.0,0.0,0.5772,0.5371,0.5099,0.4654,0.43,0.43,0.4253,0.4208,0.43,0.461,0.4743,0.4297,0.3853,0.3898,0.4832,0.0,0.4964,0.501,0.4966,0.4788,0.4342,0.43,0.4253,0.43,0.43,0.4476,0.4921,0.4966,0.5146,0.5599,0.5644,0.5644,0.5644,0.5644,0.5644,0.5644,0.5638,0.0,0.0,0.0,0.0,0.0,0.0,0.0,0.0,0.0,0.0,0.0,0.0,0.0,0.0,0.0,0.0,0.0,0.0,0.0,0.0,0.0,0.0,0.0,0.0,0.0,0.0,0.0,0.0,0.9032,0.7814,0.0,0.8098,0.7268,0.6618,0.6486,0.6012,0.5688,0.5688,0.5552,0.5463,0.5463,0.5282,0.5225,0.5337,0.534,0.5375,0.5447,0.5447,0.5447,0.5447,0.5447,0.5447,0.5447,0.5447,0.5539,0.5678,0.5539,0.5456,0.5463,0.5552,0.5688,0.5863,0.5863,0.5911,0.5977,0.5841,0.5893,0.5961,0.5961,0.6005,0.6097,0.6097,0.6143,0.6187,0.6143,0.5958,0.582,0.5724,0.5586,0.5447,0.5447,0.5215,0.5078,0.54,0.5122,0.4939,0.5354,0.4922,0.461,0.4921,0.4842,0.4797,0.5067,0.4942,0.4847,0.4983,0.5032,0.5122,0.5447,0.5447,0.5509,0.5572,0.5564,0.5628,0.5694,0.5688,0.5688,0.5688,0.5688,0.5688,0.5688,0.5416,0.5395,0.0,0.0,0.0,0.0,0.0,0.0,0.0,0.0,0.0,0.0,0.0,0.0,0.0,0.0,0.0,0.0,0.0,0.0,0.0,0.0,0.0,0.0,0.0,0.0,0.0,0.0,0.8778,0.9146,0.7858,0.7196,0.7935,0.7034,0.6432,0.6432,0.5994,0.5688,0.5688,0.5726,0.5745,0.5745,0.5831,0.5888,0.5964,0.5964,0.6005,0.6086,0.6086,0.6086,0.6086,0.6086,0.6086,0.6086,0.6086,0.6086,0.6086,0.6086,0.5994,0.5852,0.5852,0.5852,0.5852,0.5852,0.5899,0.5964,0.5964,0.6018,0.6086,0.6086,0.6086,0.6086,0.6086,0.6086,0.6086,0.6086,0.6086,0.6086,0.6086,0.6086,0.6086,0.6086,0.585,0.5708,0.6039,0.5613,0.5377,0.5992,0.5586,0.5163,0.5345,0.5177,0.5132,0.5454,0.5331,0.5284,0.5613,0.5613,0.5755,0.6086,0.6086,0.6053,0.5972,0.6056,0.6004,0.5798,0.5837,0.5863,0.5691,0.5777,0.5822,0.5822,0.5549,0.546,0.5688,0.0,0.0,0.0,0.0,0.0,0.0,0.0,0.0,0.0,0.0,0.0,0.0,0.0,0.0,0.0,0.0,0.0,0.0,0.0,0.0,0.0,0.0,0.0,1.0263,0.9639,0.9157,0.8956,0.7746,0.6908,0.6868,0.6213,0.5777,0.5738,0.5738,0.5741,0.5699,0.585,0.5909,0.5909,0.6024,0.6086,0.6092,0.6092,0.6092,0.6097,0.6097,0.6097,0.6097,0.6097,0.6097,0.6097,0.6097,0.6097,0.6097,0.6097,0.6097,0.6094,0.6089,0.6086,0.6086,0.6086,0.6089,0.6092,0.6094,0.6097,0.6097,0.6097,0.6097,0.6097,0.6097,0.6097,0.6097,0.6097,0.6097,0.6097,0.6097,0.6097,0.6097,0.6097,0.6097,0.6097,0.6097,0.6097,0.6097,0.6097,0.5766,0.5574,0.6039,0.6089,0.6092,0.6092,0.6094,0.0,0.6097,0.6097,0.6097,0.6097,0.6097,0.6094,0.6092,0.6325,0.6315,0.5915,0.6139,0.613,0.5744,0.5955,0.6083,0.6083,0.6083,0.5952,0.5688,0.0,0.0,0.0,0.0,0.0,0.0,0.0,0.0,0.0,0.0,0.0,0.0,0.0,0.0,0.0,0.0,0.0,0.0,0.0,0.0,0.0,0.0,1.0567,1.0512,1.0077,0.9755,0.9719,0.9375,0.889,0.836,0.8145,0.7624,0.6705,0.6623,0.6441,0.6029,0.6018,0.6034,0.6034,0.607,0.6127,0.6268,0.6268,0.626,0.6339,0.6339,0.6339,0.6339,0.6339,0.6339,0.6339,0.6339,0.6339,0.6339,0.6339,0.6339,0.6323,0.6151,0.6086,0.6086,0.6086,0.6143,0.623,0.6312,0.6339,0.6339,0.6339,0.6339,0.6339,0.6339,0.6339,0.6339,0.6339,0.6339,0.6339,0.6339,0.6339,0.6339,0.6339,0.6339,0.6339,0.6339,0.6339,0.6339,0.6339,0.6191,0.6141,0.6116,0.6159,0.6268,0.6268,0.6287,0.6339,0.6339,0.6339,0.6339,0.6339,0.6339,0.6306,0.6225,0.6316,0.6261,0.6043,0.6045,0.5982,0.5858,0.5821,0.5822,0.5822,0.5822,0.5777,0.0,0.0,0.0,0.0,0.0,0.0,0.0,0.0,0.0,0.0,0.0,0.0,0.0,0.0,0.0,0.0,0.0,0.0,0.0,0.0,0.0,0.0,1.0636,1.0367,1.0465,1.0183,0.9907,0.9598,0.9631,0.9371,0.8658,0.8364,0.7905,0.7171,0.6811,0.6473,0.6128,0.6135,0.6162,0.6162,0.6208,0.6265,0.6339,0.6339,0.6372,0.6387,0.6387,0.6387,0.6387,0.6387,0.6437,0.6539,0.6437,0.6537,0.6736,0.6487,0.6487,0.6526,0.0,0.0,0.0,0.0,0.6279,0.635,0.6515,0.6589,0.6589,0.6589,0.6589,0.6539,0.6437,0.6387,0.6387,0.6387,0.6387,0.6387,0.6387,0.6387,0.6387,0.6387,0.6387,0.6387,0.6387,0.6387,0.6387,0.6387,0.6387,0.0,0.6257,0.6293,0.6339,0.6339,0.6393,0.6387,0.6387,0.6387,0.6387,0.6387,0.6387,0.636,0.6344,0.644,0.0,0.0,0.0,0.6197,0.6093,0.5927,0.0,0.0,0.0,0.5822,0.5688,0.5688,0.0,0.0,0.457,0.4387,0.0,0.0,0.0,0.0,0.0,0.0,0.0,0.0,0.0,0.0,0.0,0.0,0.0,0.0,0.0,0.0,1.0324,1.0132,1.0327,1.0189,0.9842,0.9178,0.924,0.9121,0.8526,0.7973,0.7644,0.7567,0.6907,0.649,0.6409,0.6421,0.0,0.0,0.0,0.6387,0.6387,0.6387,0.6437,0.6437,0.6437,0.6437,0.6487,0.6487,0.6589,0.6795,0.6539,0.6686,0.7089,0.6587,0.6539,0.6742,0.6539,0.6437,0.6387,0.6437,0.6437,0.6487,0.6692,0.0,0.0,0.6742,0.6742,0.6692,0.6487,0.6387,0.6387,0.6387,0.6387,0.6387,0.6387,0.6387,0.6387,0.6387,0.6387,0.6387,0.6387,0.6387,0.6387,0.6387,0.6387,0.6387,0.6387,0.6387,0.6387,0.6387,0.6387,0.6387,0.6387,0.6387,0.6387,0.6387,0.6387,0.0,0.6387,0.6639,0.6647,0.6344,0.6514,0.6539,0.6288,0.6121,0.6053,0.6038,0.6038,0.5952,0.5688,0.5688,0.5688,0.5688,0.4837,0.4343,0.0,0.0,0.0,0.0,0.0,0.0,0.0,0.0,0.0,0.0,0.0,0.0,0.0,0.0,0.0,1.1151,1.0772,1.0516,1.0554,1.0526,1.0406,1.0315,1.0301,1.0283,1.014,1.0038,0.975,0.9283,0.9104,0.8779,0.828,0.7674,0.7344,0.7344,0.6722,0.6387,0.6387,0.6387,0.6489,0.6742,0.6742,0.0,0.7036,0.7036,0.6939,0.6795,0.6742,0.6639,0.6537,0.6437,0.6437,0.6487,0.6642,0.6589,0.6437,0.6639,0.6742,0.6692,0.6539,0.6639,0.6742,0.6539,0.6487,0.6487,0.6437,0.6387,0.0,0.6387,0.6387,0.6387,0.6387,0.6387,0.6387,0.6387,0.6387,0.6387,0.6387,0.6387,0.6387,0.6387,0.6387,0.6387,0.6387,0.6387,0.6387,0.6387,0.6387,0.6387,0.6387,0.6387,0.6387,0.6387,0.6387,0.6387,0.6387,0.6437,0.6429,0.6404,0.6366,0.6252,0.6007,0.5974,0.587,0.5777,0.5777,0.5733,0.5688,0.5688,0.5688,0.5688,0.5508,0.5408,0.0,0.0,0.0,0.0,0.0,0.0,0.0,0.0,0.0,0.0,0.0,1.2037,0.0,0.0,1.1455,1.1385,1.1129,1.1117,1.1455,1.1517,1.129,1.0677,1.0669,1.0876,1.1111,1.0635,1.0398,1.0633,1.0012,0.9661,0.9592,0.9197,0.9,0.9,0.8601,0.8403,0.8403,0.8403,0.8456,0.8609,0.8609,0.8414,0.8024,0.8559,0.812,0.7039,0.7431,0.7531,0.7431,0.768,0.7232,0.6487,0.7141,0.6989,0.6437,0.6539,0.6589,0.6589,0.6589,0.6692,0.6792,0.6642,0.6589,0.6589,0.6437,0.6387,0.6387,0.6387,0.6387,0.6387,0.6387,0.6387,0.6387,0.6387,0.6387,0.6387,0.6387,0.6387,0.6387,0.6387,0.6387,0.6387,0.6387,0.6387,0.6387,0.6387,0.6387,0.6387,0.6387,0.6387,0.6387,0.6387,0.6387,0.6387,0.6387,0.6387,0.6387,0.6387,0.6331,0.6262,0.6092,0.5966,0.5877,0.582,0.5718,0.5688,0.5688,0.5688,0.5688,0.5688,0.5688,0.5688,0.0,0.0,0.0,0.0,0.0,0.0,0.0,0.0,1.2637,1.2221,1.2318,1.2237,1.1641,1.1831,1.1985,1.1714,1.1677,1.188,1.2389,1.2463,1.211,1.1133,1.1181,1.1431,1.1866,1.1099,1.0895,1.1765,1.0832,1.0386,1.0814,1.0716,1.0614,1.0614,1.0467,1.0418,1.0418,1.0418,1.0418,1.0471,1.0373,0.9887,0.9152,0.9887,0.9251,0.7633,0.8219,0.8471,0.8528,0.892,0.8223,0.6933,0.7836,0.7637,0.6833,0.6587,0.6487,0.6587,0.6692,0.6792,0.6842,0.6742,0.6742,0.6692,0.6487,0.6387,0.6387,0.6387,0.6387,0.6387,0.6387,0.6387,0.6437,0.6587,0.6634,0.6684,0.6833,0.6883,0.6883,0.6883,0.6883,0.6883,0.6883,0.6883,0.6783,0.6437,0.6387,0.6387,0.6387,0.6387,0.6387,0.6387,0.6387,0.6387,0.6387,0.6387,0.6387,0.6387,0.635,0.629,0.632,0.6078,0.5953,0.5904,0.5812,0.5712,0.5688,0.5688,0.5688,0.5688,0.5688,0.5688,1.313,1.3003,1.2598,1.2299,1.1997,1.1613,0.0,0.0,1.1492,1.1492,1.1543,1.1698,1.2172,1.2303,1.242,1.2598,1.2635,1.2694,1.2716,1.277,1.2711,1.2587,1.256,1.2624,1.2678,1.2549,1.2516,1.2662,1.2516,1.2467,1.2511,1.1863,1.1463,1.1463,1.0765,1.0418,1.0418,1.0418,1.052,1.073,1.0288,1.0092,1.0194,0.9862,0.9422,0.897,0.8821,0.8772,0.8775,0.8821,0.8722,0.8524,0.8676,0.8627,0.8375,0.7188,0.6889,0.7039,0.6587,0.6736,0.7089,0.6587,0.6437,0.6437,0.6387,0.6387,0.6387,0.6387,0.6387,0.6387,0.6387,0.6387,0.6587,0.7282,0.7481,0.768,0.8375,0.8524,0.8524,0.8524,0.8524,0.8524,0.8524,0.8524,0.8028,0.6634,0.6387,0.6387,0.6387,0.6387,0.6387,0.6387,0.6387,0.6387,0.6387,0.6387,0.6387,0.6387,0.6376,0.6374,0.6322,0.6289,0.6124,0.5907,0.589,0.5833,0.5688,0.5688,0.5688,0.5688,0.5688,0.5688,1.2203,1.244,0.0,0.0,1.2253,1.2452,1.2128,1.2308,1.251,1.2273,1.2415,1.2638,1.2635,1.2848,1.3073,0.0,1.3201,1.334,1.363,1.3673,1.3673,1.3673,1.3673,1.3528,1.3249,1.2958,1.305,1.3624,1.3389,1.334,1.3678,1.3372,1.3173,1.3173,1.2872,1.2673,1.2673,1.2673,1.2581,1.2355,1.216,1.1814,1.1321,1.1722,1.138,1.0587,1.0145,0.9706,0.9316,1.0301,1.0293,0.9792,1.0239,1.0141,0.9645,0.8768,0.852,0.857,0.8319,0.8219,0.8071,0.7879,0.7776,0.7822,0.7779,0.8216,0.8651,0.8365,0.851,0.8749,0.8749,0.8749,0.8799,0.9148,0.9243,0.9345,0.9641,0.9743,0.9743,0.9743,0.9743,0.9743,0.9743,0.9743,0.9493,0.8848,0.7819,0.7083,0.7083,0.6684,0.6387,0.6387,0.6387,0.6387,0.6387,0.6387,0.6387,0.6387,0.6387,0.6365,0.6369,0.6304,0.627,0.6119,0.5975,0.588,0.5833,0.5721,0.5688,0.5688,0.5688,0.5688,1.2344,0.0,0.0,1.2483,1.2692,1.298,1.3,1.3163,1.3249,1.3055,1.3249,1.3443,1.3244,1.3485,1.3732,1.3732,1.3732,1.3871,1.425,1.4298,1.4298,1.4298,1.4298,1.4154,1.3775,1.3389,1.3528,1.425,1.3919,1.3871,1.4298,1.4298,1.4298,1.4298,1.4298,1.4298,1.4298,1.4298,1.4106,1.3732,1.3588,1.3141,1.2446,1.3044,1.2802,1.1912,1.1521,1.1033,1.0592,1.1727,1.177,1.1112,1.1712,1.156,1.1014,1.0783,1.0342,0.9899,0.985,0.96,0.9349,0.9258,0.9255,0.9247,0.9258,0.9788,1.032,0.994,1.0083,1.0418,1.0418,1.0418,1.0467,1.0667,1.0716,1.0814,1.1014,1.1063,1.1063,1.1063,1.1063,1.1063,1.1063,1.1063,1.1063,1.1063,0.9694,0.8616,0.8414,0.7624,0.708,0.708,0.6783,0.6637,0.6637,0.6637,0.6587,0.6539,0.6489,0.6487,0.6387,0.6358,0.6301,0.6317,0.6094,0.5969,0.5904,0.582,0.5721,0.5688,0.5688,0.5688,1.4025,0.0,1.29,1.3343,1.2947,1.2499,1.2743,1.2807,1.2958,1.3394,1.3491,1.363,1.4154,1.425,1.4298,1.4298,1.4298,1.4298,1.4298,1.4298,1.4298,1.4298,1.4298,1.4298,0.0,1.425,1.425,1.4298,1.4298,1.4298,1.4298,1.4298,1.4298,1.4298,1.4298,1.4298,1.4298,1.4298,1.4298,1.425,1.3732,1.3491,1.3443,1.3007,1.2813,1.2764,1.2764,1.2716,1.271,1.2764,1.2764,1.271,1.2764,1.2764,1.2759,1.3195,1.2257,1.073,1.0471,1.0525,1.0681,1.0422,1.0369,1.0369,1.0369,1.0369,1.0418,1.0369,1.0369,1.0418,1.0418,1.0418,1.0618,1.1365,1.156,1.176,1.2559,1.271,1.271,1.271,1.271,1.271,1.271,1.271,1.271,1.271,1.2009,1.1214,1.0418,0.9391,0.8707,0.8707,0.7776,0.7188,0.7188,0.7188,0.7089,0.6795,0.6795,0.6692,0.6387,0.6384,0.638,0.632,0.6311,0.614,0.5904,0.5899,0.5841,0.5688,0.5688,0.5688,1.3572,0.0,1.3744,1.3547,1.3561,1.3659,1.3746,1.3817,1.3817,1.401,1.401,1.4106,1.425,1.4298,1.4298,1.4298,1.4298,1.4298,1.4298,1.4298,1.4298,1.4298,1.4298,0.0,0.0,0.0,0.0,1.4298,1.4298,1.4298,1.4298,1.4298,1.4298,1.4298,1.4298,1.4298,1.4298,1.4298,1.4106,1.3775,1.3588,1.3491,1.3491,1.3678,1.3582,1.3249,1.3249,1.3249,1.3249,1.3249,1.3485,1.3817,1.3817,1.3817,1.3817,1.3962,1.3667,1.3076,1.2592,1.2296,1.2047,1.2009,1.195,1.1945,1.1955,1.2441,1.292,1.2538,1.2732,1.2969,1.2969,1.2969,1.3065,1.3318,1.3372,1.3468,1.3721,1.3817,1.3817,1.3817,1.3817,1.3817,1.3817,1.3817,1.3817,1.3817,1.2543,1.1312,1.0516,1.0075,0.9878,0.9878,0.9538,0.9049,0.8315,0.8266,0.7925,0.7138,0.7089,0.7039,0.6936,0.6936,0.726,0.7946,0.7225,0.7036,0.7408,0.6664,0.6143,0.5847,0.5847,0.5806,1.3779,1.3975,1.4202,1.3871,1.4064,1.4298,1.4298,1.4298,1.4298,1.4298,1.4298,1.4346,1.4442,1.4346,1.4346,1.4442,1.4346,1.4298,1.4298,1.4298,1.4298,1.4298,1.4298,1.4298,0.0,0.0,0.0,1.4298,1.4298,1.4298,1.4298,1.4298,1.4298,1.4298,1.4298,1.4298,1.4298,1.4298,1.4106,1.3775,1.3775,1.3775,1.3775,1.4154,1.4106,1.3775,1.3775,1.3775,1.3775,1.3775,1.3968,1.4298,1.4298,1.4298,1.4298,1.4298,1.4298,1.425,1.3919,1.357,1.327,1.3335,1.3329,1.327,1.3335,1.3769,1.425,1.3871,1.401,1.4298,1.4298,1.4298,1.4298,1.4298,1.4298,1.4298,1.4298,1.4298,1.4298,1.4298,1.4298,1.4298,1.4298,1.4298,1.4298,1.4298,1.3318,1.2387,1.1838,1.1448,1.1205,1.1205,1.0912,1.0422,0.9694,0.9641,0.93,0.8517,0.8124,0.7879,0.7776,0.7385,0.7726,0.8757,0.7684,0.7514,0.8324,0.7228,0.6555,0.6244,0.6199,0.6139,1.4572,1.449,1.4298,1.4298,1.4298,1.4298,1.4298,1.4298,1.4298,1.4298,1.4298,1.4394,0.0,0.0,1.4394,1.464,1.4496,1.4298,1.4298,1.4298,1.4298,0.0,0.0,0.0,0.0,0.0,0.0,1.4298,0.0,1.4298,1.4298,1.4298,1.4298,1.4298,1.4298,1.4298,1.4298,1.4298,1.4298,1.4298,1.4298,1.4298,1.4298,1.4298,1.4298,1.4298,1.4298,1.4298,1.4298,1.4298,1.4298,1.4298,1.4298,1.4298,1.4298,1.4298,1.4298,1.4298,1.4298,1.4298,1.4298,1.4298,1.4298,1.4298,1.4298,1.4298,1.4298,1.4298,1.4298,1.4298,1.4298,1.4298,1.4298,1.4298,1.4298,1.4298,1.4298,1.4298,1.4298,1.4298,1.4298,1.4298,1.4298,1.4298,1.4298,1.4298,1.4298,1.4298,1.4298,1.3414,1.278,1.278,1.195,1.1317,1.1268,1.1268,1.117,1.0828,0.985,0.916,0.8856,0.7925,0.7875,0.8806,0.7826,0.7763,0.8635,0.7624,0.7075,0.6897,0.6765,0.67,1.4424,1.4346,1.4298,1.4298,1.4298,1.4298,1.4298,1.4298,1.4298,1.4298,1.4442,1.464,0.0,0.0,0.0,1.4688,1.4496,0.0,1.4298,1.4298,0.0,1.4298,0.0,1.4298,1.4298,1.4298,0.0,0.0,1.4298,1.4298,1.4298,1.4298,1.4298,1.4298,1.4298,1.4298,1.4298,1.4298,1.4298,1.4298,1.4298,1.4298,1.4298,1.4298,1.4298,1.4298,1.4298,1.4298,1.4298,1.4298,1.4298,1.4298,1.4298,1.4298,1.4298,1.4298,1.4298,1.4298,1.4298,1.4298,1.4298,1.4298,1.4298,1.4298,1.4298,1.4298,1.4298,1.4298,1.4298,1.4298,1.4298,1.4298,1.4298,1.4298,1.4298,1.4298,1.4298,1.4298,1.4298,1.4298,1.4298,1.4298,1.4298,1.4298,1.4298,1.4298,1.4298,1.4298,1.4298,1.4052,1.3902,1.3902,1.3661,1.3173,1.2387,1.2339,1.195,1.117,1.0828,1.0293,0.9456,0.9895,0.9944,0.9406,0.911,0.8996,0.9053,0.798,0.7318,0.7033,0.6999,0.6928,1.4346,1.4298,1.4298,1.4298,1.4298,1.4298,1.4298,1.4394,1.4496,1.4496,1.4688,0.0,1.5022,1.4879,0.0,0.0,0.0,0.0,1.4298,1.4298,1.4298,0.0,1.4298,0.0,1.4298,1.4298,1.4298,0.0,1.4298,1.4298,1.4298,1.4298,1.4298,1.4298,1.4298,1.4298,1.4298,1.4298,1.4298,1.4298,1.4298,1.4298,1.4298,1.4298,1.4298,1.4298,1.4298,1.4298,1.4298,1.4298,1.4298,1.4298,1.4298,1.4298,1.4298,1.4298,1.4298,1.4298,1.4298,1.4298,1.4298,1.4298,1.4298,1.4298,1.4298,1.4298,1.4298,1.4298,1.4298,1.4298,1.4298,1.4298,1.4298,1.4298,1.4298,1.4298,1.4298,1.4298,1.4298,1.4298,1.4298,1.4298,1.4298,1.4298,1.4298,1.4298,1.4298,1.4298,1.4298,1.4298,1.4298,1.4298,1.4298,1.4052,1.3463,1.3414,1.3173,1.2587,1.2096,1.1609,1.0974,1.1121,1.1121,1.0974,1.0534,1.044,1.073,0.9213,0.8625,0.8867,0.7883,0.7619,1.4298,1.4298,1.4298,1.4298,1.4298,1.4298,1.4346,1.4544,1.4694,1.4742,0.0,1.522,1.5445,1.5118,1.4885,1.5083,0.0,1.4346,1.4298,1.4298,1.4298,1.4298,1.4298,1.4298,1.4298,1.4298,1.4298,1.4298,1.4298,1.4298,1.4298,1.4298,1.4298,1.4298,1.4298,1.4298,1.4298,1.4298,1.4298,1.4298,1.4298,1.4298,1.4298,1.4298,1.4298,1.4298,1.4298,1.4298,1.4298,1.4298,1.4298,1.4298,1.4298,1.4298,1.4298,1.4298,1.4298,1.4298,1.4298,1.4298,1.4298,1.4298,1.4298,1.4298,1.4298,1.4298,1.4298,1.4298,1.4298,1.4298,1.4298,1.4298,1.4298,1.4298,1.4298,1.4298,1.4298,1.4298,1.4298,1.4298,1.4298,1.4298,1.4298,1.4298,1.4298,1.4298,1.4298,1.4298,1.4298,1.4298,1.4298,1.4298,1.4298,1.4298,1.4298,1.4298,1.4298,1.4298,1.3414,1.2829,1.2732,1.1999,1.1901,1.2484,1.1755,1.1755,1.2484,1.0681,1.0293,1.1165,0.9154,0.875,1.4298,1.4298,1.4298,1.4298,1.4298,1.4346,1.4592,1.4688,0.0,0.0,1.522,1.5452,1.5493,1.5397,1.5309,1.5131,0.0,0.0,0.0,0.0,1.4298,0.0,0.0,0.0,0.0,1.4298,0.0,0.0,1.4298,1.4298,1.4298,1.4298,1.4298,1.4298,1.4298,1.4298,1.4298,1.4298,1.4298,1.4298,1.4298,1.4298,1.4298,1.4298,1.4298,1.4298,1.4298,1.4298,1.4298,1.4298,1.4298,1.4298,1.4298,1.4298,1.4298,1.4298,1.4298,1.4298,1.4298,1.4298,1.4298,1.4298,1.4298,1.4298,1.4298,1.4298,1.4298,1.4298,1.4298,1.4298,1.4298,1.4298,1.4298,1.4298,1.4298,1.4298,1.4298,1.4298,1.4298,1.4298,1.4298,1.4298,1.4298,1.4298,1.4298,1.4298,1.4298,1.4298,1.4298,1.4298,1.4298,1.4298,1.4298,1.4298,1.4298,1.4298,1.4298,1.4298,1.4148,1.3613,1.2732,1.3366,1.3028,1.1512,1.2096,1.2096,1.1463,1.1121,1.1028,1.117,1.0791,1.0728,1.4298,1.4298,1.4298,1.4298,1.4298,1.4394,1.464,0.0,0.0,0.0,1.5499,1.5642,1.5642,0.0,0.0,0.0,0.0,0.0,0.0,0.0,0.0,0.0,0.0,0.0,0.0,1.4298,1.4298,1.4298,1.4298,1.4298,1.4298,1.4298,1.4298,1.4298,1.4298,1.4298,1.4298,1.4298,1.4298,1.4298,1.4298,1.4298,1.4298,1.4298,1.4298,1.4298,1.4298,1.4298,1.4298,1.4298,1.4298,1.4298,1.4298,1.4298,1.4298,1.4298,1.4298,1.4298,1.4298,1.4298,1.4298,1.4298,1.4298,1.4298,1.4298,1.4298,1.4298,1.4298,1.4298,1.4298,1.4298,1.4298,1.4298,1.4298,1.4298,1.4298,1.4298,1.4298,1.4346,1.449,1.4496,1.4496,1.4496,1.464,1.4688,1.4544,1.464,1.4742,1.4742,1.4742,1.4592,1.4346,1.4298,1.4298,1.4298,1.4298,1.4298,1.4298,1.4298,1.4052,1.3565,1.4052,1.3806,1.2829,1.327,1.3318,1.2829,1.2242,1.229,1.278,1.1707,1.1463,1.428,1.4346,1.4394,1.4394,1.4394,1.449,1.4783,1.5022,0.0,0.0,1.5689,1.5784,1.5784,0.0,1.554,0.0,1.5166,0.0,0.0,0.0,0.0,0.0,0.0,0.0,0.0,1.4346,0.0,1.4298,1.4298,1.4298,1.4298,1.4298,1.4298,1.4298,1.4298,1.4298,1.4298,1.4298,1.4298,1.4298,1.4298,1.4298,1.4298,1.4298,1.4298,1.4298,1.4298,1.4298,1.4298,1.4298,1.4298,1.4298,1.4298,1.4298,1.4298,1.4298,1.4298,1.4298,1.4298,1.4298,1.4298,1.4298,1.4298,1.4298,1.4298,1.4298,1.4298,1.4298,1.4298,1.4298,1.4298,1.4298,1.4298,1.4394,1.4442,1.4496,1.4496,1.4496,1.4544,1.4742,1.479,1.479,1.479,1.4981,1.5035,1.4838,1.4981,1.5083,1.5083,1.5083,1.4933,1.4544,1.4496,1.4442,1.4394,1.4394,1.4346,1.4298,1.4298,1.4298,1.4298,1.4298,1.4298,1.4298,1.4298,1.4298,1.4298,1.3463,1.3463,1.425,1.2635,1.2296,1.4279,1.4496,1.464,1.464,1.464,1.4783,1.5302,0.0,0.0,1.573,1.5778,1.5784,1.5784,1.5784,1.573,1.554,0.0,1.5255,0.0,0.0,0.0,0.0,0.0,0.0,0.0,1.4538,1.4544,1.4298,1.4298,1.4298,1.4298,1.4298,1.4298,1.4298,1.4298,1.4298,1.4298,1.4298,1.4298,1.4298,1.4298,1.4298,1.4298,1.4298,1.4298,1.4298,1.4298,1.4298,1.4298,1.4298,1.4298,1.4298,1.4298,1.4298,1.4298,1.4298,1.4298,1.4298,1.4298,1.4298,1.4298,1.4298,1.4298,1.4298,1.4298,1.4298,1.4298,1.4298,1.4298,1.4298,1.4298,1.4298,1.4346,1.4592,1.4838,1.5035,1.5035,1.5035,1.5035,1.5083,1.5083,1.5083,1.5083,1.5083,1.5083,1.5083,1.5083,1.5083,1.5083,1.5083,1.5083,1.5035,1.5035,1.4933,1.4688,1.464,1.4544,1.4298,1.4298,1.4298,1.4298,1.4298,1.4298,1.4298,1.4298,1.4298,1.4298,1.4196,1.4196,1.4298,1.41,1.4052,1.4758,1.4838,1.4933,1.4933,1.4933,1.5029,1.5404,0.0,1.554,1.5778,1.5784,1.5784,1.5784,1.5784,1.5784,1.5689,0.0,0.0,0.0,0.0,0.0,0.0,0.0,0.0,0.0,0.0,1.4838,1.4544,1.4544,1.4496,1.4298,1.4298,1.4298,1.4298,1.4298,1.4298,1.4298,1.4298,1.4298,1.4298,1.4298,1.4298,1.4298,1.4298,1.4298,1.4298,1.4298,1.4298,1.4298,1.4298,1.4298,1.4298,1.4298,1.4298,1.4346,1.4819,1.4675,1.4346,1.4819,1.4962,1.5003,1.5324,1.5744,1.5893,1.4669,1.4298,1.4298,1.4298,1.4442,1.4544,1.4544,1.464,1.479,1.4939,1.5035,1.5083,1.5083,1.5083,1.5131,1.5315,1.5356,1.5356,1.5356,1.5458,1.5499,1.5356,1.5458,1.5499,1.5499,1.5499,1.5499,1.5499,1.5274,1.5083,1.4939,1.4933,1.4885,1.479,1.479,1.4694,1.4544,1.4688,1.464,1.4298,1.4442,1.4442,1.4298,1.4298,1.4298,1.4298,1.4298,1.4298,1.5086,1.5178,1.522,1.522,1.522,1.5267,0.0,0.0,1.5635,1.5784,1.5784,1.5784,1.5784,1.5784,1.5784,1.5784,0.0,1.5588,1.5493,0.0,0.0,0.0,0.0,1.5035,0.0,1.4987,1.5029,1.4927,1.4885,1.4742,1.4544,1.4544,1.4442,1.4298,1.4298,1.4298,1.4298,1.4298,1.4298,1.4298,1.4298,1.4298,1.4298,1.4298,1.4442,1.4627,1.4627,1.4771,1.501,1.5146,1.5188,1.5188,1.5324,1.5371,1.5466,1.5988,1.5846,1.5466,1.5988,1.6177,1.6224,1.6633,1.7102,1.7242,1.5839,1.5188,1.4997,1.5324,1.552,1.5669,1.5669,1.5629,1.573,1.6008,1.592,1.5832,1.6109,1.6197,1.6244,1.6426,1.6244,1.6008,1.6008,1.592,1.5737,1.5588,1.573,1.5784,1.5784,1.5784,1.5784,1.5784,1.5506,1.5267,1.522,1.522,1.5172,1.5131,1.5083,1.5035,1.4838,1.4987,1.4933,1.4544,1.4736,1.4736,1.4544,1.4544,1.4544,1.4544,1.4544,1.449,1.5025,1.5309,1.5493,1.5493,1.5493,1.554,0.0,1.5784,1.5784,1.5784,1.5784,1.5784,1.5784,1.5784,1.5784,1.5784,1.5784,0.0,1.554,0.0,0.0,0.0,0.0,1.5083,1.5083,1.5083,1.5226,1.5493,1.5267,1.5083,1.5083,1.5083,1.4838,1.4298,1.4298,1.4298,1.4298,1.4298,1.4298,1.4298,1.4298,1.4298,1.4298,1.4298,1.4675,1.5384,1.5384,1.5818,1.6629,1.707,1.7296,1.7289,1.7801,1.794,1.794,1.7987,1.7987,1.794,1.7987,1.7987,1.7987,1.7987,1.7987,1.7987,1.7987,1.7289,1.668,1.7662,1.794,1.7987,1.7987,1.7436,1.7117,1.8118,1.7816,1.7552,1.8565,1.8742,1.8742,1.8788,1.7971,1.7279,1.7279,1.644,1.5784,1.5784,1.5784,1.5784,1.5784,1.5784,1.5784,1.5784,1.5784,1.573,1.5493,1.5493,1.5356,1.5131,1.5083,1.5083,1.5083,1.5083,1.5083,1.5083,1.5083,1.5083,1.5083,1.5083,1.5083,1.5083,1.5083,1.4939,1.5536,1.5642,1.573,1.573,1.573,1.5737,1.5778,1.5784,1.5784,1.5784,1.5784,1.5784,1.5784,1.5784,1.5784,1.5784,1.5784,0.0,0.0,0.0,0.0,0.0,1.5356,1.5404,0.0,0.0,1.5547,1.5493,1.5404,1.5309,1.5131,1.5083,1.5035,1.4838,1.4838,1.4838,1.4838,1.4838,1.4838,1.4838,1.4838,1.5159,1.5792,1.5792,1.6311,1.7203,1.7203,1.7343,1.7584,1.7716,1.7801,1.7801,1.794,1.7987,1.8079,1.8634,1.8449,1.8079,1.8642,1.8826,1.8872,1.9193,1.9658,2.0113,2.0439,1.9139,1.7608,1.8118,1.8257,1.8311,1.8503,1.8365,1.828,1.8596,1.8511,1.8427,1.8742,1.8788,1.8788,1.8788,1.8565,1.8334,1.8334,1.8056,1.7863,1.7863,1.7863,1.7863,1.7863,1.7271,1.6817,1.6817,1.6204,1.5784,1.573,1.573,1.5689,1.5594,1.5594,1.5499,1.5356,1.5499,1.541,1.5131,1.5267,1.5267,1.5083,1.5083,1.5083,1.5083,1.5083,1.5035,0.0,1.6709,1.685,1.648,1.6393,0.0,0.0,1.5784,1.5784,1.5784,1.5784,1.5784,1.5784,1.5784,1.5784,1.5784,1.5784,1.5784,0.0,0.0,0.0,1.5635,0.0,0.0,0.0,1.5784,1.592,1.615,1.6204,1.6244,1.6473,1.648,1.648,1.648,1.5913,1.5635,1.5635,1.6008,1.619,1.619,1.619,1.6513,1.7055,1.7055,1.7569,1.8449,1.8449,1.8596,0.0,1.9055,1.9139,1.9139,1.933,1.9422,1.9467,1.9977,1.984,1.9467,1.9977,2.0158,2.0212,2.0492,2.0907,2.132,2.1597,2.0628,1.9376,1.9185,1.9368,1.9695,1.9849,1.9613,1.9476,1.9803,1.9621,1.9476,1.9803,1.9894,1.9894,1.9894,1.9613,1.9384,1.9384,1.9063,1.8788,1.8788,1.8788,1.8788,1.8788,1.8241,1.7878,1.7878,1.7318,1.6943,1.6943,1.6244,1.5784,1.5784,1.5784,1.573,1.5635,1.573,1.5642,1.5363,1.5547,1.5547,1.5363,1.5363,1.5363,1.5363,1.5267,1.5267,0.0,1.8357,0.0,0.0,0.0,0.0,1.6157,1.592,0.0,1.5832,1.5832,1.5832,1.5825,1.5832,1.5832,1.5832,1.5832,1.5784,0.0,1.5784,0.0,0.0,1.5927,0.0,1.6015,1.6015,1.6386,1.7326,1.7419,1.7831,1.8742,1.8788,1.8788,1.8788,1.7475,1.6727,1.668,1.7569,1.8079,1.8079,1.8079,1.8079,1.8172,1.8172,1.8588,1.9384,1.9384,1.9766,2.0428,2.0862,2.1042,2.1087,2.1553,2.1696,2.1696,2.1696,2.1696,2.1696,2.1696,2.1696,2.1696,2.1696,2.1696,2.1696,2.1696,2.1696,2.1508,2.0619,2.1042,2.1696,2.1696,2.1042,2.0619,2.1508,2.1042,2.0619,2.1508,2.1696,2.1696,2.1696,2.0997,2.0393,2.0393,1.9613,1.9026,1.9026,1.9026,1.9026,1.9026,1.8926,1.8926,1.8926,1.8834,1.8788,1.8788,1.703,1.592,1.6015,1.5967,1.5927,1.5927,1.5927,1.5927,1.5927,1.5927,1.5872,1.5784,1.5872,1.5872,1.5784,1.5778,1.5683,2.014,0.0,1.8964,1.8557,1.8473,1.8241,0.0,1.7091,1.677,1.6218,0.0,1.5879,1.6076,1.5933,1.5879,1.6076,1.5927,1.5784,1.5784,0.0,0.0,1.6864,1.6951,1.7225,1.8002,1.8095,1.8195,1.8427,1.8473,1.8565,1.8796,1.8788,1.8788,1.8788,1.9193,1.9047,1.8272,1.8511,1.8603,1.8603,1.8603,1.901,1.9741,1.9741,2.0249,2.1087,2.1087,2.123,2.1374,2.1508,2.1553,2.1553,2.1651,2.1696,2.1696,2.1696,2.1696,2.1696,2.1696,2.1696,2.1696,2.1696,2.1696,2.1696,2.1696,2.1696,2.1642,2.141,2.1553,2.1696,2.1696,2.1553,2.1419,2.1642,2.1553,2.1419,2.1642,2.1696,2.1696,2.1696,2.1508,2.1365,2.1365,2.1177,2.1006,2.1006,2.1006,2.1006,2.1006,2.0393,1.9931,1.9931,1.9247,1.8788,1.8788,1.7645,1.7271,1.8056,1.7365,1.6951,1.6951,1.6951,1.6951,1.6951,1.6951,1.6574,1.5784,1.6574,1.6534,1.5825,1.7311,1.7591,2.0683,2.0536,2.0458,1.9914,1.9832,1.9467,1.8141,0.0,0.0,0.0,0.0,1.6163,1.6224,1.6076,1.5981,1.6028,1.5879,0.0,0.0,0.0,1.6857,1.7878,1.7971,1.8195,0.0,1.8788,1.8972,1.943,1.9476,1.9658,2.0121,2.0121,2.0121,2.0121,2.0673,2.0484,1.9521,1.994,2.0121,2.0121,2.0121,2.0402,2.0943,2.0943,2.123,2.1696,2.1696,2.1696,2.1696,2.1696,2.1696,2.1696,2.1696,2.1696,2.1696,2.1696,2.1696,2.1696,2.1696,2.1696,2.1696,2.1696,2.1696,2.1696,2.1696,2.1696,2.1696,2.1696,2.1696,2.1696,2.1696,2.1696,2.1696,2.1696,2.1696,2.1696,2.1696,2.1696,2.1696,2.1696,2.1696,2.1696,2.1696,2.1696,2.1696,2.1696,2.1696,2.1696,2.1696,2.1275,2.0943,2.0943,2.0447,2.0121,2.0121,1.9255,1.8696,1.8788,1.8288,1.7971,1.7971,1.7971,1.7971,1.7971,1.7971,1.7738,1.7171,1.7731,1.7458,1.6534,1.8102,1.801,2.0713,2.1315,2.2059,2.1364,2.123,2.0728,1.8902,0.0,0.0,0.0,0.0,0.0,0.0,1.6224,0.0,0.0,0.0,0.0,1.7145,1.7279,1.7738,1.888,1.9018,0.0,1.9255,1.9247,1.9621,2.0439,2.0529,2.0853,2.1651,2.1696,2.1696,2.1696,2.1696,2.132,2.0529,2.132,2.1696,2.1696,2.1696,2.1696,2.1696,2.1696,2.1696,2.1696,2.1696,2.1696,2.1696,2.1696,2.1696,2.1696,2.1696,2.1696,2.1696,2.1696,2.1696,2.1696,2.1696,2.1696,2.1696,2.1696,2.1741,2.1785,2.1785,2.1785,2.183,2.183,2.1776,2.1776,2.1776,2.1776,2.1785,2.1785,2.1741,2.1696,2.1696,2.1696,2.1696,2.1696,2.1696,2.1696,2.1696,2.1696,2.1696,2.1696,2.1696,2.1696,2.1696,2.1696,2.1696,2.1696,2.1696,2.1696,2.1696,2.0988,2.0167,1.9347,1.9109,1.9018,1.9018,1.9018,1.8972,1.8788,1.8926,1.8926,1.8788,1.8926,1.8511,1.7559,1.8703,1.8234,2.1668,2.1564,2.1578,2.2059,2.2201,2.1926,2.1015,0.0,0.0,0.0,0.0,0.0,0.0,1.6359,1.6177,0.0,0.0,1.6157,0.0,0.0,1.7971,1.984,0.0,2.0393,2.1186,2.123,2.132,2.1463,2.1508,2.1553,2.1687,2.1696,2.1696,2.1696,2.1696,2.1642,2.1508,2.1642,2.1696,2.1696,2.1696,2.1696,2.1696,2.1696,2.1696,2.1696,2.1696,2.1696,2.1696,2.1696,2.1696,2.1696,2.1696,2.1696,2.1696,2.1696,2.1696,2.1696,2.1696,2.1696,2.1696,2.1696,2.1874,2.2052,2.2052,2.2176,2.2309,2.2309,2.2176,2.2097,2.2264,2.2185,2.2052,2.2052,2.1874,2.1696,2.1696,2.1696,2.1696,2.1696,2.1696,2.1696,2.1696,2.1696,2.1696,2.1696,2.1696,2.1696,2.1696,2.1696,2.1696,2.1696,2.1696,2.1696,2.1696,2.1553,2.1499,2.1588,2.0619,2.0068,2.0068,2.0068,1.9658,1.8834,1.9658,1.9658,1.8788,1.9658,1.9567,1.8611,2.0402,2.0673,2.1885,2.2097,2.2217,2.2059,2.1418,2.0593,1.9733,1.9101,0.0,0.0,0.0,0.0,0.0,0.0,1.7153,1.6824,0.0,1.6339,1.787,1.8102,1.8842,0.0,0.0,2.1221,2.1651,2.1696,2.1696,2.1696,2.1696,2.1696,2.1696,2.1696,2.1696,2.1696,2.1696,2.1696,2.1696,2.1696,2.1696,2.1696,2.1696,2.1696,2.1696,2.1696,2.1696,2.1696,2.1696,2.1696,2.1696,2.1696,2.1696,2.1696,2.1696,2.1696,2.1696,2.1696,2.1776,2.1919,2.1919,2.1998,2.2087,2.2087,2.2176,2.2264,2.2264,2.2309,2.2432,2.2574,2.2441,2.2264,2.2397,2.2309,2.2264,2.2264,2.2176,2.2087,2.2087,2.2087,2.2087,2.2087,2.2087,2.2087,2.2087,2.2087,2.2087,2.2087,2.2087,2.2087,2.2087,2.2087,2.2087,2.2087,2.2087,2.2087,2.2087,2.2087,2.1998,2.1874,2.1579,2.1392,2.1266,2.1392,2.1204,2.0754,2.1204,2.1168,2.0583,2.1168,2.0799,1.9658,2.1311,2.1168,2.1885,2.2277,2.2501,2.1774,0.0,1.9997,1.8726,1.8449,0.0,0.0,0.0,0.0,0.0,1.7893,0.0,1.7145,1.6716,1.703,1.8557,1.9018,1.9803,2.1508,2.1696,2.1696,2.1696,2.1696,2.1696,2.1696,2.1696,2.1696,2.1696,2.1696,2.1696,2.1696,2.1696,2.1696,2.1696,2.1696,2.1696,2.1696,2.1696,2.1696,2.1696,2.1696,2.1696,2.1696,2.1696,2.1696,2.1696,2.1696,2.1696,2.1696,2.1785,2.182,2.1865,2.1865,2.1998,2.2185,2.2185,2.2264,2.2397,2.2397,2.2441,2.2485,2.2485,2.253,2.2608,2.2794,2.2706,2.2574,2.2574,2.253,2.2485,2.2485,2.2441,2.2397,2.2397,2.2397,2.2397,2.2397,2.2397,2.2397,2.2397,2.2397,2.2397,2.2397,2.2397,2.2397,2.2397,2.2397,2.2397,2.2397,2.2397,2.2397,2.2397,2.2441,2.2309,2.1909,2.222,2.2309,2.2185,2.2309,2.2397,2.2397,2.2397,2.2309,2.2185,2.2309,2.1847,2.0844,2.1891,2.1392,2.1885,2.1693,2.1426,2.1337,2.2076,2.2325,2.0249,1.9749,0.0,1.8172,0.0,0.0,0.0,1.7279,1.7419,1.6454,1.7598,1.865,1.8788,0.0,2.0574,2.1597,2.1696,2.1696,2.1696,2.1696,2.1696,2.1696,2.1696,2.1696,2.1696,2.1696,2.1696,2.1696,2.1696,2.1696,2.1696,2.1696,2.1696,2.1696,2.1696,2.1696,2.1696,2.1696,2.1696,2.1696,2.1696,2.1696,2.1696,2.1696,2.1696,2.1741,2.1963,2.2185,2.2353,2.2353,2.2353,2.2397,2.2397,2.2397,2.2397,2.2397,2.2574,2.275,2.275,2.2882,2.3047,2.3057,2.3047,2.3047,2.3047,2.2925,2.275,2.275,2.2574,2.2397,2.2397,2.2397,2.2397,2.2397,2.2397,2.2397,2.2397,2.2397,2.2397,2.2397,2.2397,2.2397,2.2397,2.2397,2.2397,2.2397,2.2397,2.2397,2.2397,2.2618,2.2662,2.2353,2.2397,2.2388,2.2397,2.2397,2.2397,2.2397,2.2397,2.2388,2.2397,2.2388,2.2344,2.2255,2.2344,2.2299,2.1885,2.1745,2.1543,2.1543,2.1872,0.0,0.0,1.8511,1.8288,1.7311,1.6857,0.0,0.0,0.0,1.8334,1.8102,1.8465,1.9018,1.9658,2.0068,2.0664,2.1597,2.1696,2.1696,2.1696,2.1874,2.1963,2.1963,2.1963,2.1963,2.1963,2.1776,2.1696,2.1696,2.1696,2.1696,2.1696,2.1696,2.1696,2.1696,2.1696,2.1696,2.1696,2.1696,2.1696,2.1696,2.1696,2.1776,2.1963,2.1963,2.2008,2.2132,2.2264,2.2353,2.2397,2.2397,2.253,2.2662,2.2662,2.275,2.2828,2.2828,2.2882,2.2969,2.2969,2.3057,2.3091,2.3091,2.3091,2.3091,2.3091,2.3057,2.2969,2.2969,2.2916,2.2828,2.2828,2.2828,2.2828,2.2828,2.2828,2.2828,2.2828,2.2828,2.2828,2.2828,2.2828,2.2828,2.2828,2.2828,2.2828,2.2828,2.2828,2.2828,2.2828,2.2925,2.2925,2.2828,2.2828,2.2794,2.2662,2.275,2.2828,2.2828,2.2828,2.2784,2.2662,2.2784,2.2706,2.2397,2.2706,2.2696,2.2083,2.2117,2.205,2.1784,0.0,0.0,1.8926,1.8373,1.8149,1.7225,1.7091,1.7505,1.8565,0.0,0.0,0.0,1.9476,1.9886,2.0339,2.0664,2.1132,2.1731,2.183,2.183,2.183,2.2008,2.2141,2.2185,2.2185,2.2185,2.2097,2.2008,2.1909,2.183,2.1874,2.1909,2.1909,2.1909,2.1909,2.1909,2.1909,2.182,2.1696,2.1785,2.183,2.183,2.1909,2.2043,2.2185,2.2185,2.2318,2.253,2.253,2.2574,2.2608,2.2608,2.275,2.2925,2.3222,2.344,2.3517,2.3517,2.3734,2.3897,2.3647,2.3724,2.393,2.393,2.393,2.393,2.393,2.3517,2.3091,2.3091,2.3091,2.3091,2.3091,2.3091,2.3091,2.3091,2.3091,2.3091,2.3091,2.3091,2.3091,2.3091,2.3091,2.3091,2.3091,2.3091,2.3091,2.3091,2.3091,2.3091,2.3091,2.3091,2.3091,2.3091,2.3091,2.3057,2.2882,2.3013,2.3091,2.3091,2.3091,2.3013,2.2891,2.3047,2.2916,2.2618,2.2969,2.2925,2.2435,2.2779,2.2872,0.0,0.0,0.0,2.0212,1.9894,1.9521,1.8265,1.8234,1.8611,1.9347,1.9484,0.0,1.9247,2.0628,2.1454,2.0737,2.1481,2.2097,2.2097,2.2097,2.2097,2.2097,2.2097,2.2185,2.2397,2.2397,2.2309,2.2097,2.2309,2.2309,2.2097,2.2309,2.2397,2.2397,2.2397,2.2397,2.2397,2.2397,2.2176,2.1741,2.1963,2.2097,2.2097,2.2309,2.2397,2.2441,2.2432,2.2574,2.2847,2.2847,2.2969,2.3135,2.3135,2.3135,2.3266,2.4198,2.4498,2.4498,2.4498,2.5084,2.5652,2.4787,2.5115,2.5777,2.5777,2.5777,2.5777,2.5777,2.4488,2.3135,2.3135,2.3135,2.3091,2.3091,2.3101,2.3091,2.3091,2.3091,2.3091,2.3091,2.3091,2.3091,2.3091,2.3091,2.3091,2.3091,2.3091,2.3091,2.3091,2.3091,2.3091,2.3091,2.3091,2.3091,2.3091,2.3091,2.3091,2.3091,2.3091,2.3091,2.3091,2.3091,2.3091,2.3091,2.3091,2.3091,2.3091,2.3091,2.3091,2.2698,2.2544,0.0,2.2643,0.0,0.0,0.0,2.0529,0.0,0.0,1.9255,1.9301,1.9712,1.994,0.0,2.0167,2.1186,2.1909,2.1678,2.1909,2.2141,2.2309,2.2185,2.2141,2.2309,2.2485,2.2627,2.2662,2.2662,2.2671,2.2583,2.2485,2.2353,2.2309,2.2353,2.2397,2.2397,2.2397,2.2397,2.2397,2.2397,2.2353,2.222,2.2264,2.2309,2.2309,2.2353,2.2862,2.3671,2.4467,2.4851,2.4904,2.4904,2.4946,2.4988,2.4988,2.4988,2.5031,2.5326,2.5411,2.5411,2.5411,2.5579,2.5735,2.5495,2.5568,2.5777,2.5777,2.5777,2.5777,2.5777,2.5411,2.4988,2.4988,2.4531,2.4069,2.4069,2.356,2.3091,2.3091,2.3091,2.3091,2.3091,2.3091,2.3091,2.3091,2.3091,2.3091,2.3091,2.3091,2.3091,2.3091,2.3091,2.3091,2.3091,2.3091,2.3091,2.3091,2.3091,2.3091,2.3091,2.3091,2.3091,2.3091,2.3091,2.3091,2.3091,2.3091,2.3091,2.3091,2.3091,2.3091,2.2906,2.2713,0.0,2.2545,2.2104,2.1695,2.1695,0.0,0.0,0.0,2.0484,2.0529,2.0979,2.0844,0.0,2.1266,2.1811,2.2274,2.2362,2.2362,2.2407,2.253,2.2441,2.2451,2.253,2.2715,2.2847,2.2925,2.2925,2.2882,2.2803,2.2706,2.2662,2.2574,2.2662,2.2696,2.2696,2.2696,2.2872,2.3246,2.3246,2.342,2.3704,2.2906,2.274,2.3115,2.3541,2.4125,2.4808,2.5526,2.5777,2.5777,2.5777,2.5777,2.5777,2.5777,2.5777,2.5872,2.6246,2.637,2.637,2.637,2.6577,2.6794,2.6453,2.6588,2.6864,2.6864,2.6864,2.6864,2.6864,2.6864,2.67,2.5955,2.5411,2.5031,2.5031,2.4284,2.3777,2.4102,2.3594,2.3222,2.3604,2.3353,2.3222,2.3604,2.3647,2.3517,2.3135,2.3091,2.3091,2.3091,2.3091,2.3091,2.3091,2.3091,2.3091,2.3091,2.3091,2.3091,2.3091,2.3091,2.3091,2.3091,2.3091,2.3091,2.3091,2.3091,2.3091,2.3091,2.3091,2.3091,2.304,2.3135,0.0,2.2059,2.1828,0.0,2.1828,2.1828,2.1828,2.1828,0.0,2.2015,2.2662,2.2024,2.1606,2.2299,2.2441,2.253,2.2759,2.2803,2.2803,2.2847,2.2794,2.2803,2.2847,2.2847,2.2882,2.3101,2.3091,2.3013,2.2847,2.3013,2.3013,2.2847,2.3013,2.3091,2.3091,2.3178,2.3647,2.4498,2.4573,2.5031,2.5735,2.3897,2.3517,2.4307,2.5442,2.5913,2.5944,2.5986,2.6038,2.6038,2.6038,2.6038,2.6038,2.6038,2.6038,2.6163,2.701,2.7307,2.7307,2.7307,2.7846,2.8339,2.7551,2.7886,2.851,2.851,2.851,2.851,2.851,2.851,2.8127,2.6453,2.5986,2.5913,2.5913,2.5242,2.4829,2.5663,2.4488,2.3604,2.4445,2.3897,2.3647,2.4498,2.4627,2.4327,2.3484,2.3353,2.3309,2.3222,2.3222,2.3178,2.3101,2.3178,2.3222,2.3222,2.3309,2.3353,2.3353,2.3178,2.3091,2.3091,2.3178,2.3188,2.3091,2.3178,2.3178,2.3091,2.3091,2.3091,2.347,2.3537,0.0,0.0,2.2775,2.2775,2.2775,2.2775,2.2775,2.2775,2.2652,2.2618,2.275,2.2441,2.2211,2.2388,2.2574,2.2706,2.2794,2.2803,2.2838,2.3013,2.2891,2.2838,2.3013,2.3057,2.3047,2.3091,2.3091,2.3091,2.3057,2.3101,2.3091,2.3057,2.3101,2.3091,2.3091,2.382,2.4284,2.4498,2.52,2.5621,2.5788,2.5358,2.5274,2.5484,2.6464,2.6887,2.6969,2.7632,2.7926,2.7926,2.7926,2.7926,2.7926,2.7926,2.7926,2.7966,2.8139,2.8219,2.8219,2.8219,2.8351,2.8471,2.8259,2.8339,2.851,2.851,2.851,2.851,2.851,2.8618,2.8645,2.8263,2.7528,2.6887,2.6887,2.6163,2.5579,2.5746,2.5495,2.5284,2.5495,2.5358,2.5274,2.5495,2.5537,2.5453,2.5242,2.5242,2.4946,2.4284,2.4198,2.3907,2.3178,2.3777,2.4198,2.4198,2.4819,2.5242,2.5242,2.3854,2.3091,2.3091,2.381,2.382,2.3091,2.3854,2.382,2.3091,2.3091,2.3091,2.3513,0.0,0.0,2.3188,0.0,2.3091,2.3091,2.3091,2.3091,2.3091,2.3013,2.2925,2.2925,2.2838,2.275,2.275,2.2838,2.2925,2.2925,2.2925,2.2969,2.3101,2.3013,2.2969,2.3101,2.3091,2.3091,2.3091,2.3091,2.3091,2.3091,2.3091,2.3091,2.3091,2.3517,2.3777,2.3777,2.4659,2.5326,2.5799,2.6257,2.6712,2.708,2.667,2.6464,2.6505,2.7429,2.7805,2.7846,2.8299,2.851,2.851,2.851,2.851,2.851,2.851,2.851,2.851,2.851,2.851,2.851,2.851,2.851,2.851,2.851,2.851,2.851,2.8618,2.8657,2.8657,2.8736,2.8855,2.8922,2.8922,2.8514,2.8115,2.8115,2.7406,2.6894,2.7313,2.6689,2.6276,2.6689,2.6771,2.6565,2.6016,2.6389,2.6607,2.6193,2.6152,2.5944,2.5495,2.5453,2.5274,2.4766,2.5189,2.5453,2.5453,2.5902,2.6152,2.6152,2.5231,2.4595,2.4402,2.4861,2.4861,2.4402,2.4861,2.4861,2.4402,2.4402,2.4402,2.3501,0.0,2.346,2.3188,2.3091,0.0,2.3091,2.3091,2.3091,2.3091,2.3091,2.3091,2.3091,2.3091,2.3091,2.3091,2.3091,2.3091,2.3091,2.3091,2.3091,2.3091,2.3091,2.3091,2.3091,2.3091,2.3091,2.3091,2.3091,2.3091,2.3091,2.3091,2.3178,2.3353,2.4112,2.4584,2.4701,2.5579,2.6412,2.7185,2.7348,2.7805,2.8471,2.7765,2.7429,2.747,2.8179,2.851,2.851,2.851,2.851,2.851,2.851,2.851,2.851,2.851,2.851,2.851,2.851,2.851,2.855,2.855,2.859,2.859,2.859,2.859,2.863,2.8803,2.8843,2.8882,2.9052,2.9131,2.917,2.917,2.917,2.9221,2.9131,2.8554,2.8223,2.8973,2.7931,2.718,2.7891,2.8011,2.7706,2.6737,2.7424,2.7758,2.7058,2.6935,2.6894,2.673,2.6719,2.6648,2.6513,2.6648,2.6719,2.6719,2.6853,2.6935,2.6935,2.6935,2.6771,2.6359,2.6235,2.6069,2.5902,2.6069,2.6069,2.5902,2.5902,2.5902,0.0,0.0,2.346,0.0,2.3091,2.3091,0.0,0.0,2.3091,0.0,2.3091,2.3091,2.3091,2.3091,2.3091,2.3091,2.3091,2.3091,2.3091,2.3091,2.3091,2.3091,2.3091,2.3091,2.3091,2.3091,2.3091,2.3091,2.3091,2.3091,2.3091,2.3091,2.3474,2.4284,2.4413,2.4872,2.5621,2.6547,2.7092,2.7226,2.7966,2.8391,2.851,2.8379,2.8351,2.8351,2.8471,2.851,2.851,2.851,2.851,2.851,2.851,2.851,2.851,2.851,2.851,2.851,2.851,2.8618,2.8764,2.8764,2.8882,2.9013,2.9013,2.9013,2.9013,2.9052,2.9052,2.9052,2.9091,2.9236,2.9341,2.9341,2.9521,2.9585,2.9182,2.9013,2.8973,2.9091,2.8922,2.8803,2.8922,2.8922,2.8882,2.8712,2.8843,2.8882,2.8764,2.8752,2.8462,2.7718,2.7637,2.7302,2.6565,2.718,2.7637,2.7637,2.8343,2.8752,2.8752,2.8752,2.8712,2.8673,2.7931,2.7139,2.64,2.7139,2.7139,2.64,2.64,2.64,2.3945,2.3764,2.346,0.0,2.3091,2.3091,2.3091,0.0,2.3091,2.3091,2.3091,2.3091,2.3091,2.3091,2.3091,2.3091,2.3091,2.3091,2.3091,2.3091,2.3091,2.3091,2.3091,2.3091,2.3091,2.3091,2.3091,2.3091,2.3604,2.3864,2.3864,2.436,2.4819,2.52,2.5757,2.6216,2.6588,2.747,2.7926,2.7926,2.8311,2.851,2.851,2.851,2.851,2.851,2.851,2.851,2.851,2.851,2.851,2.851,2.851,2.8578,2.8657,2.8657,2.8736,2.8828,2.8828,2.8895,2.8961,2.8961,2.9013,2.9091,2.9091,2.9091,2.9131,2.9236,2.9275,2.9314,2.9456,2.9573,2.9611,2.9611,2.9702,2.9753,2.9546,2.9507,2.9507,2.9507,2.9507,2.9456,2.9275,2.9404,2.9456,2.9275,2.9417,2.9507,2.9507,2.9507,2.9339,2.8961,2.8922,2.8752,2.8383,2.8712,2.8922,2.8922,2.93,2.9507,2.9507,2.9507,2.9507,2.9507,2.8882,2.8343,2.7971,2.8343,2.8343,2.7971,2.7971,2.7971,0.0,0.0,2.359,2.3276,2.3188,2.3188,0.0,0.0,2.3091,0.0,2.3091,2.3091,2.3091,2.3091,2.3091,2.3091,2.3091,2.3091,2.3091,2.3091,2.3091,2.3091,2.3309,2.3484,2.3484,2.3647,2.381,2.381,2.4445,2.4829,2.4829,2.5453,2.5913,2.6163,2.6835,2.7307,2.751,2.8179,2.855,2.8578,2.851,2.855,2.8578,2.851,2.851,2.851,2.851,2.851,2.851,2.851,2.855,2.8578,2.8578,2.8697,2.8882,2.8882,2.8961,2.9091,2.9091,2.9131,2.9157,2.9157,2.9209,2.93,2.93,2.93,2.93,2.947,2.9509,2.956,2.9753,2.9792,2.9792,2.9792,2.9792,2.9792,2.9792,2.9792,2.9792,2.9792,2.9792,2.974,2.956,2.9663,2.974,2.9509,2.965,2.9792,2.9792,2.9792,2.9792,2.9792,2.9792,2.9792,2.9792,2.9792,2.9792,2.9792,2.9792,2.9792,2.9792,2.9792,2.9792,2.9792,2.9468,2.93,2.93,2.93,2.93,2.93,2.93,2.93,0.0,2.4163,0.0,2.359,2.3503,0.0,0.0,0.0,2.3091,2.3091,2.3091,2.3091,2.3091,2.3091,2.3091,2.3091,2.3091,2.3091,2.3091,2.3091,2.3091,2.3091,2.3907,2.4413,2.4413,2.5158,2.5652,2.5652,2.5694,2.5746,2.5746,2.5788,2.6205,2.7092,2.7185,2.7603,2.8431,2.8471,2.8618,2.8803,2.8578,2.8618,2.8803,2.8578,2.851,2.851,2.851,2.851,2.851,2.851,2.8618,2.8803,2.8803,2.8922,2.9091,2.9091,2.9091,2.9091,2.9091,2.9236,2.938,2.938,2.956,2.9753,2.9753,2.9753,2.9753,2.9792,2.9792,2.9792,2.9792,2.9792,2.9792,2.9792,2.9792,2.9792,2.9792,2.9792,2.9792,2.9792,2.9792,2.9792,2.9792,2.9792,2.9792,2.9792,2.9792,2.9792,2.9792,2.9792,2.9792,2.9792,2.9792,2.9792,2.9792,2.9792,2.9792,2.9792,2.9792,2.9792,2.9792,2.9792,2.9792,2.9792,2.9792,2.9753,2.9753,2.9753,2.9753,2.9753,2.9753,2.9753,0.0,0.0,0.0,2.3764,2.359,2.346,2.3363,2.3232,2.3091,2.3091,2.3091,2.3091,2.3091,2.3091,2.3091,2.3091,2.3091,2.3091,2.3091,2.3091,2.3091,2.3091,2.395,2.4498,2.4498,2.5284,2.5777,2.5777,2.637,2.6712,2.6712,2.7214,2.7672,2.8007,2.8007,2.8179,2.851,2.8618,2.8724,2.8791,2.8855,2.8934,2.9,2.8934,2.8907,2.8907,2.8907,2.8816,2.8685,2.8816,2.8934,2.9,2.9,2.9118,2.9275,2.9275,2.9404,2.9546,2.9546,2.9585,2.965,2.965,2.9702,2.9792,2.9792,2.9792,2.9792,2.9792,2.9792,2.9792,2.9792,2.9792,2.9792,2.9792,2.9792,2.9792,2.9792,2.9792,2.9792,2.9792,2.9792,2.9792,2.9792,2.9792,2.9792,2.9792,2.9792,2.9792,2.9792,2.9792,2.9792,2.9792,2.9792,2.9792,2.9792,2.9792,2.9792,2.9792,2.9792,2.9792,2.9792,2.9792,2.9792,2.9792,2.9792,2.9792,2.9792,2.9792,2.9792,2.9792,2.9792,2.9792,2.5306,0.0,0.0,0.0,0.0,2.3677,2.3547,0.0,2.3188,2.3135,2.3091,2.3091,2.3091,2.3091,2.3091,2.3091,2.3091,2.3091,2.3091,2.3091,2.3091,2.3091,2.4198,2.4956,2.4956,2.5997,2.6712,2.6712,2.7296,2.7644,2.7644,2.8179,2.855,2.8618,2.8618,2.8618,2.8697,2.8843,2.8922,2.8988,2.9091,2.9131,2.9197,2.9131,2.9091,2.9091,2.917,2.9079,2.8922,2.9052,2.9131,2.9197,2.9197,2.9353,2.9509,2.9509,2.965,2.9792,2.9792,2.9792,2.9792,2.9792,2.9792,2.9792,2.9792,2.9792,2.9792,2.9792,2.9792,2.9792,2.9792,2.9792,2.9792,2.9792,2.9792,2.9792,2.9792,2.9792,2.9792,2.9792,2.9792,2.9792,2.9792,2.9792,2.9792,2.9792,2.9792,2.9792,2.9792,2.9792,2.9792,2.9792,2.9792,2.9792,2.9792,2.9792,2.9792,2.9792,2.9792,2.9792,2.9792,2.9792,2.9792,2.9792,2.9792,2.9792,2.9792,2.9792,2.9792,2.9792,2.9792,2.9792,0.0,0.0,0.0,0.0,0.0,0.0,2.3677,0.0,2.3493,2.3232,2.3178,2.3178,2.3178,2.3178,2.3178,2.3178,2.3178,2.3135,2.3135,2.3178,2.3178,2.3178,2.4776,2.5819,2.5819,2.7458,2.851,2.851,2.851,2.851,2.851,2.851,2.8618,2.8803,2.8803,2.8882,2.9091,2.9091,2.9197,2.9419,2.9197,2.9236,2.9419,2.9209,2.9131,2.9131,2.9314,2.9314,2.9131,2.9131,2.9236,2.9419,2.9419,2.956,2.9792,2.9792,2.9792,2.9792,2.9792,2.9792,2.9792,2.9792,2.9792,2.9792,2.9792,2.9792,2.9792,2.9792,2.9792,2.9792,2.9792,2.9792,2.9792,2.9792,2.9792,2.9792,2.9792,2.9792,2.9792,2.9792,2.9792,2.9792,2.9792,2.9792,2.9792,2.9792,2.9792,2.9792,2.9792,2.9792,2.9792,2.9792,2.9792,2.9792,2.9792,2.9792,2.9792,2.9792,2.9792,2.9792,2.9792,2.9792,2.9792,2.9792,2.9792,2.9792,2.9792,2.9792,2.9792,2.9792,2.9792,2.9792,2.6442,0.0,0.0,0.0,0.0,0.0,0.0,0.0,2.5411,2.4488,2.4851,2.5284,2.5284,2.4766,2.4616,2.5442,2.4882,2.4339,2.4339,2.4872,2.5284,2.5284,2.6193,2.6794,2.6794,2.7846,2.8538,2.8724,2.8578,2.8538,2.8724,2.8724,2.8724,2.8791,2.8922,2.9052,2.9091,2.9236,2.9341,2.9419,2.9534,2.9624,2.9702,2.9624,2.9624,2.9624,2.9663,2.9663,2.9624,2.9624,2.9624,2.9702,2.9702,2.974,2.9792,2.9792,2.9792,2.9792,2.9792,2.9792,2.9792,2.9792,2.9792,2.9792,2.9792,2.9792,2.9792,2.9792,2.9792,2.9792,2.9792,2.9792,2.9792,2.9792,2.9792,2.9792,2.9792,2.9792,2.9792,2.9792,2.9792,2.9792,2.9792,2.9792,2.9792,2.9792,2.9792,2.9792,2.9792,2.9792,2.9792,2.9792,2.9792,2.9792,2.9792,2.9792,2.9792,2.9792,2.9792,2.9792,2.9792,2.9792,2.9792,2.9792,2.9792,2.9792,2.9792,2.9792,2.9792,2.9792,2.9792,2.9792,0.0,0.0,0.0,0.0,0.0,0.0,2.6193,2.6359,2.64,2.5652,2.5891,2.6254,2.6254,2.585,2.5746,2.64,2.6337,2.6036,2.5588,2.5964,2.6254,2.6254,2.6987,2.7458,2.7458,2.8247,2.8816,2.8922,2.8816,2.8816,2.8922,2.8922,2.8961,2.9067,2.9157,2.9287,2.9378,2.9495,2.956,2.956,2.974,2.9792,2.9792,2.9792,2.9792,2.9792,2.9792,2.9792,2.9792,2.9792,2.9792,2.9792,2.9792,2.9792,2.9792,2.9792,2.9792,2.9792,2.9792,2.9792,2.9792,2.9792,2.9792,2.9792,2.9792,2.9792,2.9792,2.9792,2.9792,2.9792,2.9792,2.9792,2.9792,2.9792,2.9792,2.9792,2.9792,2.9792,2.9792,2.9792,2.9792,2.9792,2.9792,2.9792,2.9792,2.9792,2.9792,2.9792,2.9792,2.9792,2.9792,2.9792,2.9792,2.9792,2.9792,2.9792,2.9792,2.9792,2.9792,2.9792,2.9792,2.9792,2.9792,2.9792,2.9792,2.9792,2.9792,2.9792,2.9792,2.9792,2.9792,2.9792,0.0,0.0,0.0,0.0,2.8011,0.0,2.7058,2.7058,2.7058,2.673,2.676,2.6801,2.6801,2.673,2.673,2.6853,2.7574,2.7815,2.6801,2.676,2.6801,2.6801,2.7476,2.7931,2.7931,2.8633,2.9091,2.9131,2.9131,2.9131,2.9091,2.9131,2.9236,2.938,2.9419,2.956,2.9792,2.9792,2.9792,2.9792,2.9792,2.9792,2.9792,2.9792,2.9792,2.9792,2.9792,2.9792,2.9792,2.9792,2.9792,2.9792,2.9792,2.9792,2.9792,2.9792,2.9792,2.9792,2.9792,2.9792,2.9792,2.9792,2.9792,2.9792,2.9792,2.9792,2.9792,2.9792,2.9792,2.9792,2.9792,2.9792,2.9792,2.9792,2.9792,2.9792,2.9792,2.9792,2.9792,2.9792,2.9792,2.9792,2.9792,2.9792,2.9792,2.9792,2.9792,2.9792,2.9792,2.9792,2.9792,2.9792,2.9792,2.9792,2.9792,2.9792,2.9792,2.9792,2.9792,2.9792,2.9792,2.9792,2.9792,2.9792,2.9895,2.9934,2.9934,2.983,2.9792,2.9792,2.9895,2.9895,0.0,0.0,0.0,0.0,2.9417,0.0,2.8343,2.8712,2.8922,2.7971,2.8371,2.8846,2.8846,2.8239,2.8091,2.9,2.874,2.8279,2.7855,2.8386,2.8846,2.8846,2.8831,2.8843,2.8843,2.9013,2.917,2.9341,2.9341,2.9275,2.9091,2.9236,2.9341,2.9419,2.9611,2.9753,2.9792,2.9792,2.9792,2.9792,2.9792,2.9792,2.9792,2.9792,2.9792,2.9792,2.9792,2.9792,2.9792,2.9792,2.9792,2.9792,2.9792,2.9792,2.9792,2.9792,2.9792,2.9792,2.9792,2.9792,2.9792,2.9792,2.9792,2.9792,2.9792,2.9792,2.9792,2.9792,2.9792,2.9792,2.9792,2.9792,2.9792,2.9792,2.9792,2.9792,2.9792,2.9792,2.9792,2.9792,2.9792,2.9792,2.9792,2.9792,2.9792,2.9792,2.9792,2.9792,2.9792,2.9792,2.9792,2.9792,2.9792,2.9792,2.9792,2.9792,2.9792,2.9792,2.9792,2.9792,2.9792,2.9792,2.9792,2.9792,3.0381,3.0683,3.0683,3.0101,2.9792,2.983,3.0419,3.0381,0.0,0.0,0.0,2.9792,2.9792,0.0,0.0,2.9507,2.9624,2.9052,2.9287,2.9599,2.9599,2.9236,2.9131,2.9714,2.9417,2.9118,2.8976,2.9314,2.9599,2.9599,2.9495,2.9456,2.9456,2.9456,2.9495,2.9611,2.9599,2.9573,2.9456,2.9534,2.9599,2.9599,2.974,2.9792,2.9792,2.9792,2.9792,2.9792,2.9792,2.9792,2.9792,3.0165,3.0139,2.983,3.0621,3.0709,3.0381,3.0784,3.0934,3.0872,3.0113,2.9792,2.9792,2.9792,2.9792,2.9792,2.9792,3.0037,3.0343,3.0343,3.0608,3.0934,3.0934,3.0684,3.0343,3.0343,3.0062,2.9895,3.0241,3.0343,3.0457,3.0859,3.0934,3.0934,3.0934,3.0934,3.0934,3.0934,3.0608,3.0241,2.9856,2.9792,2.9792,2.9792,2.9792,2.9934,3.0305,3.0343,3.0495,3.0897,3.0934,3.0934,3.0934,3.0996,3.1033,3.0934,3.1095,3.1132,3.0934,3.0996,3.1033,3.0934,3.1378,3.1573,3.1489,3.1206,3.1033,3.0972,3.1318,3.1318,0.0,0.0,0.0,0.0,0.0,2.9869,0.0,0.0,0.0,2.9792,2.9792,2.9792,0.0,0.0,0.0,2.9641,0.0,0.0,0.0,2.9729,0.0,2.9792,2.9792,2.9792,2.9792,2.9792,2.9792,2.9792,2.9792,2.9792,2.9792,2.9792,2.9792,2.9792,2.9792,2.9792,2.9792,2.9792,2.9792,2.9792,2.9792,2.9792,2.983,3.0545,3.0582,3.0113,3.1502,3.1746,3.118,3.1819,3.211,3.1978,3.0722,3.0228,3.0228,3.0228,3.0228,3.0228,3.0228,3.0633,3.1119,3.1119,3.1563,3.211,3.211,3.1636,3.1119,3.1119,3.0709,3.0355,3.0983,3.1119,3.1304,3.1928,3.211,3.211,3.211,3.211,3.211,3.2146,3.1623,3.0932,3.0139,2.9998,3.0037,3.0075,3.0177,3.0533,3.1143,3.1217,3.1476,3.2146,3.2218,3.2218,3.2218,3.2299,3.2321,3.2205,3.2442,3.2478,3.2218,3.2299,3.2299,3.2218,3.2442,3.255,3.2434,3.2692,3.255,3.211,3.2254,3.2254,0.0,0.0,0.0,0.0,3.019,3.0075,3.0075,0.0,3.0011,2.983,0.0,2.9792,2.9792,0.0,0.0,0.0,2.9453,2.9616,2.9063,2.9465,2.9792,2.9792,2.9792,2.9792,2.9792,2.9792,2.9792,2.9792,2.9792,2.9792,2.9792,2.9792,2.9792,2.9792,2.9792,2.9792,2.9792,2.9792,2.9792,2.9792,2.9792,2.9792,2.983,3.0545,3.0857,3.082,3.1709,3.2051,3.1965,3.2074,3.211,3.2074,3.1905,3.1833,3.1833,3.1833,3.1833,3.1833,3.1833,3.1892,3.1965,3.1965,3.2051,3.211,3.211,3.2051,3.1965,3.1965,3.1892,3.1869,3.1928,3.1965,3.2001,3.2074,3.211,3.211,3.211,3.211,3.2146,3.2249,3.2213,3.1852,3.0932,3.0796,3.0833,3.1007,3.1609,3.2105,3.2393,3.2429,3.2464,3.2536,3.2536,3.2536,3.2536,3.2571,3.2558,3.2536,3.2571,3.2558,3.2536,3.2571,3.2558,3.2536,3.3269,3.361,3.361,3.4288,3.3748,3.211,3.2755,3.2777,0.0,0.0,0.0,0.0,3.0075,2.9972,3.0075,3.0113,3.0075,2.9972,0.0,0.0,0.0,0.0,0.0,0.0,2.9628,2.9704,0.0,0.0,2.9792,2.9792,2.9792,2.9792,2.9792,2.9792,2.9792,2.9792,2.9792,2.9792,2.9792,2.9792,2.9792,2.9792,2.9792,2.9792,2.9792,3.0203,3.0444,3.0444,3.0897,3.1121,3.1158,3.1892,3.1988,3.1673,3.2911,3.3171,3.2755,3.3241,3.343,3.343,3.343,3.2889,3.211,3.211,3.211,3.211,3.211,3.2362,3.2826,3.343,3.3604,3.3638,3.3693,3.3437,3.3073,3.3073,3.2741,3.2478,3.2967,3.3073,3.3178,3.361,3.3713,3.3713,3.3713,3.3713,3.3748,3.3817,3.3443,3.3059,3.267,3.2191,3.1924,3.1997,3.2285,3.2678,3.3234,3.3304,3.3443,3.3871,3.3939,3.3939,3.3939,3.4056,3.4056,3.3953,3.3939,3.3988,3.409,3.3988,3.3939,3.3939,3.439,3.4539,3.4438,3.4868,3.4606,3.3713,3.4036,3.407,2.9767,2.9934,2.9985,3.0267,3.0203,3.0088,3.0241,3.0267,3.0228,3.019,3.019,0.0,0.0,0.0,0.0,0.0,0.0,2.9806,0.0,2.9691,0.0,2.9792,2.9792,2.9792,2.9792,2.9792,2.9792,2.9792,2.9792,2.9792,2.9792,2.9792,2.9895,3.0113,2.9895,3.0011,3.0444,3.072,3.1007,3.123,3.1819,3.211,3.211,3.2861,3.2897,3.2484,3.3825,3.4079,3.3555,3.4147,3.4414,3.4414,3.4414,3.3722,3.2733,3.2733,3.2733,3.2733,3.2733,3.3087,3.3673,3.4433,3.4698,3.4731,3.4868,3.4539,3.4104,3.4104,3.3665,3.3359,3.3968,3.4104,3.4254,3.4754,3.4902,3.4902,3.4902,3.4902,3.4935,3.4968,3.4539,3.4187,3.4254,3.3526,3.2925,3.2996,3.3171,3.3547,3.4172,3.4254,3.4471,3.5001,3.5082,3.5082,3.5082,3.518,3.5213,3.5082,3.5082,3.5115,3.5294,3.5148,3.5082,3.5082,3.5213,3.5213,3.5082,3.5213,3.5213,3.5082,3.4935,3.4935,3.0254,3.0228,3.0228,3.0836,3.0811,3.066,3.066,3.066,3.0622,3.0444,3.0406,3.0406,0.0,0.0,0.0,0.0,0.0,0.0,0.0,0.0,2.9792,2.9792,2.9792,2.9792,2.9792,2.9792,2.9792,2.9792,2.9792,2.9792,2.9792,2.9792,3.0139,3.0857,3.0165,3.0508,3.2015,3.1267,3.1304,3.2074,3.2074,3.211,3.211,3.2861,3.3178,3.3213,3.4045,3.438,3.4366,3.438,3.4414,3.4414,3.4414,3.438,3.4346,3.4346,3.4346,3.4346,3.4346,3.4346,3.4414,3.4631,3.4698,3.4731,3.4868,3.4902,3.4868,3.4868,3.4854,3.482,3.4868,3.4868,3.4868,3.4902,3.4902,3.4902,3.4902,3.4902,3.4968,3.5148,3.518,3.5213,3.5407,3.4505,3.3817,3.3959,3.4624,3.518,3.5439,3.5439,3.5439,3.5472,3.5472,3.5472,3.5472,3.5504,3.5504,3.5472,3.5472,3.5472,3.5504,3.5472,3.5472,3.5472,3.5504,3.5504,3.5472,3.5504,3.5504,3.5472,3.5082,3.5001,2.9972,2.9934,3.0011,3.0482,3.0457,3.0381,3.0622,3.0698,3.0698,3.0609,3.0609,3.0609,0.0,0.0,0.0,0.0,0.0,0.0,0.0,0.0,3.1108,3.1586,3.057,2.9998,3.0482,3.052,3.052,3.052,3.1033,3.1071,3.0558,3.1033,3.1429,3.1673,3.1429,3.1576,3.2074,3.2313,3.2563,3.2826,3.3346,3.3604,3.3618,3.3894,3.4079,3.4216,3.4481,3.4597,3.4597,3.4597,3.4515,3.4414,3.4563,3.4597,3.4597,3.4597,3.4597,3.4616,3.4702,3.4735,3.4769,3.4949,3.5016,3.5063,3.5261,3.5294,3.5294,3.5294,3.5294,3.5294,3.5294,3.5294,3.5294,3.5294,3.5294,3.5294,3.5294,3.5294,3.5326,3.5392,3.5392,3.5439,3.5504,3.518,3.4935,3.4986,3.5213,3.5439,3.5504,3.5504,3.5504,3.5504,3.5504,3.5504,3.5504,3.5504,3.5504,3.5504,3.5504,3.5504,3.5504,3.5504,3.5504,3.5504,3.5504,3.5504,3.5504,3.5504,3.5504,3.5504,3.5359,3.5326,2.9972,3.0049,3.0203,3.052,3.0533,3.0495,3.0773,3.0811,3.0811,3.0811,3.0811,3.0811,3.0811,0.0,0.0,0.0,0.0,0.0,0.0,3.1599,3.206,3.2522,3.1513,0.0,3.1365,3.1462,3.1462,3.1341,3.1842,3.1915,3.1378,3.1819,3.2218,3.247,3.2218,3.2376,3.2911,3.3122,3.3332,3.3624,3.4147,3.4448,3.4481,3.4414,3.4515,3.4698,3.4631,3.4631,3.4698,3.4698,3.465,3.4601,3.4716,3.4783,3.4783,3.4783,3.4783,3.4783,3.4868,3.4902,3.4935,3.5115,3.518,3.5261,3.5439,3.5504,3.5459,3.5205,3.531,3.5444,3.5205,3.5325,3.5504,3.5504,3.5504,3.5504,3.5504,3.5504,3.5504,3.5504,3.5504,3.5504,3.5504,3.5504,3.5504,3.5504,3.5504,3.5504,3.5504,3.5504,3.5504,3.5504,3.5504,3.5504,3.5504,3.5504,3.5504,3.5504,3.5504,3.5504,3.5504,3.5504,3.5609,3.5848,3.5624,3.5624,3.5848,3.5624,3.5504,3.5504,3.5504,3.5504]}]]